[[{"header":{"parameterUnit":"m.s-1","parameterCategory":1,"la1":30.6,"la2":28.766,"lo1":-90.7593,"lo2":-88.6598,"dy":0.0162,"dx":0.0183,"nx":116,"ny":114,"refTime":"2024-06-03T06:00:00:Z","depth":0,"parameterNumber":2,"parameterNumberName":"U-component_of_WINDS"},"data":[0.0,0.0,0.0,0.0,0.0,0.0,0.0,0.0,0.0,0.0,0.0,0.0,0.0,0.0,0.0,0.0,0.0,0.0,0.0,0.0,0.0,0.0,0.0,0.0,0.0,0.0,0.0,0.0,0.0,0.0,0.0,0.0,0.0,0.0,0.0,0.0,0.0,0.0,0.0,0.0,0.0,0.0,0.0,0.0,0.0,0.0,0.0,0.0,0.0,0.0,0.0,0.0,0.0,0.0,0.0,0.0,0.0,0.0,0.0,0.0,0.0,0.0,0.0,0.0,0.0,0.0,0.0,0.0,0.0,0.0,0.0,0.0,0.0,0.0,0.0,0.0,0.0,0.0,0.0,0.0,0.0,0.0,0.0,0.0,0.0,0.0,0.0,0.0,0.0,0.0,0.0,0.0,0.0,0.0,0.0,0.0,0.0,0.0,0.0,0.0,0.0,0.0,0.0,0.0,0.0,0.0,0.0,0.0,0.0,0.0,0.0,0.0,0.0,0.0,0.0,0.0,0.0,0.0,0.0,0.0,0.0,0.0,0.0,0.0,0.0,0.0,0.0,0.0,0.0,0.0,0.0,0.0,0.0,0.0,0.0,0.0,0.0,0.0,0.0,0.0,0.0,0.0,0.0,0.0,0.0,0.0,0.0,0.0,0.0,0.0,0.0,0.0,0.0,0.0,0.0,0.0,0.0,0.0,0.0,0.0,0.0,0.0,0.0,0.0,0.0,0.0,0.0,0.0,0.0,0.0,0.0,0.0,0.0,0.0,0.0,0.0,0.0,0.0,0.0,0.0,0.0,0.0,0.0,0.0,0.0,0.0,0.0,0.0,0.0,0.0,0.0,0.0,0.0,0.0,0.0,0.0,0.0,0.0,0.0,0.0,0.0,0.0,0.0,0.0,0.0,0.0,0.0,0.0,0.0,0.0,0.0,0.0,0.0,0.0,0.0,0.0,0.0,0.0,0.0,0.0,0.0,0.0,0.0,0.0,0.0,0.0,0.0,0.0,0.0,0.0,0.0,0.0,0.0,0.0,0.0,0.0,0.0,0.0,0.0,0.0,0.0,0.0,0.0,0.0,0.0,0.0,0.0,0.0,0.0,0.0,0.0,0.0,0.0,0.0,0.0,0.0,0.0,0.0,0.0,0.0,0.0,0.0,0.0,0.0,0.0,0.0,0.0,0.0,0.0,0.0,0.0,0.0,0.0,0.0,0.0,0.0,0.0,0.0,0.0,0.0,0.0,0.0,0.0,0.0,0.0,0.0,0.0,0.0,0.0,0.0,0.0,0.0,0.0,0.0,0.0,0.0,0.0,0.0,0.0,0.0,0.0,0.0,0.0,0.0,0.0,0.0,0.0,0.0,0.0,0.0,0.0,0.0,0.0,0.0,0.0,0.0,0.0,0.0,0.0,0.0,0.0,0.0,0.0,0.0,0.0,0.0,0.0,0.0,0.0,0.0,0.0,0.0,0.0,0.0,0.0,0.0,0.0,0.0,0.0,0.0,0.0,0.0,0.0,0.0,0.0,0.0,0.0,0.0,0.0,0.0,0.0,0.0,0.0,0.0,0.0,0.0,0.0,0.0,0.0,0.0,0.0,0.0,0.0,0.0,0.0,0.0,0.0,0.0,0.0,0.0,0.0,0.0,0.0,0.0,0.0,0.0,0.0,0.0,0.0,0.0,0.0,0.0,0.0,0.0,0.0,0.0,0.0,0.0,0.0,0.0,0.0,0.0,0.0,0.0,0.0,0.0,0.0,0.0,0.0,0.0,0.0,0.0,0.0,0.0,0.0,0.0,0.0,0.0,0.0,0.0,0.0,0.0,0.0,0.0,0.0,0.0,0.0,0.0,0.0,0.0,0.0,0.0,0.0,0.0,0.0,0.0,0.0,0.0,0.0,0.0,0.0,0.0,0.0,0.0,0.0,0.0,0.0,0.0,0.0,0.0,0.0,0.0,0.0,0.0,0.0,0.0,0.0,0.0,0.0,0.0,0.0,0.0,0.0,0.0,0.0,0.0,0.0,0.0,0.0,0.0,0.0,0.0,0.0,0.0,0.0,0.0,0.0,0.0,0.0,0.0,0.0,0.0,0.0,0.0,0.0,0.0,0.0,0.0,0.0,0.0,0.0,0.0,0.0,0.0,0.0,0.0,0.0,0.0,0.0,0.0,0.0,0.0,0.0,0.0,0.0,0.0,0.0,0.0,0.0,0.0,0.0,0.0,0.0,0.0,0.0,0.0,0.0,0.0,0.0,0.0,0.0,0.0,0.0,0.0,0.0,0.0,0.0,0.0,0.0,0.0,0.0,0.0,0.0,0.0,0.0,0.0,0.0,0.0,0.0,0.0,0.0,0.0,0.0,0.0,0.0,0.0,0.0,0.0,0.0,0.0,0.0,0.0,0.0,0.0,0.0,0.0,0.0,0.0,0.0,0.0,0.0,0.0,0.0,0.0,0.0,0.0,0.0,0.0,0.0,0.0,0.0,0.0,0.0,0.0,0.0,0.0,0.0,0.0,0.0,0.0,0.0,0.0,0.0,0.0,0.0,0.0,0.0,0.0,0.0,0.0,0.0,0.0,0.0,0.0,0.0,0.0,0.0,0.0,0.0,0.0,0.0,0.0,0.0,0.0,0.0,0.0,0.0,0.0,0.0,0.0,0.0,0.0,0.0,0.0,0.0,0.0,0.0,0.0,0.0,0.0,0.0,0.0,0.0,0.0,0.0,0.0,0.0,0.0,0.0,0.0,0.0,0.0,0.0,0.0,0.0,0.0,0.0,0.0,0.0,0.0,0.0,0.0,0.0,0.0,0.0,0.0,0.0,0.0,0.0,0.0,0.0,0.0,0.0,0.0,0.0,0.0,0.0,0.0,0.0,0.0,0.0,0.0,0.0,0.0,0.0,0.0,0.0,0.0,0.0,0.0,0.0,0.0,0.0,0.0,0.0,0.0,0.0,0.0,0.0,0.0,0.0,0.0,0.0,0.0,0.0,0.0,0.0,0.0,0.0,0.0,0.0,0.0,0.0,0.0,0.0,0.0,0.0,0.0,0.0,0.0,0.0,0.0,0.0,0.0,0.0,0.0,0.0,0.0,0.0,0.0,0.0,0.0,0.0,0.0,0.0,0.0,0.0,0.0,0.0,0.0,0.0,0.0,0.0,0.0,0.0,0.0,0.0,0.0,0.0,0.0,0.0,0.0,0.0,0.0,0.0,0.0,0.0,0.0,0.0,0.0,0.0,0.0,0.0,0.0,0.0,0.0,0.0,0.0,0.0,0.0,0.0,0.0,0.0,0.0,0.0,0.0,0.0,0.0,0.0,0.0,0.0,0.0,0.0,0.0,0.0,0.0,0.0,0.0,0.0,0.0,0.0,0.0,0.0,0.0,0.0,0.0,0.0,0.0,0.0,0.0,0.0,0.0,0.0,0.0,0.0,0.0,0.0,0.0,0.0,0.0,0.0,0.0,0.0,0.0,0.0,0.0,0.0,0.0,0.0,0.0,0.0,0.0,0.0,0.0,0.0,0.0,0.0,0.0,0.0,0.0,0.0,0.0,0.0,0.0,0.0,0.0,0.0,0.0,0.0,0.0,0.0,0.0,0.0,0.0,0.0,0.0,0.0,0.0,0.0,0.0,0.0,0.0,0.0,0.0,0.0,0.0,0.0,0.0,0.0,0.0,0.0,0.0,0.0,0.0,0.0,0.0,0.0,0.0,0.0,0.0,0.0,0.0,0.0,0.0,0.0,0.0,0.0,0.0,0.0,0.0,0.0,0.0,0.0,0.0,0.0,0.0,0.0,0.0,0.0,0.0,0.0,0.0,0.0,0.0,0.0,0.0,0.0,0.0,0.0,0.0,0.0,0.0,0.0,0.0,0.0,0.0,0.0,0.0,0.0,0.0,0.0,0.0,0.0,0.0,0.0,0.0,0.0,0.0,0.0,0.0,0.0,0.0,0.0,0.0,0.0,0.0,0.0,0.0,0.0,0.0,0.0,0.0,0.0,0.0,0.0,0.0,0.0,0.0,0.0,0.0,0.0,0.0,0.0,0.0,0.0,0.0,0.0,0.0,0.0,0.0,0.0,0.0,0.0,0.0,0.0,0.0,0.0,0.0,0.0,0.0,0.0,0.0,0.0,0.0,0.0,0.0,0.0,0.0,0.0,0.0,0.0,0.0,0.0,0.0,0.0,0.0,0.0,0.0,0.0,0.0,0.0,0.0,0.0,0.0,0.0,0.0,0.0,0.0,0.0,0.0,0.0,0.0,0.0,0.0,0.0,0.0,0.0,0.0,0.0,0.0,0.0,0.0,0.0,0.0,0.0,0.0,0.0,0.0,0.0,0.0,0.0,0.0,0.0,0.0,0.0,0.0,0.0,0.0,0.0,0.0,0.0,0.0,0.0,0.0,0.0,0.0,0.0,0.0,0.0,0.0,0.0,0.0,0.0,0.0,0.0,0.0,0.0,0.0,0.0,0.0,0.0,0.0,0.0,0.0,0.0,0.0,0.0,0.0,0.0,0.0,0.0,0.0,0.0,0.0,0.0,0.0,0.0,0.0,0.0,0.0,0.0,0.0,0.0,0.0,0.0,0.0,0.0,0.0,0.0,0.0,0.0,0.0,0.0,0.0,0.0,0.0,0.0,0.0,0.0,0.0,0.0,0.0,0.0,0.0,0.0,0.0,0.0,0.0,0.0,0.0,0.0,0.0,0.0,0.0,0.0,0.0,0.0,0.0,0.0,0.0,0.0,0.0,0.0,0.0,0.0,0.0,0.0,0.0,0.0,0.0,0.0,0.0,0.0,0.0,0.0,0.0,0.0,0.0,0.0,0.0,0.0,0.0,0.0,0.0,0.0,0.0,0.0,0.0,0.0,0.0,0.0,0.0,0.0,0.0,0.0,0.0,0.0,0.0,0.0,0.0,0.0,0.0,0.0,0.0,0.0,0.0,0.0,0.0,0.0,0.0,0.0,0.0,0.0,0.0,0.0,0.0,0.0,0.0,0.0,0.0,0.0,0.0,0.0,0.0,0.0,0.0,0.0,0.0,0.0,0.0,0.0,0.0,0.0,0.0,0.0,0.0,0.0,0.0,0.0,0.0,0.0,0.0,0.0,0.0,0.0,0.0,0.0,0.0,0.0,0.0,0.0,0.0,0.0,0.0,0.0,0.0,0.0,0.0,0.0,0.0,0.0,0.0,0.0,0.0,0.0,0.0,0.0,0.0,0.0,0.0,0.0,0.0,0.0,0.0,0.0,0.0,0.0,0.0,0.0,0.0,0.0,0.0,0.0,0.0,0.0,0.0,0.0,0.0,0.0,0.0,0.0,0.0,0.0,0.0,0.0,0.0,0.0,0.0,0.0,0.0,0.0,0.0,0.0,0.0,0.0,0.0,0.0,0.0,0.0,0.0,0.0,0.0,0.0,0.0,0.0,0.0,0.0,0.0,0.0,0.0,0.0,0.0,0.0,0.0,0.0,0.0,0.0,0.0,0.0,0.0,0.0,0.0,0.0,0.0,0.0,0.0,0.0,0.0,0.0,0.0,0.0,0.0,0.0,0.0,0.0,0.0,0.0,0.0,0.0,0.0,0.0,0.0,0.0,0.0,0.0,0.0,0.0,0.0,0.0,0.0,0.0,0.0,0.0,0.0,0.0,0.0,0.0,0.0,0.0,0.0,0.0,0.0,0.0,0.0,0.0,0.0,0.0,0.0,0.0,0.0,0.0,0.0,0.0,0.0,0.0,0.0,0.0,0.0,0.0,0.0,0.0,0.0,0.0,0.0,0.0,0.0,0.0,0.0,0.0,0.0,0.0,0.0,0.0,0.0,0.0,0.0,0.0,0.0,0.0,0.0,0.0,0.0,0.0,0.0,0.0,0.0,0.0,0.0,0.0,0.0,0.0,0.0,0.0,0.0,0.0,0.0,0.0,0.0,0.0,0.0,0.0,0.0,0.0,0.0,0.0,0.0,0.0,0.0,0.0,0.0,0.0,0.0,0.0,0.0,0.0,0.0,0.0,0.0,0.0,0.0,0.0,0.0,0.0,0.0,0.0,0.0,0.0,0.0,0.0,0.0,0.0,0.0,0.0,0.0,0.0,0.0,0.0,0.0,0.0,0.0,2.123,0.0,0.0,0.0,0.0,0.0,0.0,0.0,0.0,0.0,0.0,0.0,0.0,0.0,0.0,0.0,0.0,0.0,0.0,0.0,0.0,0.0,0.0,0.0,0.0,1.0491,1.0764,1.0733,1.1103,1.1164,1.0752,0.0,0.0,0.0,0.0,0.0,1.0826,1.1223,1.2088,1.3377,1.3337,1.4368,1.6381,1.5907,1.5036,1.3907,0.0,0.0,0.0,0.0,0.0,0.0,0.0,0.0,0.0,0.0,0.0,0.0,0.0,0.0,0.0,0.0,0.0,0.0,0.0,0.0,0.0,0.0,0.0,0.0,0.0,0.0,0.0,0.0,0.0,0.0,0.0,0.0,0.0,0.0,0.0,0.0,0.0,0.0,0.0,0.0,0.0,0.0,0.0,0.0,0.0,0.0,0.0,0.0,0.0,0.0,0.0,0.0,0.0,0.0,0.0,0.0,0.0,0.0,0.0,0.0,0.0,0.0,0.0,0.0,0.0,0.0,0.0,0.0,0.0,0.0,0.0,2.342,0.0,0.0,0.0,0.0,0.0,0.0,0.0,0.0,0.0,0.0,0.0,0.0,0.0,0.0,0.0,0.0,0.0,0.0,0.0,0.0,0.0,1.0152,1.0306,1.1019,1.1581,1.181,1.2363,1.2459,1.1891,1.1709,0.0,0.0,0.0,1.1737,1.1737,1.2578,1.3838,1.5536,1.6111,1.7435,1.9443,2.0326,1.9234,1.6503,1.6215,0.0,0.0,0.0,0.0,0.0,0.0,0.0,0.0,0.0,0.0,0.0,0.0,0.0,0.0,0.0,0.0,0.0,0.0,0.0,0.0,0.0,0.0,0.0,0.0,0.0,0.0,0.0,0.0,0.0,0.0,0.0,0.0,0.0,0.0,0.0,0.0,0.0,0.0,0.0,0.0,0.0,0.0,0.0,0.0,0.0,0.0,0.0,0.0,0.0,0.0,0.0,0.0,0.0,0.0,0.0,0.0,0.0,0.0,0.0,0.0,0.0,0.0,0.0,3.1506,3.2372,3.3564,3.3718,3.3923,3.3878,2.9571,2.817,2.8769,2.632,0.0,0.0,0.0,0.0,0.0,0.0,0.0,0.0,0.0,0.0,0.0,0.0,0.0,0.0,0.0,0.0,0.0,0.0,0.0,1.0383,1.1143,1.1348,1.2007,1.344,1.3046,1.2974,1.3628,1.294,0.0,0.0,1.2565,1.2626,1.2626,1.3475,1.4747,1.6422,1.9345,2.0908,2.118,2.2062,2.2235,2.1735,2.0273,1.9143,1.8237,0.0,0.0,0.0,0.0,0.0,0.0,0.0,0.0,0.0,0.0,0.0,0.0,0.0,0.0,0.0,0.0,0.0,0.0,0.0,0.0,0.0,0.0,0.0,0.0,0.0,0.0,0.0,0.0,0.0,0.0,0.0,0.0,0.0,0.0,0.0,0.0,0.0,0.0,0.0,0.0,0.0,2.0004,2.1062,0.0,0.0,0.0,0.0,0.0,0.0,0.0,0.0,0.0,0.0,0.0,0.0,0.0,3.0429,3.1872,3.3641,3.4237,3.3718,3.593,3.6719,3.6219,3.6988,3.7791,3.8479,3.7055,0.0,3.1387,2.9627,0.0,0.0,0.0,0.0,0.0,0.0,0.0,0.0,0.0,0.0,0.0,0.0,0.0,0.0,0.0,0.0,0.0,0.0,0.0,0.0,0.0,1.341,1.4747,1.5926,1.6599,1.6522,1.5478,1.5076,1.427,1.2853,1.3262,1.3759,1.4254,1.5567,1.752,2.0145,2.3007,2.4409,2.4389,2.5255,2.5659,2.562,2.4889,2.3015,2.0326,1.9147,0.0,0.0,0.0,0.0,0.0,0.0,0.0,0.0,0.0,0.0,0.0,0.0,0.0,0.0,0.0,0.0,0.0,0.0,0.0,0.0,0.0,0.0,0.0,0.0,0.0,0.0,0.0,0.0,0.0,0.0,0.0,0.0,0.0,0.0,0.0,0.0,0.0,0.0,0.0,2.0042,2.2562,2.2908,2.337,2.3331,0.0,0.0,0.0,0.0,0.0,0.0,0.0,0.0,0.0,3.1891,3.3256,3.4526,3.5757,3.7469,3.8354,3.8488,3.9604,4.02,4.0315,4.07,4.1085,4.1466,4.1123,3.9683,3.7333,3.4357,3.2656,3.1777,0.0,0.0,0.0,0.0,2.998,3.0059,0.0,0.0,0.0,0.0,0.0,0.0,0.0,0.0,0.0,0.0,0.0,0.0,1.3514,1.5363,1.7093,1.8542,1.9481,1.935,1.7925,1.7068,1.5863,1.4195,1.4543,1.5165,1.6048,1.8336,2.0833,2.3515,2.5812,2.6928,2.6948,2.7601,2.789,2.789,2.789,2.6005,2.2735,2.1709,2.0065,0.0,0.0,0.0,0.0,0.0,0.0,0.0,0.0,0.0,0.0,0.0,0.0,0.0,0.0,0.0,0.0,0.0,0.0,0.0,0.0,0.0,0.0,0.0,0.0,0.0,0.0,0.0,0.0,0.0,0.0,0.0,0.0,0.0,0.0,0.0,0.0,0.0,0.0,2.2725,2.4745,2.4745,2.5851,2.612,0.0,0.0,0.0,0.0,0.0,0.0,3.1628,3.2737,3.4083,3.5757,3.7238,3.843,3.9296,4.0527,4.1489,4.2143,4.2143,4.2585,4.3412,4.3412,4.3528,4.372,4.3566,4.3145,4.2345,3.8692,3.6719,3.5898,3.5059,3.4355,3.3906,3.4512,3.4492,3.4316,0.0,0.0,0.0,0.0,0.0,0.0,0.0,0.0,0.0,0.0,0.0,1.2644,1.5945,1.642,1.7792,2.1023,1.9938,1.9738,0.0,1.8392,1.6947,1.7714,1.6992,1.6976,1.7844,2.1825,2.43,2.5187,2.6967,2.7832,2.7832,2.7871,2.789,2.789,2.789,2.7313,2.6236,2.4601,2.338,2.2295,0.0,0.0,0.0,0.0,0.0,0.0,0.0,0.0,0.0,0.0,0.0,0.0,0.0,0.0,0.0,0.0,0.0,0.0,0.0,0.0,0.0,0.0,0.0,0.0,0.0,0.0,0.0,0.0,0.0,0.0,0.0,0.0,0.0,0.0,0.0,0.0,0.0,0.0,0.0,2.6467,2.8659,0.0,0.0,0.0,0.0,3.0186,3.2468,3.4276,3.5199,3.6796,3.845,4.0123,4.1066,4.197,4.2835,4.2931,4.2989,4.3028,4.3028,4.3451,4.4239,4.4239,4.4682,4.5432,4.4605,4.4374,4.4366,4.1798,4.0234,3.9375,3.8633,3.8301,3.8281,3.832,3.8848,3.9414,0.0,0.0,0.0,0.0,0.0,1.0293,1.0293,1.0273,1.0566,1.1395,1.2424,1.4162,1.7022,1.8762,2.0658,2.2975,2.3101,2.289,2.2497,2.0326,1.9214,1.959,1.8286,1.8936,2.1923,2.3955,2.5627,2.6967,2.8102,2.8659,2.8679,2.9256,2.9813,3.0314,2.9756,2.9352,2.8909,2.6659,2.4928,2.3515,2.1784,1.9934,0.0,0.0,0.0,0.0,0.0,0.0,0.0,0.0,0.0,0.0,0.0,0.0,0.0,0.0,0.0,0.0,0.0,0.0,0.0,0.0,0.0,0.0,0.0,0.0,0.0,0.0,0.0,0.0,0.0,0.0,0.0,0.0,0.0,0.0,0.0,0.0,0.0,2.9813,3.1641,0.0,3.0794,3.2776,3.4237,3.4449,3.6334,3.8084,3.9488,4.0123,4.0989,4.2143,4.297,4.3566,4.3874,4.4432,4.4701,4.4701,4.4701,4.4855,4.5143,4.5143,4.5297,4.5566,4.5259,4.5182,4.5216,4.4413,4.3368,4.2246,4.1973,4.1543,4.1113,4.168,4.1719,4.1543,0.0,0.0,0.0,0.0,1.0269,1.0271,1.0273,1.0527,1.1098,1.2209,1.3819,1.5933,1.8731,2.0768,2.262,2.4351,2.4755,2.4591,2.3832,2.1944,2.1021,2.1409,2.0581,2.1531,2.4544,2.5967,2.7223,2.8294,2.9429,2.9987,3.0006,3.0852,3.1545,3.2083,3.1506,3.1237,3.1141,2.9448,2.7428,2.5284,2.4168,2.2717,2.1078,0.0,0.0,0.0,0.0,0.0,0.0,0.0,0.0,0.0,0.0,0.0,0.0,0.0,0.0,0.0,0.0,0.0,0.0,0.0,0.0,0.0,0.0,0.0,0.0,0.0,0.0,0.0,0.0,0.0,0.0,0.0,0.0,0.0,0.0,0.0,3.2006,3.2891,3.4718,3.5584,3.4718,3.6449,3.7853,3.8392,3.9758,4.1181,4.2566,4.2643,4.3047,4.3912,4.4451,4.4739,4.4739,4.5297,4.5586,4.5586,4.5586,4.5586,4.5586,4.5586,4.5586,4.5586,4.5586,4.5624,4.5661,4.5757,4.5287,4.4518,4.4506,4.418,4.3789,4.4355,4.4219,4.3769,0.0,0.0,0.0,1.0191,1.0191,1.0208,1.0194,1.0937,1.2102,1.3771,1.5542,1.7876,2.115,2.2312,2.3505,2.5149,2.4639,2.4591,2.5438,2.3204,2.2263,2.3179,2.3957,2.4732,2.5501,2.7961,2.9233,2.9179,3.0891,3.1737,3.1756,3.2545,3.291,3.2949,3.291,3.291,3.2949,3.291,3.1025,2.789,2.6159,2.5475,2.5205,0.0,0.0,0.0,0.0,0.0,0.0,0.0,0.0,0.0,0.0,0.0,0.0,0.0,0.0,0.0,0.0,0.0,0.0,0.0,0.0,0.0,0.0,0.0,0.0,0.0,0.0,0.0,0.0,0.0,0.0,0.0,0.0,0.0,3.0583,3.2756,3.468,3.5603,3.7892,3.9084,3.8238,4.0412,4.1893,4.1893,4.2701,4.3528,4.4297,4.4335,4.472,4.5566,4.5586,4.5586,4.5586,4.5586,4.5586,4.5586,4.5586,4.5586,4.5586,4.5586,4.5586,4.5586,4.5586,4.568,4.5796,4.5796,4.5911,4.6092,4.6104,4.6172,4.6308,4.6308,4.6308,4.6172,0.0,0.0,1.0196,1.0196,1.0196,1.0203,1.0208,1.0942,1.2104,1.3772,1.6073,1.8578,2.127,2.2962,2.4321,2.5351,2.5255,2.5241,2.548,2.3774,2.3112,2.3965,2.5305,2.6691,2.8115,2.9406,3.0379,3.0987,3.2045,3.2564,3.2564,3.2795,3.3237,3.3814,3.3179,3.3256,3.3795,3.316,3.2372,3.1371,2.9679,2.8283,2.7072,0.0,0.0,0.0,0.0,0.0,0.0,0.0,0.0,0.0,0.0,0.0,0.0,0.0,0.0,0.0,0.0,0.0,0.0,0.0,0.0,0.0,0.0,0.0,0.0,0.0,0.0,0.0,0.0,0.0,0.0,0.0,0.0,3.4318,3.4135,3.6329,3.8484,3.9912,4.1239,4.195,4.172,4.2854,4.3605,4.3605,4.4412,4.5009,4.522,4.524,4.5336,4.5586,4.5586,4.5586,4.5586,4.5586,4.5586,4.5586,4.5586,4.5586,4.5586,4.5586,4.5586,4.5586,4.5586,4.5605,4.5643,4.5643,4.5738,4.5899,4.6045,4.6172,4.6308,4.6308,4.6308,4.6269,0.0,1.0156,1.0156,1.0156,1.0156,1.0175,1.0194,1.1236,1.2595,1.4286,1.6774,1.9368,2.1864,2.3405,2.4452,2.4904,2.5311,2.5234,2.4534,2.3954,2.4164,2.5346,2.6634,2.8088,2.9713,3.0571,3.1379,3.2199,3.3045,3.343,3.3449,3.3814,3.4257,3.4718,3.4218,3.4276,3.4718,3.4199,3.3987,3.3872,3.2526,3.0987,2.9371,2.8195,2.6824,2.544,2.4784,2.4234,2.3596,2.2064,0.0,0.0,0.0,0.0,0.0,0.0,0.0,0.0,0.0,0.0,0.0,0.0,0.0,0.0,0.0,0.0,0.0,0.0,0.0,0.0,0.0,0.0,0.0,0.0,3.5152,3.7793,3.8681,3.9785,4.1081,4.2662,4.3297,4.3739,4.4105,4.4566,4.4836,4.4836,4.5297,4.5586,4.5586,4.5586,4.5586,4.5586,4.5586,4.5586,4.5586,4.5586,4.5586,4.5586,4.5586,4.5586,4.5586,4.5586,4.5586,4.5586,4.5586,4.5586,4.5586,4.5643,4.5757,0.0,0.0,0.0,0.0,0.0,4.6308,4.6308,0.0,1.0078,1.0078,1.0086,1.0086,1.0109,1.0175,1.1535,1.317,1.4848,1.7346,1.9904,2.2345,2.3488,2.4121,2.4209,2.4974,2.4876,0.0,2.4193,2.5381,2.6992,2.7874,2.9055,3.0609,3.1518,3.2321,3.3083,3.3949,3.4372,3.4391,3.5161,3.5526,3.5526,3.5493,3.5493,3.5493,3.5493,3.5493,3.543,3.4661,3.3391,3.1814,3.0217,2.9494,2.9164,2.7723,2.7198,2.6814,2.4408,0.0,0.0,0.0,0.0,0.0,0.0,0.0,0.0,0.0,0.0,0.0,0.0,0.0,0.0,0.0,0.0,0.0,0.0,0.0,0.0,0.0,0.0,0.0,0.0,3.8465,4.1022,4.3233,4.293,4.2951,4.4316,4.4451,4.4739,4.5509,4.5586,4.5586,4.5586,4.5586,4.5586,4.5586,0.0,0.0,0.0,0.0,4.5586,4.5586,4.5701,4.574,4.574,4.574,4.574,4.574,4.5624,4.5586,4.5586,4.5586,4.5605,4.5624,4.5757,4.5853,4.5924,4.5929,4.6026,4.6133,4.6269,4.6308,4.6308,0.0,0.9938,0.996,1.0001,1.0011,1.0048,1.0109,1.1042,1.2332,1.4003,1.6517,1.8823,2.0677,2.2337,2.3602,2.4293,2.4521,2.479,0.0,0.0,2.6874,2.7897,2.8729,2.9933,3.1591,3.248,3.3346,3.4199,3.5001,3.5411,3.5411,3.5526,3.5584,3.5584,3.5526,3.5493,3.5493,3.5493,3.5493,3.5488,3.5334,3.4622,3.3603,3.2583,3.1391,3.0206,2.9898,2.9402,2.8741,2.7594,2.72,2.6915,2.5236,0.0,0.0,0.0,0.0,0.0,0.0,0.0,0.0,0.0,0.0,0.0,0.0,0.0,0.0,0.0,0.0,0.0,0.0,0.0,0.0,3.786,4.0828,4.3324,4.4389,4.4976,4.5353,4.5488,4.5393,4.5413,4.5566,4.5586,4.5586,4.5586,4.5586,4.5586,4.5586,4.5586,4.5586,4.5586,4.5586,4.5586,4.5586,4.6297,4.6644,4.6644,0.0,0.0,4.6624,4.5913,4.5586,4.5586,4.5586,4.5643,4.5757,4.5796,4.5911,4.6073,4.6176,4.6247,4.6269,4.6289,4.6308,4.6308,0.9805,0.9857,0.9904,0.9949,0.9972,1.0006,1.0033,1.0844,1.2051,1.3722,1.5475,1.7361,1.9516,2.0552,2.1286,2.175,2.2206,0.0,0.0,2.582,2.6875,2.8184,2.9054,3.0465,3.255,3.302,3.3852,3.5088,3.5505,3.5707,3.5707,3.5669,3.5651,3.5661,3.5622,3.5603,3.5603,3.5603,3.5603,3.5603,3.5603,3.5334,3.4853,3.3949,3.2872,3.18,3.1371,3.0985,3.0513,2.927,2.8874,2.8671,2.7396,2.6094,2.4879,0.0,0.0,0.0,0.0,0.0,0.0,0.0,0.0,0.0,0.0,0.0,0.0,0.0,0.0,3.3594,0.0,0.0,3.9668,4.0957,4.2942,4.4621,4.5437,4.5859,4.6033,4.5828,4.5738,4.568,4.5605,4.5586,4.5586,4.5586,4.5586,4.5586,4.5586,4.6009,4.624,4.624,4.6644,4.6855,4.6855,4.7278,4.7509,4.7509,4.7585,4.7604,4.7585,4.7218,4.7062,4.7062,4.7062,4.7101,4.712,4.6737,4.6698,4.6808,4.6441,4.6309,4.6308,4.6308,4.6308,4.6308,0.9713,0.9777,0.9875,0.9869,0.9933,0.9967,0.9992,1.0632,1.1741,1.3435,1.4401,1.5853,1.8334,1.8717,1.8981,1.9396,0.0,0.0,0.0,2.5527,2.6836,2.8242,2.9453,3.1113,3.3262,3.3496,3.4287,3.5752,3.5752,3.5752,3.5752,3.5733,3.5733,3.5731,3.5712,3.5707,3.5707,3.5707,3.5707,3.5707,3.5707,3.5727,3.5661,3.4891,3.4026,3.3128,3.2413,3.1906,3.1362,3.0173,2.9708,2.9473,2.8769,2.8066,2.729,2.6156,2.5243,0.0,0.0,0.0,0.0,0.0,0.0,0.0,0.0,0.0,3.1339,3.2419,3.5098,3.7461,3.8164,4.0293,4.2383,4.373,4.4687,4.5508,4.6191,4.6211,4.6066,4.5887,4.5819,4.5757,4.5643,4.5605,4.5586,4.5586,4.5605,4.5701,4.5836,4.6528,4.7009,4.7163,4.7798,4.8144,4.8182,4.8336,4.8432,4.8432,4.8547,4.8582,4.8591,4.8527,4.8504,4.8504,4.8519,4.8542,4.8502,4.7932,4.7757,4.7777,4.6878,4.6547,4.6523,4.6367,4.6308,4.6308,0.0,0.9713,0.9739,0.9798,0.9818,0.9857,0.9977,1.0097,1.0809,1.2601,1.3487,1.4671,1.6576,1.7379,1.8447,2.0127,0.0,0.0,2.4335,2.668,2.8105,2.8281,3.0625,3.2363,3.3379,3.4141,3.5019,3.5975,3.5975,3.5975,3.5975,3.5917,3.5876,3.587,3.5741,3.5694,3.5694,3.5694,3.5694,3.5694,3.5694,3.5756,3.5872,3.5757,3.471,3.3267,3.3173,3.1728,2.9955,3.0541,3.0233,2.957,2.9492,2.9381,2.8953,2.7181,0.0,2.5492,2.6053,2.6927,0.0,2.8902,2.9804,3.1445,0.0,0.0,3.6893,3.8555,4.0371,4.1719,4.1816,4.332,4.4648,4.4824,4.5586,4.6191,4.6289,4.6289,4.623,4.6087,4.5906,4.5796,4.5776,4.568,4.5586,4.5586,4.5719,4.6047,4.6721,4.6894,4.7336,4.8123,4.8238,4.8316,4.8452,4.922,4.9605,4.9605,4.9625,4.9644,4.9604,4.8847,4.8506,4.8516,4.8628,4.8677,4.8687,4.8724,4.8742,4.8664,4.7784,4.7458,4.7363,4.6582,4.6308,4.6308,0.0,0.9525,0.9583,0.9631,0.9728,0.9818,0.9875,0.9922,1.0402,1.1656,1.2503,1.3454,1.4685,1.5548,1.6772,1.8609,2.0427,0.0,2.3488,2.654,2.8301,2.8301,3.0312,3.2051,3.3379,3.3769,3.4629,3.5996,3.5996,3.5996,3.5996,3.5976,3.5957,3.5957,3.5906,3.5874,3.5874,3.5874,3.5874,3.5871,3.5864,3.5902,3.5892,3.5378,3.4137,3.2644,3.2611,3.1602,0.0,0.0,2.9082,2.8787,2.8831,2.8469,2.7861,2.709,2.6923,0.0,2.924,0.0,0.0,0.0,3.3984,3.5859,3.7656,3.8848,3.9902,4.1113,4.2715,4.3906,4.3906,4.4922,4.5762,0.0,4.6055,4.6308,4.6308,4.6308,4.6289,4.6211,4.6069,4.5949,4.5866,4.5815,4.5776,4.5776,4.6313,4.6741,4.7056,4.805,4.8796,4.9162,4.9683,4.9957,5.0015,5.0364,5.0558,5.0558,5.06,5.0603,5.0608,5.0322,5.0188,5.0184,5.0251,5.0283,5.0231,4.9834,4.9668,4.957,4.8691,4.8359,4.8183,4.6816,4.6308,4.6308,0.0,0.943,0.9517,0.9542,0.9646,0.9735,0.9784,0.9844,1.0276,1.1389,1.2015,1.2734,1.3785,1.4499,1.5609,1.7356,1.9204,2.1023,2.2836,2.6065,2.8027,2.8281,2.9961,3.1582,3.3047,3.3516,3.4375,3.5644,3.5879,3.5996,3.5996,3.5996,3.5996,3.5996,3.5996,3.5996,3.5996,3.5996,3.5996,3.5996,3.5997,3.5859,3.5543,3.4662,3.3288,3.1819,3.1759,3.0869,0.0,0.0,2.801,2.7854,2.8138,2.7782,2.7273,2.746,2.8283,2.9486,3.1175,0.0,0.0,3.5174,3.7383,3.9375,3.9609,4.0996,4.2402,4.3008,4.4121,4.5,4.5,4.5527,0.0,4.5937,4.6133,4.6308,4.6308,4.6308,4.6308,4.6308,4.6211,4.6128,4.6007,4.5935,4.5896,4.5896,4.6728,4.7337,4.7553,4.9023,4.9954,5.0182,5.0811,5.115,5.1186,5.1186,5.1186,5.1186,5.1241,5.1261,5.1256,5.1367,5.1406,5.1406,5.1406,5.1406,5.1348,5.0762,5.0527,5.0449,4.959,4.9258,4.9082,4.7578,4.6855,4.6621,0.0,0.0,0.9542,0.9675,0.9601,0.9583,0.9771,0.9798,1.0417,1.2142,1.2269,1.2826,1.4483,1.4822,1.5545,1.7159,1.9084,2.0946,2.2695,2.5401,2.7344,2.8262,2.9961,3.1328,3.2226,3.3828,3.4687,3.4746,3.5586,3.5996,3.5996,3.5996,3.5996,3.5996,3.5996,3.5996,3.5996,3.5996,3.5996,3.5996,3.5996,3.5488,3.4648,3.3769,3.2358,3.084,3.083,0.0,0.0,0.0,2.7547,2.6987,2.7839,2.8092,0.0,2.8927,3.0352,0.0,0.0,0.0,3.6041,3.6997,3.9199,4.1328,4.2109,4.3633,4.4883,4.4922,4.4961,4.5,4.5,4.5019,4.5039,4.5039,4.5742,4.6308,4.6308,4.6308,4.6308,4.6308,4.6308,4.6289,0.0,4.6059,4.5909,4.5909,4.6825,4.7719,4.8418,4.9446,5.0348,5.1145,5.1183,5.1257,5.1386,5.1386,5.1386,5.1386,5.1386,5.1386,5.1386,5.1406,5.1406,5.1406,5.1406,5.1406,5.1406,5.1367,5.1367,5.1289,5.0488,5.0156,5.0058,4.9141,4.8281,4.7441,0.0,0.0,0.0,0.9412,0.9394,0.9394,0.9455,0.9549,0.9956,1.0939,1.204,0.0,0.0,0.0,0.0,0.0,0.0,0.0,2.0976,2.411,2.6094,2.6484,2.8789,3.0449,3.1328,3.2461,3.3301,3.3848,3.4121,3.4277,3.4297,3.4863,3.5137,3.5156,3.5742,3.5996,3.5996,3.5996,3.5996,3.5957,3.5371,3.4961,3.453,3.3037,3.1407,2.9854,0.0,0.0,0.0,0.0,2.612,2.5928,2.6257,0.0,0.0,2.8576,0.0,3.157,0.0,0.0,3.8849,4.032,4.2207,4.3789,4.4062,4.457,4.5,4.5,4.4082,4.3457,4.4023,4.3652,4.3652,4.4805,4.5254,4.5644,4.6211,4.6308,4.6308,4.6308,4.6308,0.0,0.0,0.0,0.0,4.6173,4.7548,4.8499,4.875,5.0135,5.1047,5.1323,5.1336,5.1347,5.1406,5.1406,5.1406,5.1406,5.1406,5.1406,5.1406,5.1406,5.1406,5.1406,5.1406,5.1406,5.1406,5.1406,5.1406,5.1367,5.1094,5.0996,5.0898,5.0078,4.957,4.9121,0.0,0.0,0.0,0.0,0.0,0.0,0.0,0.0,0.0,0.0,0.0,0.0,0.0,0.0,0.0,0.0,0.0,0.0,0.0,0.0,2.4335,2.534,2.6763,2.824,2.9755,3.0361,3.1108,3.2012,3.2324,3.2637,3.2988,3.3535,3.3965,3.4258,3.4824,3.5078,3.5078,3.5078,3.5078,3.498,3.412,3.3574,3.3115,3.1301,2.9719,0.0,0.0,0.0,0.0,2.5543,0.0,0.0,0.0,0.0,0.0,2.9586,3.1403,3.3641,0.0,3.9124,4.0792,4.2828,4.418,4.5,4.5,4.5,4.4824,4.4199,4.2695,4.168,4.2246,4.1621,4.1719,4.373,4.4336,4.4941,4.6133,4.6308,4.6308,4.6308,4.6308,0.0,0.0,0.0,0.0,4.6308,4.791,4.8906,4.8906,5.0488,5.1406,5.1406,5.1406,5.1406,5.1406,5.1406,5.1406,5.1406,5.1406,5.1406,5.1406,5.1406,5.1406,5.1406,5.1406,5.1406,5.1406,5.1406,5.1406,5.1406,5.1406,5.1406,5.1348,5.082,5.0449,4.9941,0.0,0.0,0.0,0.0,0.0,0.0,0.0,0.0,0.0,0.0,0.0,0.0,0.0,0.0,0.0,0.0,0.0,0.0,0.0,0.0,0.0,2.4687,2.4195,2.505,2.7599,2.7804,2.8388,2.9413,3.0234,3.1113,3.1992,3.2031,3.2461,3.3203,3.3242,3.3261,3.3261,3.3261,3.3261,3.3182,3.2317,3.1468,3.053,2.8761,0.0,0.0,0.0,0.0,0.0,0.0,0.0,0.0,0.0,0.0,0.0,0.0,0.0,3.7481,3.941,4.0649,4.1992,4.4453,4.5039,4.5,4.5,4.4902,4.4316,4.2617,4.0879,3.9629,0.0,0.0,3.9297,4.1855,4.3086,4.4316,4.6055,4.6308,4.6308,0.0,0.0,0.0,0.0,0.0,0.0,4.6367,0.0,4.8926,4.8965,5.0508,5.1406,5.1406,5.1406,5.1406,5.1406,5.1406,5.1406,5.1406,5.1406,5.1406,5.1406,5.1406,5.1406,5.1406,5.1406,5.1406,5.1406,5.1406,5.1406,5.1406,5.1406,5.1406,5.1406,5.1406,5.0918,5.0019,0.0,0.0,0.0,0.0,0.0,0.0,0.0,0.0,0.0,0.0,0.0,0.0,0.0,0.0,0.0,0.0,0.0,0.0,0.0,0.0,0.0,0.0,0.0,2.5023,2.5703,2.6963,2.7815,2.824,2.8471,2.8762,2.9152,2.9819,3.0228,3.0443,3.111,3.1383,3.1383,3.1383,3.1383,3.1301,0.0,2.9955,2.9622,0.0,0.0,0.0,0.0,0.0,0.0,0.0,0.0,0.0,0.0,0.0,3.2293,0.0,0.0,3.8634,4.1025,4.2824,4.4336,4.5644,4.5488,4.5,4.5,4.3535,4.1855,4.0762,3.8125,3.6035,0.0,0.0,0.0,4.0117,4.2324,0.0,4.6055,4.6308,0.0,0.0,0.0,4.6308,4.6308,4.6308,0.0,0.0,4.8281,4.918,4.9824,5.084,5.1406,5.1406,5.1406,5.1406,5.1406,5.1406,5.1406,5.1406,5.1406,5.1406,5.1406,5.1406,5.1406,5.1406,5.1406,5.1406,5.1406,5.1406,5.1406,5.1406,5.1406,5.1406,5.1406,5.1406,5.1269,5.0937,0.0,0.0,0.0,0.0,0.0,0.0,0.0,0.0,0.0,0.0,0.0,0.0,0.0,0.0,0.0,0.0,0.0,0.0,0.0,0.0,0.0,0.0,2.1734,2.2879,2.3673,2.4606,2.5205,0.0,0.0,0.0,2.6314,2.6806,2.7466,2.8274,2.8766,2.92,2.955,2.955,0.0,0.0,0.0,0.0,0.0,0.0,0.0,0.0,0.0,0.0,0.0,0.0,0.0,3.0559,3.1468,3.3079,3.5005,3.691,0.0,4.1077,4.2967,4.4504,4.5683,4.6172,4.5644,4.4609,4.3105,4.1367,3.9394,3.7012,3.4668,0.0,0.0,0.0,0.0,0.0,0.0,0.0,4.543,4.6055,4.6308,0.0,4.6641,0.0,4.6875,4.7226,4.7793,0.0,4.8848,4.9277,5.0156,5.0957,5.1406,5.1406,5.1406,5.1406,5.1406,5.1406,5.1406,5.1406,5.1406,5.1406,5.1406,5.1406,5.1406,5.1406,0.0,5.1406,5.1406,5.1406,5.1406,5.1406,5.1406,5.1406,5.1406,5.1406,5.1406,5.1289,0.0,0.0,0.0,0.0,0.0,0.0,0.0,0.0,0.0,0.0,0.0,0.0,0.0,0.0,0.0,0.0,0.0,0.0,0.0,0.0,0.0,0.0,1.9399,2.0188,2.176,0.0,0.0,0.0,0.0,0.0,0.0,0.0,0.0,0.0,0.0,0.0,0.0,0.0,0.0,0.0,0.0,0.0,0.0,0.0,0.0,0.0,0.0,0.0,0.0,0.0,3.0593,3.2316,3.3306,3.5724,3.8444,3.9732,4.1668,4.3662,4.482,4.5703,4.625,4.6152,4.5391,4.3789,4.0465,3.8863,3.691,3.283,0.0,0.0,3.039,0.0,3.3144,3.6562,0.0,4.2129,4.4805,4.582,4.6348,4.6465,4.7148,4.7656,4.7754,4.8457,4.9258,5.0137,4.9492,4.9453,5.0312,5.1016,5.1406,5.1406,5.1406,5.1406,5.1406,5.1406,5.1406,5.1406,5.1406,5.1406,5.1406,5.1406,5.1406,5.1406,5.1406,0.0,5.1406,5.1406,5.1406,5.1406,5.1406,5.1406,5.1406,5.1406,5.1406,5.1308,0.0,0.0,0.0,0.0,0.0,0.0,0.0,0.0,0.0,0.0,1.2687,1.3031,0.0,0.0,0.0,0.0,0.0,0.0,0.0,0.0,0.0,0.0,1.995,2.0443,0.0,0.0,0.0,0.0,0.0,0.0,0.0,0.0,0.0,0.0,0.0,0.0,0.0,0.0,0.0,0.0,0.0,0.0,0.0,0.0,0.0,0.0,0.0,0.0,0.0,0.0,3.1864,3.4149,3.5797,3.7704,3.9777,4.2071,4.3039,4.3766,4.5444,4.6016,4.5996,4.5371,4.4023,4.2124,3.9364,3.6942,0.0,0.0,0.0,2.8382,2.7714,2.9473,0.0,3.5664,0.0,0.0,0.0,0.0,4.6562,0.0,0.0,0.0,0.0,0.0,0.0,0.0,0.0,5.0332,5.1152,5.1328,5.1406,5.1406,5.1406,5.1406,5.1406,5.1406,5.1406,5.1406,5.1406,5.1406,5.1406,5.1406,5.1406,5.1406,5.1406,0.0,5.1406,5.1406,5.1406,5.1406,5.1406,5.1406,5.1406,5.1406,5.1406,5.1387,0.0,0.0,0.0,0.0,0.0,0.0,0.0,1.0527,1.133,1.3155,1.3526,1.353,1.3339,1.3135,1.3049,0.0,0.0,0.0,0.0,0.0,0.0,0.0,0.0,0.0,0.0,0.0,0.0,0.0,0.0,0.0,0.0,0.0,0.0,0.0,0.0,0.0,0.0,0.0,0.0,0.0,0.0,0.0,0.0,0.0,0.0,0.0,0.0,0.0,0.0,0.0,3.0844,3.3415,3.6089,3.8381,4.0396,4.2165,4.3293,4.4266,4.5638,4.6045,4.5918,4.5098,4.3633,4.1359,3.7381,0.0,0.0,0.0,0.0,2.663,2.6232,0.0,0.0,0.0,0.0,0.0,0.0,0.0,0.0,0.0,0.0,0.0,0.0,0.0,0.0,0.0,0.0,5.0996,5.1387,5.1406,5.1406,5.1406,5.1406,5.1406,5.1406,5.1406,5.1406,5.1406,5.1406,5.1406,5.1406,5.1406,5.1406,5.1406,5.1406,0.0,5.1406,5.1406,5.1406,5.1406,5.1406,5.1406,5.1406,5.1406,5.1406,5.1406,0.0,0.0,0.0,0.0,0.0,0.0,0.0,1.11,1.1882,1.405,1.4203,1.3991,1.3675,1.3267,1.3032,0.0,0.0,0.0,0.0,0.0,0.0,0.0,0.0,0.0,0.0,0.0,0.0,0.0,0.0,0.0,0.0,0.0,0.0,0.0,0.0,0.0,0.0,0.0,0.0,0.0,0.0,0.0,0.0,0.0,0.0,0.0,0.0,0.0,0.0,0.0,2.914,3.1302,3.4391,3.7367,3.9912,4.1085,4.2607,4.4165,4.5297,4.5811,4.5799,4.4784,4.3301,4.0736,3.548,3.3006,0.0,0.0,0.0,2.5466,2.5486,0.0,0.0,0.0,0.0,0.0,0.0,0.0,0.0,0.0,0.0,0.0,0.0,0.0,0.0,0.0,0.0,0.0,5.1406,5.1406,5.1406,5.1406,5.1406,5.1406,5.1406,5.1406,5.1406,5.1406,5.1406,5.1406,5.1406,5.1406,5.1406,5.1406,5.1406,0.0,0.0,5.1406,5.1406,5.1406,5.1406,5.1406,5.1406,5.1406,5.1406,5.1406,0.0,0.0,0.0,0.0,0.0,0.0,0.0,1.0837,1.1766,1.4401,1.4195,1.383,1.3795,1.3421,1.3146,0.0,0.0,0.0,0.0,0.0,0.0,0.0,0.0,0.0,0.0,0.0,0.0,0.0,0.0,0.0,0.0,0.0,0.0,0.0,0.0,0.0,0.0,0.0,0.0,0.0,0.0,0.0,0.0,0.0,0.0,0.0,0.0,0.0,0.0,0.0,0.0,2.8029,2.988,3.3486,3.7392,3.9065,0.0,0.0,4.4165,4.5214,4.5492,4.4064,4.2402,3.9763,3.453,0.0,0.0,0.0,2.5322,2.5341,2.5409,2.6198,0.0,0.0,0.0,0.0,0.0,0.0,0.0,0.0,0.0,0.0,0.0,0.0,0.0,0.0,0.0,0.0,5.1406,5.1406,5.1406,5.1406,5.1406,5.1406,5.1406,5.1406,5.1406,5.1406,5.1406,5.1406,5.1406,5.1406,5.1406,5.1406,5.1406,0.0,0.0,5.1406,5.1406,5.1406,5.1406,5.1406,5.1406,5.1406,5.1406,5.1406,0.0,0.0,0.0,0.0,0.0,0.0,1.0499,1.0798,1.1753,1.4438,1.4558,1.4393,1.4393,1.3895,1.3283,1.2566,0.0,0.0,0.0,0.0,0.0,0.0,0.0,0.0,0.0,0.0,0.0,0.0,0.0,0.0,0.0,0.0,0.0,0.0,0.0,0.0,0.0,0.0,0.0,0.0,0.0,0.0,0.0,0.0,0.0,0.0,0.0,0.0,0.0,0.0,0.0,0.0,2.7289,2.9494,0.0,0.0,3.8485,4.0796,4.303,4.3951,4.4091,4.3505,4.1351,3.8259,3.3945,0.0,0.0,2.5757,2.5214,2.5303,2.5322,2.562,2.666,2.9156,3.0167,3.2266,0.0,0.0,0.0,0.0,0.0,0.0,0.0,0.0,0.0,0.0,0.0,0.0,5.1406,5.1406,5.1406,5.1406,5.1406,5.1406,5.1406,5.1406,5.1406,5.1406,5.1406,5.1406,5.1406,5.1406,5.1406,5.1406,5.1406,0.0,0.0,5.1406,5.1406,5.1406,5.1406,5.1406,5.1406,5.1406,5.1406,5.1406,0.0,0.0,0.0,0.0,0.0,0.8499,1.0245,1.0678,1.1604,1.3899,1.4378,1.4498,1.4498,1.3914,1.3193,1.2427,1.2696,0.0,0.0,0.0,0.0,0.0,0.0,0.0,0.0,0.0,0.0,0.0,0.0,0.0,0.0,0.0,0.0,0.0,0.0,0.0,0.0,0.0,0.0,0.0,0.0,0.0,0.0,0.0,0.0,0.0,0.0,0.0,0.0,0.0,0.0,0.0,0.0,0.0,0.0,0.0,3.5971,3.8654,4.1261,4.2374,4.2722,4.2527,4.0288,3.7151,0.0,0.0,2.83,2.5557,2.5111,2.5224,2.5303,2.5303,2.5793,2.7343,2.8044,2.9901,3.4221,0.0,0.0,0.0,0.0,0.0,0.0,0.0,0.0,0.0,0.0,0.0,5.131,5.131,5.134,5.1406,5.1406,5.1406,5.1406,5.1406,5.1406,5.1406,5.1406,5.1406,5.1406,5.1406,5.1406,5.1406,5.1406,0.0,0.0,5.1406,5.1406,5.1406,5.1406,5.1406,5.1406,5.1406,5.1406,5.1406,0.0,0.0,0.0,0.0,0.0,0.0,0.9695,1.0428,1.1296,1.2651,1.3391,1.3825,1.3825,1.3196,1.2816,1.2786,1.2687,0.0,0.0,0.0,0.0,0.0,0.0,0.0,0.0,0.0,1.9693,2.0484,2.0484,0.0,0.0,0.0,0.0,0.0,0.0,0.0,0.0,0.0,0.0,0.0,0.0,0.0,0.0,0.0,0.0,0.0,0.0,0.0,0.0,0.0,0.0,0.0,0.0,0.0,0.0,0.0,3.3257,3.5844,3.8593,4.0546,4.1643,4.0908,3.925,3.6689,0.0,3.0007,2.7919,2.5495,2.501,2.5057,2.5264,2.5303,2.5591,2.6467,2.8132,3.076,3.5002,0.0,0.0,0.0,0.0,0.0,0.0,0.0,0.0,0.0,0.0,0.0,5.1094,5.1094,5.1193,5.1386,5.1406,5.1406,5.1406,5.1406,5.1406,5.1406,5.1406,5.1406,5.1406,5.1406,5.1406,0.0,0.0,0.0,0.0,5.1406,5.1406,5.1406,5.1406,5.1406,5.1406,5.1406,5.1406,5.1406,0.0,0.0,0.0,0.0,0.0,0.0,0.0,0.9383,1.0133,1.188,1.2299,1.2777,1.3705,1.3196,1.2801,1.2801,1.2513,0.0,0.0,0.0,0.0,0.0,0.0,0.0,0.0,0.0,1.9309,2.0299,2.0299,2.0677,0.0,0.0,0.0,0.0,0.0,0.0,0.0,0.0,0.0,0.0,0.0,0.0,0.0,0.0,0.0,0.0,0.0,0.0,0.0,0.0,0.0,0.0,0.0,0.0,0.0,0.0,0.0,0.0,3.4173,3.5372,3.6153,3.5904,3.4084,3.1798,2.9767,2.8016,2.64,2.4964,2.4785,2.4904,2.5065,2.5099,2.5995,2.8752,2.9679,0.0,0.0,0.0,0.0,0.0,0.0,0.0,0.0,0.0,0.0,0.0,0.0,0.0,5.109,5.109,5.1133,5.1193,5.1193,5.1193,5.1193,5.1193,5.1193,5.1193,5.1193,5.1193,5.1193,5.1193,5.1193,0.0,0.0,0.0,0.0,5.1367,5.1406,5.1406,5.1406,5.1406,5.1406,5.1406,5.1406,5.1384,0.0,0.0,0.0,0.0,0.0,0.0,0.0,0.8597,0.9223,1.0533,1.0922,1.158,1.2912,1.2448,1.2239,1.2756,1.2334,0.0,0.0,0.0,0.0,0.0,0.0,0.0,1.7471,1.795,1.8929,2.0456,2.0456,2.0946,2.1858,2.1197,2.0562,0.0,0.0,0.0,0.0,0.0,0.0,0.0,0.0,0.0,0.0,0.0,0.0,0.0,0.0,0.0,0.0,0.0,0.0,0.0,0.0,0.0,0.0,0.0,2.6729,0.0,0.0,3.2008,3.2653,3.2651,3.1161,2.9359,2.8108,2.6745,2.5531,2.4679,2.4591,2.4746,2.4904,2.4911,2.5653,2.7924,2.9136,0.0,0.0,0.0,0.0,0.0,0.0,0.0,0.0,0.0,0.0,0.0,0.0,0.0,5.0952,5.0952,5.0947,5.0945,5.1056,5.1095,5.1095,5.1095,5.1095,5.1095,5.1095,5.1095,5.1095,5.1095,5.1095,0.0,0.0,0.0,0.0,5.1242,5.1281,5.1281,5.1281,5.1281,5.1281,5.1281,5.1281,5.1279,0.0,0.0,0.0,0.0,0.0,0.0,0.0,0.8048,0.852,0.8841,0.9426,1.0275,1.1536,1.1161,1.1311,1.2561,0.0,0.0,0.0,0.0,0.0,0.0,0.0,0.0,1.733,1.7436,1.8569,2.0866,2.0866,2.1291,2.2081,2.2006,2.1172,1.9765,0.0,0.0,0.0,0.0,0.0,0.0,0.0,0.0,0.0,0.0,0.0,0.0,0.0,0.0,0.0,0.0,0.0,0.0,0.0,0.0,0.0,0.0,0.0,0.0,0.0,0.0,0.0,0.0,0.0,2.8708,2.7157,2.6042,0.0,2.4594,2.4478,2.4582,2.4896,2.4907,2.4964,2.5295,0.0,0.0,0.0,0.0,0.0,0.0,0.0,0.0,0.0,0.0,0.0,0.0,0.0,0.0,5.0702,5.0702,5.0702,5.0702,5.0952,5.1068,5.1068,5.1068,5.1068,5.1068,5.1068,5.1068,5.1068,5.1068,5.1068,0.0,0.0,0.0,0.0,5.1102,5.1102,5.1102,5.1102,5.1102,5.1102,5.1102,5.1102,5.1102,0.0,0.0,0.0,0.0,0.0,0.0,0.0,0.0,0.0,0.0,0.8772,0.9219,1.023,1.0623,1.0932,0.0,0.0,0.0,0.0,0.0,0.0,0.0,0.0,0.0,1.603,1.6595,1.8107,2.0598,2.0598,2.1394,2.2882,2.2065,2.1202,2.0296,1.9459,1.8676,0.0,0.0,0.0,0.0,0.0,0.0,0.0,0.0,0.0,0.0,0.0,0.0,0.0,0.0,0.0,0.0,0.0,0.0,0.0,0.0,2.2598,2.3039,2.44,0.0,2.6599,2.5987,2.5615,2.5336,0.0,2.4652,2.4429,0.0,0.0,0.0,0.0,0.0,0.0,0.0,0.0,0.0,0.0,0.0,0.0,0.0,0.0,0.0,0.0,0.0,0.0,0.0,0.0,5.0702,5.0702,5.0702,5.0702,5.0702,5.076,5.0779,5.0779,5.0779,5.0779,5.0779,5.0779,5.0779,5.0779,5.0779,5.0779,0.0,0.0,0.0,5.0962,5.1059,5.1097,5.1097,5.1097,5.1097,5.1097,5.1097,5.1097,5.1097,0.0,0.0,0.0,0.0,0.0,0.0,0.0,0.0,0.0,0.0,0.0,0.8422,0.9351,1.0009,0.0,0.0,0.0,0.0,0.0,0.0,0.0,0.0,0.0,1.4496,1.5578,1.5984,1.7526,2.0264,2.0264,2.1135,2.2755,2.2177,2.1327,2.023,1.8971,1.8097,0.0,0.0,0.0,0.0,0.0,0.0,0.0,0.0,0.0,0.0,0.0,1.8334,0.0,1.9563,2.0509,2.137,0.0,0.0,0.0,0.0,2.1369,2.1567,2.244,2.3764,2.4842,2.4572,2.4502,2.4522,2.4721,0.0,0.0,0.0,0.0,0.0,0.0,0.0,0.0,0.0,0.0,0.0,0.0,0.0,0.0,0.0,0.0,0.0,0.0,0.0,0.0,0.0,0.0,5.0702,5.0702,5.0702,5.0702,5.0702,5.0702,5.0702,5.0702,5.0702,5.0702,5.0702,5.0702,5.0702,5.0702,5.0702,5.0702,0.0,0.0,0.0,5.0818,5.0895,5.0933,5.0933,5.0933,5.0933,5.0933,5.0933,5.0933,5.0914,0.0,0.0,0.0,0.0,0.0,0.0,0.0,0.0,0.0,0.0,0.0,0.0,0.0,0.0,0.0,0.0,0.0,0.0,0.0,0.0,0.0,0.0,1.3226,1.4141,1.5731,1.5663,1.705,2.0002,2.0002,2.0728,2.2141,2.226,2.1498,1.9934,1.8518,1.7673,0.0,0.0,0.0,0.0,0.0,0.0,0.0,0.0,0.0,0.0,0.0,0.0,0.0,1.8884,1.9944,2.0974,2.0685,0.0,0.0,0.0,0.0,0.0,2.1785,2.3197,2.438,2.4598,2.468,2.4779,2.5017,0.0,0.0,0.0,0.0,0.0,0.0,0.0,0.0,0.0,0.0,0.0,0.0,0.0,0.0,0.0,0.0,0.0,0.0,0.0,0.0,0.0,0.0,5.0643,5.0702,5.0702,5.0702,5.0702,5.0702,5.0663,5.0604,5.0663,5.0702,5.0702,5.0702,5.0702,5.0702,5.0702,5.0702,5.0702,0.0,0.0,5.0702,5.0702,5.0702,5.0702,5.0702,5.0663,5.0604,5.0604,5.0565,5.0523,0.0,0.0,0.0,0.0,0.0,0.0,0.0,0.0,0.0,0.0,0.0,0.0,0.0,0.0,0.0,0.0,0.0,0.0,0.0,0.0,0.0,1.2649,1.3139,1.4378,1.6495,1.5917,1.705,2.0002,2.0002,2.0483,2.1363,2.2006,2.1498,1.9968,1.8801,1.7922,1.7296,0.0,0.0,0.0,0.0,0.0,0.0,0.0,0.0,0.0,0.0,0.0,0.0,1.7268,1.8532,1.9926,1.8385,0.0,0.0,0.0,0.0,0.0,2.1684,2.3346,2.4322,2.3629,2.3927,2.4222,2.3684,0.0,0.0,0.0,0.0,0.0,0.0,0.0,0.0,0.0,0.0,0.0,0.0,0.0,0.0,0.0,0.0,0.0,0.0,0.0,0.0,0.0,0.0,5.0336,5.0683,5.0702,5.0702,5.0702,5.0702,5.0544,5.0202,5.0544,5.0702,5.0702,5.0702,5.0702,5.0702,5.0702,5.0702,5.0702,0.0,5.0702,5.0702,5.0702,5.0702,5.0702,5.0702,5.0483,5.0183,5.0183,4.9974,4.9673,0.0,0.0,0.0,0.0,0.0,0.0,0.0,0.0,0.0,0.0,0.0,0.0,0.0,0.0,0.0,0.0,0.0,0.0,0.0,0.0,1.2629,1.3171,1.3404,1.4314,1.6069,1.6542,1.7731,1.9674,2.0067,2.0567,2.1075,2.0849,2.0475,1.9951,1.8452,1.751,1.7002,1.6686,0.0,0.0,0.0,0.0,0.0,0.0,0.0,0.0,0.0,0.0,0.0,0.0,1.8156,1.9192,1.7997,0.0,0.0,0.0,0.0,0.0,2.0568,2.187,2.2915,2.3702,2.5184,2.633,2.5791,0.0,0.0,0.0,0.0,0.0,0.0,0.0,0.0,0.0,0.0,0.0,0.0,0.0,0.0,0.0,0.0,0.0,0.0,0.0,0.0,0.0,0.0,0.0,4.9382,4.982,5.0043,5.0043,5.0043,4.9949,4.9773,4.9949,5.0043,5.0043,5.0272,5.0272,5.0043,5.0043,5.0043,5.0043,0.0,5.0043,5.0043,5.0043,5.0043,5.0043,5.0043,4.9949,4.9773,4.9773,4.9664,4.9504,0.0,0.0,0.0,0.0,0.0,0.0,0.0,0.0,0.0,0.0,0.0,0.0,0.0,0.0,0.0,0.0,0.0,0.0,0.0,0.0,1.2546,1.333,1.3669,1.4663,1.6339,1.7238,1.8326,1.9663,2.0216,2.0652,2.0975,2.0082,1.9673,1.9686,1.8145,1.7147,1.6659,1.6328,1.6191,0.0,0.0,0.0,0.0,0.0,0.0,0.0,0.0,0.0,0.0,0.0,0.0,0.0,0.0,0.0,0.0,1.7967,1.7765,1.8279,1.9924,2.0894,2.1966,2.3998,0.0,2.7267,2.7683,0.0,0.0,0.0,0.0,0.0,0.0,0.0,0.0,0.0,0.0,0.0,0.0,0.0,0.0,0.0,0.0,0.0,0.0,0.0,0.0,0.0,0.0,0.0,4.8003,4.8607,4.8938,4.8938,4.8938,4.8984,4.9074,4.9163,4.9315,4.9504,4.98,4.98,4.9504,4.9504,4.9504,4.9504,4.9504,4.9504,4.9504,4.9504,4.9504,4.9504,4.9504,4.9445,4.9356,4.9265,4.9202,4.9202,0.0,0.0,0.0,0.0,0.0,0.0,0.0,0.0,0.0,0.0,0.0,0.0,0.0,0.0,0.0,0.0,0.0,0.0,0.0,0.0,1.2241,1.2308,1.3806,1.5893,1.8606,1.7786,1.8359,2.0414,2.0463,2.0652,2.0975,2.06,1.9911,1.8933,1.8205,1.73,1.6313,1.5983,1.5827,1.5827,0.0,0.0,0.0,0.0,0.0,0.0,0.0,0.0,0.0,0.0,0.0,0.0,0.0,0.0,1.8892,1.8754,1.8496,1.8743,2.0887,2.184,2.2598,2.4133,2.4117,0.0,2.7182,2.6741,0.0,0.0,0.0,0.0,0.0,0.0,0.0,0.0,0.0,0.0,0.0,0.0,0.0,0.0,0.0,0.0,0.0,0.0,0.0,0.0,0.0,0.0,4.7154,4.7238,4.7276,4.7276,4.7276,4.7437,4.7826,4.8209,4.8777,4.9504,4.9532,4.9532,4.9504,4.9504,4.9504,4.9504,4.9504,4.9504,4.9504,4.9504,4.9504,4.9504,4.9504,4.9265,4.8897,4.8513,4.8402,4.8402,0.0,0.0,0.0,0.0,0.0,0.0,0.0,0.0,0.0,0.0,0.0,0.0,0.0,0.0,0.0,0.0,0.0,0.0,0.0,1.0911,1.1785,1.2842,1.3675,1.505,1.699,1.7867,1.8744,1.9672,2.0162,2.0369,2.032,1.9763,1.9195,1.8534,1.7395,1.6698,1.6274,1.5926,1.5799,1.5799,1.5799,0.0,0.0,0.0,0.0,0.0,0.0,0.0,0.0,0.0,1.5588,1.6561,1.642,1.7329,1.8402,1.7981,1.794,1.8416,2.0389,2.1163,2.2013,2.4553,0.0,0.0,0.0,0.0,0.0,0.0,0.0,0.0,0.0,0.0,0.0,0.0,0.0,0.0,0.0,0.0,0.0,0.0,0.0,0.0,0.0,0.0,0.0,0.0,0.0,0.0,4.5621,4.6085,4.6345,4.6345,4.6345,4.6413,4.6593,4.6728,4.6977,4.7293,4.8544,4.8996,4.8763,4.8763,4.8763,4.8763,4.8763,4.8763,4.8763,4.8763,4.8763,4.8763,4.8763,4.844,4.7965,4.782,4.7756,4.7656,0.0,0.0,0.0,0.0,0.0,0.0,0.0,0.0,0.0,0.0,0.0,0.0,0.0,0.0,0.0,0.0,0.0,0.0,0.9563,1.0354,1.1308,1.2457,1.3143,1.4023,1.5209,1.6995,1.8249,1.8949,1.9613,1.9762,1.9356,1.8808,1.8471,1.8291,1.6894,1.6342,1.6414,1.5989,1.5679,1.5499,1.5709,1.5139,0.0,0.0,0.0,0.0,0.0,0.0,0.0,0.0,1.4944,1.5559,1.5949,1.6849,1.7685,1.7501,1.7647,1.826,1.9763,2.0457,2.1438,0.0,0.0,0.0,0.0,0.0,0.0,0.0,0.0,0.0,0.0,0.0,0.0,0.0,0.0,0.0,0.0,0.0,0.0,0.0,0.0,0.0,0.0,0.0,0.0,0.0,0.0,0.0,0.0,4.4837,4.5131,4.5131,4.5131,4.5259,4.5516,4.5516,4.5553,4.5643,4.704,4.7758,4.7939,4.8196,4.8306,4.8306,4.8075,4.8035,4.7995,4.7797,4.7697,4.7697,4.7697,4.747,4.7088,4.7088,4.7088,4.6999,0.0,0.0,0.0,0.0,0.0,0.0,0.0,0.0,0.0,0.0,0.0,0.0,0.0,0.0,0.0,0.0,0.0,0.0,0.8905,1.0084,1.0798,1.0798,1.2074,1.3107,1.378,1.5109,1.6621,1.8408,1.8949,1.887,1.8177,1.7922,1.794,1.813,1.6861,1.6462,1.6652,1.6039,1.5424,1.4857,1.5544,1.4599,0.0,0.0,0.0,0.0,0.0,0.0,0.0,0.0,1.4229,1.4992,1.6278,1.6697,1.6831,1.7488,1.7926,1.8377,1.92,1.9951,0.0,0.0,0.0,0.0,0.0,0.0,0.0,0.0,0.0,0.0,0.0,0.0,0.0,0.0,0.0,0.0,0.0,0.0,0.0,0.0,0.0,0.0,0.0,0.0,0.0,0.0,0.0,0.0,0.0,4.3497,4.3497,4.3497,4.3497,4.3883,4.469,4.4709,4.4839,4.5102,4.5102,4.5794,4.7094,4.7882,4.8249,4.8249,4.7656,4.7385,4.7342,4.6664,4.6383,4.6383,4.6383,4.6383,4.6383,4.6383,4.6383,4.6383,0.0,0.0,0.0,0.0,0.0,0.0,0.0,0.0,0.0,0.0,0.0,0.0,0.0,0.0,0.0,0.0,0.0,0.0,0.8875,0.9698,1.0369,1.0783,1.2074,1.275,1.2693,1.3995,1.5735,1.7908,1.9155,1.8997,1.7573,1.8016,1.7735,1.6861,1.6665,1.6383,1.6054,1.5888,1.5694,1.5529,1.5724,1.5169,0.0,0.0,0.0,0.0,0.0,0.0,0.0,0.0,0.0,0.0,1.4947,1.5965,1.6756,1.695,1.7734,1.87,1.9242,0.0,0.0,0.0,0.0,0.0,0.0,0.0,0.0,0.0,0.0,0.0,0.0,0.0,0.0,0.0,0.0,0.0,0.0,0.0,0.0,0.0,0.0,0.0,0.0,0.0,0.0,0.0,0.0,0.0,0.0,4.3497,4.3497,4.3497,4.3497,4.3608,4.3846,4.3864,4.3689,4.3397,4.3996,4.4525,4.5072,4.5842,4.6201,4.6237,4.6569,4.671,4.6664,4.6478,4.6143,4.5833,4.624,4.6143,4.5783,4.5783,4.5783,4.5681,0.0,0.0,0.0,0.0,0.0,0.0,0.0,0.0,0.0,0.0,0.0,0.0,0.0,0.0,0.0,0.0,0.0,0.0,0.0,0.9383,1.0054,1.0443,1.17,1.2418,1.2436,1.3636,1.4883,1.6144,1.7472,1.7578,1.6518,1.7228,1.737,1.7062,1.7091,1.6741,1.6159,1.6159,1.571,1.5037,1.5373,1.5061,1.4322,0.0,0.0,0.0,0.0,0.0,0.0,0.0,0.0,0.0,1.4049,0.0,1.5995,1.6249,1.7281,1.85,1.9284,0.0,0.0,0.0,0.0,0.0,0.0,0.0,0.0,0.0,0.0,0.0,0.0,0.0,0.0,0.0,0.0,0.0,0.0,0.0,0.0,0.0,0.0,0.0,0.0,0.0,0.0,0.0,0.0,0.0,0.0,4.3178,4.3069,4.2847,4.281,4.281,4.281,4.281,4.2523,4.1979,4.2501,4.2661,4.2608,4.417,4.4847,4.4865,4.5082,4.518,4.5212,4.5212,4.5165,4.5178,4.5545,4.5459,4.5125,4.5125,4.5125,4.5089,0.0,0.0,0.0,0.0,0.0,0.0,0.0,0.0,0.0,0.0,0.0,0.0,0.0,0.0,0.0,0.0,0.0,0.0,0.0,0.9142,0.989,0.989,1.1137,1.2148,1.2809,1.3713,1.4053,1.3745,1.4796,1.5278,1.5268,1.5949,1.6879,1.7976,1.7708,1.7204,1.6532,1.6532,1.5472,1.3863,1.4659,1.4511,1.3744,1.3336,0.0,0.0,0.0,0.0,0.0,0.0,0.0,0.0,1.3525,1.4214,1.4917,1.5529,1.6652,1.7999,0.0,0.0,0.0,0.0,0.0,0.0,0.0,0.0,0.0,0.0,0.0,0.0,0.0,0.0,0.0,0.0,0.0,0.0,0.0,0.0,0.0,0.0,0.0,0.0,0.0,0.0,0.0,0.0,0.0,0.0,0.0,4.2616,4.2342,4.181,4.181,4.181,4.181,4.181,4.149,4.0903,4.0903,4.0607,4.0172,4.276,4.3951,4.3976,4.3467,4.3254,4.3318,4.3318,4.3775,4.4468,4.4468,4.4519,4.4587,4.4587,4.4587,4.4587,0.0,0.0,0.0,0.0,0.0,0.0,0.0,0.0,0.0,0.0,0.0,0.0,0.0,0.0,0.0,0.0,0.0,0.0,0.0,0.9142,0.989,0.989,1.1317,1.243,1.3106,1.2824,1.2901,1.3329,1.4723,1.5227,1.4932,1.5596,1.6049,1.6336,1.6758,1.6278,1.5216,1.5216,1.4663,1.3814,1.4005,1.3987,1.3725,1.3124,1.285,0.0,0.0,0.0,0.0,0.0,0.0,0.0,1.2981,1.3825,1.4812,1.4962,1.6293,1.7861,0.0,0.0,0.0,0.0,0.0,0.0,0.0,0.0,0.0,0.0,0.0,0.0,0.0,0.0,0.0,0.0,0.0,0.0,0.0,0.0,0.0,0.0,0.0,0.0,0.0,0.0,0.0,0.0,0.0,0.0,4.1979,4.1979,4.1937,4.1793,4.181,4.181,4.181,4.181,4.149,0.0,4.0903,4.0607,4.0155,4.129,4.2159,4.2706,4.2568,4.253,4.254,4.254,4.298,4.3673,4.3673,4.4045,4.4587,4.4587,4.4587,4.4587,0.0,0.0,0.0,0.0,0.0,0.0,0.0,0.0,0.0,0.0,0.0,0.0,0.0,0.0,0.0,0.0,0.0,0.0,0.0,0.8795,0.9698,1.0309,1.1424,1.217,1.2521,1.2186,1.2186,1.2536,1.3291,1.3907,1.4348,1.5635,1.6398,1.6727,1.7025,1.6488,1.5274,1.4932,1.4135,1.3109,1.3407,1.3432,1.324,1.2528,1.2381,1.2461,1.1792,0.0,0.0,0.0,0.0,0.0,0.0,0.0,1.4378,1.4692,1.5964,1.7578,0.0,0.0,0.0,0.0,0.0,0.0,0.0,0.0,0.0,0.0,0.0,0.0,0.0,0.0,0.0,0.0,0.0,0.0,0.0,0.0,0.0,0.0,0.0,0.0,0.0,0.0,0.0,0.0,0.0,4.1664,4.1402,4.1358,4.1223,4.0984,4.0984,4.0984,4.0984,4.0984,4.0814,4.0546,4.0546,4.0368,4.0087,4.0493,4.0865,4.1238,4.1238,4.1441,4.1762,4.1762,4.2202,4.2858,4.2864,4.3063,4.3447,4.3353,4.335,4.341,0.0,0.0,0.0,0.0,0.0,0.0,0.0,0.0,0.0,0.0,0.0,0.0,0.0,0.0,0.0,0.0,0.0,0.0,0.0,0.8342,0.9406,1.0738,1.1341,1.1685,1.1805,1.1685,1.1685,1.1805,1.1805,1.2553,1.4019,1.5621,1.6786,1.7518,1.7518,1.6772,1.5424,1.4857,1.3697,1.225,1.2751,1.2825,1.2557,1.195,1.1915,1.2134,1.1506,1.1512,1.1895,1.2507,0.0,0.0,0.0,0.0,1.3899,1.4318,1.5381,1.6906,0.0,0.0,0.0,0.0,0.0,0.0,0.0,0.0,0.0,0.0,0.0,0.0,0.0,0.0,0.0,0.0,0.0,0.0,0.0,0.0,0.0,0.0,0.0,0.0,0.0,0.0,0.0,0.0,0.0,4.1286,4.078,4.078,4.0577,4.0121,4.007,4.007,4.007,4.007,4.007,4.007,4.007,4.007,4.007,4.007,4.007,4.007,4.007,4.0375,4.0828,4.0828,4.1144,4.1741,4.1651,4.1796,4.1972,4.185,4.1885,4.2125,0.0,0.0,0.0,0.0,0.0,0.0,0.0,0.0,0.0,0.0,0.0,0.6289,0.6582,0.6774,0.0,0.0,0.0,0.0,0.7256,0.0,0.0,1.0738,1.0887,1.1221,1.179,1.1216,1.1236,1.1805,1.1805,1.2777,0.0,0.0,1.5695,1.6846,1.6846,1.5801,1.4064,1.3974,1.3127,1.1859,1.1948,1.197,1.1933,1.1822,1.1815,1.1822,1.1452,1.1512,1.1851,1.2244,1.2947,0.0,0.0,0.0,0.0,0.0,0.0,0.0,0.0,0.0,0.0,0.0,0.0,0.0,0.0,0.0,0.0,0.0,0.0,0.0,0.0,0.0,0.0,0.0,0.0,0.0,0.0,0.0,0.0,0.0,0.0,0.0,0.0,0.0,0.0,0.0,4.0353,4.0286,4.0204,4.0204,4.0154,4.0121,4.007,4.007,4.007,4.007,4.007,4.007,4.007,4.007,4.007,4.007,4.007,4.007,4.007,3.9781,3.9235,3.9235,3.9263,3.9328,3.9323,4.0112,4.1144,4.1116,4.1469,4.1997,0.0,0.0,0.0,0.0,0.0,0.0,0.0,0.0,0.0,0.0,0.0,0.6289,0.6582,0.6774,0.0,0.0,0.0,0.0,0.741,0.8101,0.0,0.9695,1.0099,1.0428,1.0728,1.0458,1.0623,1.1251,1.0907,0.0,0.0,1.4989,1.5889,0.0,1.704,1.6025,1.4827,1.3513,1.2399,1.1512,1.1512,1.168,1.1883,1.1615,1.1812,1.2085,1.1334,1.1392,0.0,0.0,0.0,0.0,0.0,0.0,0.0,0.0,0.0,0.0,0.0,0.0,0.0,0.0,0.0,0.0,0.0,0.0,0.0,0.0,0.0,0.0,0.0,0.0,0.0,0.0,0.0,0.0,0.0,0.0,0.0,0.0,0.0,0.0,0.0,0.0,0.0,0.0,4.007,4.007,4.007,4.007,4.007,4.007,4.007,4.007,4.007,4.007,4.007,4.007,4.007,4.007,4.007,3.961,3.9437,3.9437,3.9437,3.8978,3.8302,3.8302,3.827,3.8302,3.8207,3.8543,3.9109,3.9455,3.9735,4.0112,0.0,0.0,0.0,0.0,0.0,0.0,0.0,0.0,0.0,0.0,0.0,0.0,0.6395,0.0,0.0,0.0,0.0,0.0,0.747,0.0,0.0,0.0,0.9383,0.9653,0.9653,0.9653,0.986,1.0324,0.0,0.0,1.5544,1.5229,1.6443,0.0,1.7712,1.6593,0.0,0.0,0.0,0.0,1.194,1.2069,1.2233,1.2235,1.252,1.2811,1.1908,0.0,0.0,0.0,0.0,0.0,0.0,0.0,0.0,0.0,0.0,0.0,0.0,0.0,0.0,0.0,0.0,0.0,0.0,0.0,0.0,0.0,0.0,0.0,0.0,0.0,0.0,0.0,0.0,0.0,0.0,0.0,0.0,0.0,0.0,0.0,0.0,0.0,0.0,0.0,4.007,4.007,4.007,4.007,4.007,4.007,4.007,4.007,4.007,4.007,4.007,4.007,3.9901,3.9782,3.9782,3.8978,3.8509,3.8342,3.8509,3.8189,3.7515,3.7515,3.7397,3.7238,3.7141,3.7182,3.7361,3.7978,3.8242,3.8622,0.0,0.0,0.0,0.0,0.0,0.0,0.0,0.0,0.0,0.0,0.0,0.0,0.5911,0.6123,0.6224,0.6236,0.0,0.0,0.0,0.0,0.0,0.0,0.0,0.0,0.895,0.895,0.8965,0.8995,0.0,0.0,1.4857,1.5469,1.7148,1.96,1.8912,1.7206,1.4827,0.0,0.0,0.0,0.0,1.3388,1.3065,1.4326,1.4505,1.4038,0.0,0.0,0.0,0.0,0.0,0.0,0.0,0.0,1.2726,0.0,0.0,0.0,0.0,0.0,0.0,0.0,0.0,0.0,0.0,0.0,0.0,0.0,0.0,0.0,0.0,0.0,0.0,0.0,0.0,0.0,0.0,0.0,0.0,0.0,0.0,0.0,0.0,0.0,0.0,0.0,4.007,4.007,4.007,4.007,4.007,4.007,4.007,4.007,4.007,4.007,4.007,4.007,3.9315,3.8962,3.8908,3.8206,3.744,3.6783,3.7515,3.7381,3.6661,3.6661,3.6228,3.5634,3.5599,3.5989,3.6618,3.721,3.7853,3.8482,0.0,0.0,0.0,0.0,0.0,0.0,0.0,0.0,0.0,0.0,0.0,0.0,0.0,0.6301,0.6453,0.6453,0.6535,0.0,0.0,0.0,0.0,0.0,0.0,0.0,0.0,0.8259,0.8469,0.0,0.0,1.0717,1.3535,1.4199,1.5499,1.7237,1.7805,1.755,1.6562,1.5108,0.0,0.0,0.0,0.0,1.4414,1.4487,0.0,0.0,0.0,0.0,0.0,0.0,0.0,0.0,0.0,1.3645,1.3301,1.2651,1.3376,0.0,0.0,0.0,0.0,0.0,0.0,0.0,0.0,0.0,0.0,0.0,0.0,0.0,0.0,0.0,0.0,0.0,0.0,0.0,0.0,0.0,0.0,0.0,0.0,0.0,0.0,0.0,0.0,0.0,0.0,4.007,4.007,4.007,4.007,4.007,4.007,4.007,4.007,4.007,4.007,4.007,3.9262,3.8908,3.8854,3.76,3.6843,3.6615,3.6415,3.6133,3.5894,3.5894,3.5718,3.5504,3.5504,3.5654,3.5938,3.6582,3.7225,3.7853,0.0,0.0,0.0,0.0,0.0,0.0,0.0,0.0,0.5361,0.5359,0.0,0.0,0.0,0.0,0.6668,0.6705,0.6641,0.6685,0.6891,0.6977,0.0,0.0,0.0,0.0,0.0,0.7899,0.8109,0.8574,0.8785,0.0,0.0,1.3047,1.4169,1.5499,1.6353,1.7101,0.0,0.0,0.0,1.5712,0.0,0.0,1.5799,0.0,0.0,0.0,0.0,0.0,0.0,0.0,0.0,0.0,0.0,1.386,1.3331,1.2643,1.3555,1.4932,1.5547,0.0,0.0,0.0,0.0,0.0,0.0,0.0,0.0,0.0,0.0,0.0,0.0,0.0,0.0,0.0,0.0,0.0,0.0,0.0,0.0,0.0,0.0,0.0,0.0,0.0,0.0,0.0,0.0,0.0,4.007,4.007,4.007,4.007,4.007,4.007,4.007,4.007,4.007,4.007,3.9032,3.8525,3.8469,3.6904,3.6228,3.6228,3.5733,3.5504,3.5504,3.5504,3.5504,3.5504,3.5504,3.5504,3.5579,3.6237,3.6881,3.7509,0.0,0.0,0.0,0.0,0.0,0.0,0.0,0.0,0.5117,0.5117,0.0,0.0,0.0,0.0,0.0,0.695,0.676,0.6723,0.69,0.7093,0.0,0.0,0.0,0.0,0.7915,0.79,0.7914,0.7929,0.8589,0.9533,1.0768,1.2104,1.346,1.4737,1.4752,1.5845,1.7637,0.0,1.7623,1.765,0.0,1.6904,1.7092,0.0,0.0,0.0,1.8687,1.8508,0.0,0.0,0.0,0.0,0.0,1.4045,1.2726,1.2059,1.3271,1.4707,0.0,0.0,0.0,0.0,0.0,0.0,0.0,0.0,0.0,0.0,0.0,0.0,0.0,0.0,0.0,0.0,0.0,0.0,0.0,0.0,0.0,0.0,0.0,0.0,0.0,0.0,0.0,0.0,4.007,4.007,4.007,4.007,4.007,4.007,4.007,4.007,4.007,4.007,4.007,4.007,3.8486,3.7748,3.769,3.6196,3.5504,3.5504,3.5504,3.5504,3.5504,3.5504,3.5504,3.5504,3.5504,3.5504,3.5579,3.6222,3.6851,3.7479,0.0,0.0,0.0,0.0,0.0,0.5479,0.5166,0.54,0.5613,0.0,0.0,0.0,0.6835,0.783,0.8475,0.8502,0.8072,0.7678,0.7288,0.694,0.6861,0.7091,0.7139,0.7539,0.8319,0.7913,0.7989,0.8619,0.8815,0.9085,0.9458,1.0743,1.2059,1.3385,1.3855,1.4917,1.6248,1.5291,0.0,0.0,1.6648,1.6838,0.0,0.0,0.0,0.0,0.0,1.8526,0.0,0.0,1.8262,1.7723,0.0,0.0,1.4094,1.3451,1.4636,1.6025,1.5411,0.0,0.0,0.0,0.0,0.0,0.0,0.0,0.0,0.0,0.0,0.0,0.0,0.0,0.0,0.0,0.0,0.0,0.0,0.0,0.0,0.0,0.0,0.0,0.0,0.0,0.0,0.0,4.007,4.007,4.007,4.007,4.007,4.007,4.007,4.007,4.007,3.9542,3.9262,3.9193,3.7658,3.6904,3.6919,3.5958,3.5504,3.5504,3.5504,3.5504,3.5504,3.5504,3.5504,3.5504,3.5504,3.5504,3.5534,3.5714,3.6193,3.6836,0.0,0.0,0.0,0.5415,0.5764,0.5965,0.5677,0.5873,0.6049,0.0,0.0,0.0,0.7943,0.9159,0.971,0.9255,0.8856,0.8286,0.7456,0.7205,0.7036,0.6908,0.7364,0.7888,0.8479,0.8541,0.8671,0.8905,0.8905,0.8755,0.8514,0.9815,1.0683,1.1227,1.2418,1.3391,1.409,1.3301,0.0,0.0,1.7327,0.0,0.0,1.8869,1.891,0.0,0.0,0.0,2.0087,1.9794,1.9293,0.0,0.0,0.0,0.0,1.4812,1.5801,1.698,1.6353,1.7131,0.0,0.0,0.0,0.0,0.0,0.0,0.0,0.0,0.0,0.0,0.0,0.0,0.0,0.0,0.0,0.0,0.0,0.0,0.0,0.0,0.0,0.0,0.0,3.9901,4.007,4.007,4.007,4.007,4.007,4.007,4.007,4.007,4.007,3.9952,3.961,3.9139,3.8745,3.8414,3.7188,3.6615,3.6554,3.5846,3.5504,3.5504,3.5504,3.5504,3.5504,3.5504,3.5504,3.5504,3.5504,3.5504,3.5504,3.5504,3.5923,3.6537,0.0,0.0,0.63,0.6008,0.6275,0.6541,0.6552,0.6596,0.6611,0.0,0.7104,0.7927,0.9235,1.045,1.0755,0.9797,0.944,0.8801,0.7656,0.7688,0.7507,0.6975,0.792,0.851,0.8624,0.9358,0.947,0.8928,0.8853,0.8511,0.799,0.9183,0.9531,0.919,1.0907,1.173,1.182,1.2119,0.0,1.7459,1.8236,1.9014,0.0,0.0,1.9967,0.0,2.1112,2.1603,2.1599,2.1004,2.0015,0.0,0.0,0.0,0.0,0.0,1.6936,0.0,1.7188,1.7951,0.0,0.0,0.0,0.0,2.0991,2.1904,0.0,0.0,0.0,0.0,0.0,0.0,0.0,0.0,0.0,0.0,0.0,0.0,0.0,0.0,0.0,0.0,3.887,3.9462,3.9834,3.9834,3.9918,3.9952,3.9952,3.9969,3.9969,3.9969,3.9901,3.9489,3.8799,3.869,3.8302,3.7632,3.6859,3.6508,3.6446,3.5782,3.5504,3.5504,3.5504,3.5439,3.5359,3.5359,3.5359,3.5359,3.5359,3.5279,3.5213,3.5213,3.5585,3.6089,0.0,0.6241,0.6482,0.6804,0.7169,0.7441,0.7456,0.7776,0.8019,0.8013,0.8955,1.0019,1.1082,1.1687,1.1954,1.1754,1.0899,0.9931,0.8838,0.7963,0.742,0.7319,0.7503,0.8188,0.9371,0.9042,0.8919,0.9076,0.8506,0.8302,0.8387,0.8697,0.9416,1.0458,1.0827,1.1275,1.1939,1.4105,0.0,1.5581,1.6179,0.0,1.9803,1.9801,2.0122,2.0578,2.0805,2.1176,2.1514,0.0,2.1172,2.0771,0.0,0.0,0.0,0.0,0.0,1.9266,1.9129,1.9705,0.0,0.0,0.0,0.0,0.0,2.0234,0.0,0.0,0.0,0.0,0.0,0.0,0.0,0.0,0.0,0.0,0.0,0.0,0.0,0.0,0.0,0.0,3.8125,3.8244,3.8328,3.8328,3.887,3.9208,3.9208,3.9172,3.9139,3.9139,3.8541,3.8149,3.8035,3.7365,3.6964,3.6859,3.6054,3.5733,3.5733,3.5569,3.5504,3.5504,3.5504,3.5052,3.4312,3.4312,3.4312,3.4312,3.4312,3.3822,3.3185,3.3185,3.3255,3.3424,0.6249,0.6655,0.7119,0.735,0.7759,0.8106,0.8323,0.8551,0.8783,0.897,1.039,1.146,1.169,1.2335,1.2632,1.2341,1.1348,1.0395,0.9566,0.8713,0.8114,0.7864,0.827,0.8852,0.9599,0.9698,0.9682,0.9509,0.9005,0.8652,0.8459,0.8824,0.949,1.0432,1.1198,1.1855,1.2492,0.0,1.5209,1.5956,1.7261,0.0,1.9471,2.0031,2.0436,2.0794,2.1292,2.1845,2.2248,2.1798,2.1756,0.0,0.0,2.0412,2.0471,0.0,1.9909,2.0148,2.0175,2.0453,0.0,2.1096,0.0,0.0,0.0,0.0,0.0,0.0,0.0,0.0,0.0,0.0,0.0,0.0,0.0,0.0,0.0,0.0,0.0,0.0,0.0,0.0,3.6772,3.7466,3.7728,3.7368,3.7703,3.7903,3.7903,3.7863,3.7987,3.8327,3.8012,3.7632,3.7219,3.6783,3.6446,3.6054,3.5668,3.5504,3.5504,3.5504,3.5504,3.5439,3.4986,3.4476,3.3959,3.3518,3.3031,3.2664,3.3101,3.3031,3.2593,3.2593,3.2593,3.2648,0.6161,0.6832,0.7482,0.7575,0.804,0.8527,0.8942,0.9159,0.9435,0.9926,1.1334,1.2246,1.1975,1.2657,1.3003,1.2571,1.1641,1.0869,1.0374,0.9651,0.9106,0.8788,0.9231,0.959,0.9812,1.0395,1.0393,0.9747,0.937,0.8945,0.8468,0.9015,0.9636,1.0355,1.1736,1.2699,0.0,0.0,0.0,1.6903,0.0,1.9341,1.9274,2.0309,2.0777,2.0977,2.209,2.2761,2.3031,2.2296,0.0,2.2423,2.1481,2.1461,0.0,0.0,0.0,0.0,0.0,0.0,0.0,0.0,0.0,2.159,0.0,0.0,0.0,2.1618,0.0,0.0,0.0,0.0,0.0,0.0,0.0,0.0,0.0,0.0,0.0,0.0,0.0,0.0,0.0,3.5869,3.6343,3.5993,3.591,3.5908,3.6188,3.6335,3.6701,3.734,3.7253,3.6914,3.6384,3.6384,3.6117,3.5504,3.5504,3.5504,3.5504,3.5504,3.5359,3.5133,3.4327,3.3808,3.338,3.2664,3.1756,3.1044,3.196,3.2249,3.2046,3.2046,3.2046,3.2046,0.6395,0.655,0.6754,0.7098,0.7858,0.8544,0.8919,0.9648,1.0467,1.1267,1.1577,1.197,1.2673,1.2925,0.0,1.3407,0.0,0.0,1.1862,0.0,0.9944,1.0391,0.9616,0.9616,1.0535,1.0224,0.9754,0.9194,0.8682,0.8511,0.8672,0.8739,0.9696,1.1365,1.2132,0.0,0.0,0.0,1.5841,0.0,1.8013,1.8889,0.0,2.0359,2.0926,2.1523,2.2635,2.3027,2.3085,0.0,2.3184,2.3111,0.0,2.2324,0.0,0.0,0.0,0.0,0.0,0.0,0.0,0.0,2.3879,0.0,0.0,0.0,2.121,2.0234,0.0,0.0,0.0,0.0,0.0,0.0,0.0,0.0,0.0,0.0,0.0,0.0,0.0,0.0,0.0,3.1884,3.1805,3.2892,3.2541,3.2789,3.3982,3.4628,3.5237,3.5798,3.5233,3.5115,3.5604,3.5619,3.5554,3.5504,3.5504,3.5504,3.5504,3.5504,3.4986,3.4177,3.4027,3.3031,3.1536,3.1389,3.0846,3.0075,3.097,3.0833,3.0152,3.0152,3.0152,3.0152,0.6149,0.6576,0.698,0.7426,0.8011,0.8622,0.9241,1.0324,1.1259,1.1865,1.2198,1.2559,0.0,0.0,0.0,0.0,0.0,1.2743,0.0,0.0,1.1208,1.2102,1.1123,1.0747,1.1211,1.0671,1.0106,0.9554,0.9154,0.9007,0.9114,0.9114,1.0373,1.266,1.2755,0.0,1.6612,0.0,0.0,0.0,0.0,0.0,0.0,2.0738,2.1648,2.2515,2.2946,2.3078,2.3,0.0,2.2729,0.0,0.0,0.0,0.0,0.0,0.0,0.0,0.0,0.0,0.0,0.0,0.0,0.0,2.1317,0.0,2.0483,0.0,0.0,0.0,0.0,0.0,0.0,0.0,0.0,0.0,0.0,0.0,0.0,0.0,0.0,0.0,0.0,0.0,0.0,0.0,3.0224,3.0496,3.1836,3.253,3.3307,3.4326,3.447,3.4622,3.4906,3.531,3.5504,3.5504,3.5504,3.5504,3.5504,3.4905,3.4394,3.3945,3.289,3.196,3.118,3.062,3.0139,2.9869,3.0203,3.0139,2.9792,2.9792,2.9792,2.9792,0.5643,0.0,0.0,0.7236,0.7888,0.8746,0.9791,1.0766,1.1605,1.2124,1.2513,0.0,1.3731,1.3846,0.0,0.0,0.0,1.3423,0.0,0.0,1.2398,1.3095,1.2419,0.0,0.0,1.1236,1.0656,1.0119,0.9586,0.9398,0.953,0.9398,1.0621,1.2932,1.301,1.474,1.7493,0.0,0.0,1.8588,1.8798,1.9458,2.0438,2.1393,2.2274,2.3078,2.3078,2.3078,2.2987,2.2249,2.2612,0.0,2.2937,0.0,0.0,0.0,0.0,0.0,2.493,0.0,0.0,0.0,0.0,0.0,0.0,0.0,0.0,0.0,0.0,0.0,0.0,0.0,0.0,2.0662,0.0,0.0,0.0,0.0,0.0,0.0,0.0,0.0,0.0,0.0,0.0,0.0,0.0,2.7982,2.9673,3.0513,3.1573,3.2931,3.3789,3.4292,3.4472,3.516,3.5504,3.5504,3.5504,3.5359,3.5067,3.4312,3.3739,3.3171,3.1815,3.1044,3.0758,3.0075,2.9792,2.9792,2.9792,2.9792,2.9792,2.9792,2.9792,2.9792,0.4923,0.5426,0.0,0.0,0.0,0.8967,1.0606,1.0909,1.1211,1.2106,0.0,0.0,0.0,0.0,0.0,0.0,0.0,1.4118,1.4171,0.0,1.3431,0.0,0.0,1.2881,0.0,0.0,1.1274,1.0669,0.9629,0.9377,0.9881,0.9352,0.9953,1.1522,1.2673,1.4376,1.6363,1.6447,1.8022,2.0427,1.9406,2.0303,2.221,0.0,2.2603,2.3078,2.3078,0.0,0.0,2.321,2.327,0.0,0.0,0.0,0.0,0.0,0.0,0.0,0.0,0.0,0.0,2.4401,0.0,0.0,0.0,0.0,2.2218,0.0,0.0,0.0,0.0,0.0,2.1425,2.0812,2.1246,0.0,0.0,0.0,0.0,0.0,0.0,0.0,0.0,0.0,0.0,0.0,0.0,0.0,2.755,2.8974,3.0238,3.1509,3.2841,3.3829,3.4472,3.516,3.5504,3.5504,3.5504,3.4986,3.4027,3.4027,3.3031,3.1315,3.1254,3.0696,2.9856,2.9792,2.9792,2.9792,2.9792,2.9792,2.9792,2.9792,2.9792,2.9792,0.0,0.0,0.0,0.0,0.0,0.8951,1.0644,1.1395,1.2168,0.0,0.0,0.0,0.0,0.0,1.5991,0.0,0.0,1.556,1.5214,1.4607,0.0,0.0,0.0,1.416,0.0,0.0,1.2371,1.1839,1.1098,1.0863,1.101,1.085,1.1603,1.316,1.3587,1.5195,0.0,0.0,0.0,0.0,0.0,2.1479,2.2836,0.0,0.0,2.3078,2.3078,2.3078,0.0,2.3149,2.3225,2.3375,2.369,2.387,2.4107,2.5105,2.5571,0.0,0.0,0.0,2.6845,2.5134,0.0,0.0,0.0,0.0,0.0,0.0,0.0,0.0,0.0,2.1695,2.1485,2.0827,2.0902,2.076,0.0,0.0,0.0,0.0,0.0,0.0,0.0,0.0,0.0,0.0,2.38,0.0,0.0,2.8607,2.9968,3.0821,3.2153,3.3155,3.3829,3.4487,3.4753,3.4543,3.4543,3.4027,3.3031,3.2464,3.1815,3.118,3.0558,3.0075,2.9792,2.9792,2.9792,2.9792,2.9792,2.9792,2.9792,2.9792,2.9792,2.9792,0.6431,0.0,0.0,0.0,0.0,0.0,0.0,0.0,0.0,0.0,1.4345,0.0,1.6367,0.0,1.6778,0.0,1.6627,1.6314,1.5745,1.552,0.0,1.5448,1.5476,0.0,0.0,0.0,1.3326,1.2594,1.2113,1.1876,1.1876,1.1676,1.2252,1.3441,0.0,0.0,0.0,0.0,1.9007,0.0,0.0,2.2146,0.0,0.0,2.3078,2.3078,0.0,2.3078,2.3103,2.3376,2.3488,2.3631,2.4116,2.4365,2.4543,2.5309,2.5677,2.5988,2.6452,2.6627,0.0,2.5425,2.4486,0.0,2.2251,0.0,0.0,0.0,0.0,0.0,0.0,0.0,2.1898,2.1392,2.0961,2.0483,0.0,0.0,0.0,0.0,0.0,0.0,0.0,0.0,2.1157,2.2701,0.0,0.0,0.0,0.0,2.9265,3.0148,3.1704,3.2826,3.3484,3.3813,3.3981,3.4027,3.3671,3.3031,3.2105,3.1462,3.1044,3.0696,3.0075,2.9792,2.9792,2.9792,2.9792,2.9792,2.9792,2.9792,2.9792,2.9792,2.9792,2.9792,0.0,0.0,0.0,0.0,0.9516,0.0,0.0,0.0,1.3696,0.0,1.4895,1.5939,1.7116,1.6638,1.6616,1.7709,1.7126,0.0,1.5811,1.6539,0.0,0.0,1.5877,1.592,1.4346,1.4552,0.0,1.312,1.269,1.2492,1.2479,1.1927,1.1952,1.2504,1.3632,0.0,1.584,1.8044,1.9438,2.0299,2.1461,2.2384,2.3065,2.3065,2.3078,2.3078,2.3078,2.309,2.3203,2.3816,2.4017,2.4142,2.4682,2.4858,2.487,2.4895,2.5259,2.5709,2.5905,2.6267,2.6406,2.5351,2.5048,0.0,0.0,0.0,2.4989,0.0,0.0,0.0,0.0,0.0,2.2697,2.2431,2.1401,2.0438,1.9779,0.0,0.0,0.0,0.0,0.0,0.0,0.0,1.9555,2.15,2.1096,0.0,0.0,0.0,2.8225,2.949,3.1377,3.2721,3.3363,3.31,3.3245,3.3833,3.2947,3.2033,3.1106,3.1106,3.062,2.9792,2.9792,2.9792,2.9792,2.9792,2.9792,2.9792,2.9792,2.9792,2.9792,2.9792,2.9792,2.9792,0.7459,0.8291,0.9177,0.0,1.0308,1.0856,0.0,0.0,0.0,0.0,1.5806,1.6743,1.7684,1.7642,1.7615,1.7922,1.7514,0.0,0.0,0.0,0.0,1.6128,1.6761,1.6732,1.587,1.5762,0.0,1.4791,1.4011,1.3657,1.3657,1.3069,1.2847,1.3035,0.0,0.0,1.5616,1.7424,1.8854,2.0072,2.1357,2.2002,0.0,0.0,2.3078,2.3078,2.3078,2.3414,2.3803,2.3954,2.4268,2.4707,2.5234,2.5398,2.5485,2.5912,2.6138,2.6269,2.632,2.6451,2.6537,2.6327,2.5532,2.4752,0.0,0.0,0.0,0.0,0.0,0.0,0.0,0.0,0.0,2.2083,2.0801,1.9884,0.0,0.0,0.0,0.0,0.0,0.0,0.0,0.0,1.9854,2.0887,2.1261,0.0,0.0,0.0,0.0,2.8831,3.0147,3.1183,3.1795,3.1523,3.135,3.1351,3.1481,3.1044,3.0139,3.0139,2.9998,2.9792,2.9792,2.9792,2.9792,2.9792,2.9792,2.9792,2.9792,2.9792,2.9792,2.9792,2.9792,2.9792,0.776,0.0,0.0,1.036,0.0,0.0,1.2034,0.0,0.0,1.4701,1.5888,0.0,1.7402,1.7783,1.8008,1.8008,1.7793,0.0,0.0,0.0,0.0,1.6868,1.7164,1.7026,1.6293,1.6052,0.0,1.5302,0.0,0.0,1.4072,1.3483,1.3198,0.0,0.0,1.5141,0.0,1.7303,1.893,2.0377,2.0642,0.0,0.0,2.2639,2.3183,2.354,2.3791,2.3929,2.4067,2.4531,2.4908,2.5259,2.5799,2.5975,2.6038,2.6433,2.6533,2.6533,2.6533,2.6533,2.6514,2.6616,2.6077,2.5523,2.5382,2.5614,2.5727,0.0,2.553,2.5935,0.0,0.0,0.0,2.156,2.0632,0.0,0.0,0.0,0.0,0.0,0.0,0.0,0.0,0.0,0.0,0.0,0.0,0.0,0.0,0.0,0.0,2.7974,2.8885,2.978,3.0644,3.0361,3.0234,3.0362,3.0511,3.0279,2.9792,2.9792,2.9792,2.9792,2.9792,2.9792,2.9792,2.9792,2.9792,2.9792,2.9275,2.9028,2.9028,2.8542,2.8961,2.9792,0.0,0.0,0.0,0.0,0.0,0.0,0.0,1.32,0.0,1.4142,0.0,1.6703,1.6831,1.7568,1.8008,1.8008,0.0,1.7876,1.7655,1.7899,1.7764,1.7144,1.7362,1.708,1.6311,1.6005,0.0,0.0,0.0,1.4069,1.4063,1.3486,0.0,0.0,0.0,0.0,0.0,1.7379,1.8932,2.0438,1.962,2.0313,2.1895,2.2484,2.3298,2.418,2.472,2.4619,2.4356,2.5285,2.5649,2.5799,2.6302,2.6533,2.6533,2.6533,2.6533,2.6533,2.6533,2.6533,2.6533,2.6533,2.6533,2.6405,2.5987,2.5881,2.5881,2.5881,2.5535,2.5449,0.0,0.0,0.0,0.0,0.0,0.0,0.0,0.0,0.0,0.0,0.0,0.0,0.0,0.0,0.0,0.0,0.0,0.0,0.0,0.0,0.0,2.7121,2.7712,2.8581,2.9711,2.9398,2.9516,3.0112,2.9922,2.9792,2.9792,2.9792,2.9792,2.9792,2.9792,2.9792,2.9792,2.9792,2.9702,2.9456,2.8347,2.7936,2.7763,2.6883,2.7718,2.9378,0.0,0.0,0.0,0.0,0.0,1.1319,1.1938,1.3093,1.4247,1.4968,1.5964,1.6924,1.7716,1.792,1.8008,1.8008,1.8008,0.0,0.0,0.0,0.0,1.7809,1.788,1.7666,1.7168,1.688,1.6368,0.0,1.4857,1.4311,1.4002,1.3446,1.3483,0.0,0.0,0.0,1.6508,1.697,0.0,1.81,1.8989,2.0183,2.1601,2.2421,2.353,2.4745,2.5272,2.5398,2.5347,2.5536,2.5912,2.6327,2.6496,2.6533,2.6533,2.6533,2.6533,2.6533,2.6533,2.6533,2.6533,2.6533,2.6533,2.6471,2.6405,2.6367,2.6367,2.6367,2.6337,2.6151,2.5935,0.0,0.0,0.0,0.0,0.0,0.0,0.0,0.0,0.0,0.0,0.0,0.0,0.0,0.0,0.0,0.0,0.0,0.0,0.0,0.0,0.0,2.6895,0.0,0.0,0.0,2.8366,2.854,2.9366,2.9792,2.9792,2.9792,2.9792,2.9792,2.9792,2.9792,2.9792,2.9792,2.9275,2.8267,2.7209,2.6801,2.6719,2.6565,2.673,2.7058,0.0,0.0,0.0,0.0,0.0,0.0,0.0,1.2996,0.0,1.4469,1.5996,1.7102,1.7298,1.8135,1.8584,1.835,1.8545,1.8672,1.8672,1.8672,1.8672,1.8672,1.8457,0.0,1.7715,1.6934,1.627,1.5693,1.4628,1.3926,1.3587,1.303,1.2945,1.3279,0.0,1.5626,0.0,0.0,0.0,1.8314,1.8748,1.9734,2.1051,2.1774,2.272,2.3762,2.434,2.4518,2.467,2.5754,2.6226,2.6533,2.6533,2.6533,2.6533,2.6533,2.6533,2.6533,2.6533,2.6533,2.6533,2.6533,2.6533,2.6533,2.6533,2.6533,2.6533,2.6533,2.6533,2.6384,2.5868,2.4641,0.0,0.0,0.0,0.0,0.0,0.0,0.0,0.0,0.0,0.0,0.0,0.0,0.0,0.0,0.0,0.0,0.0,0.0,2.2429,0.0,0.0,0.0,2.7095,0.0,2.8109,2.8122,2.9252,2.9792,2.9792,2.9792,2.9792,2.9792,2.9792,2.9456,2.8858,2.8291,2.7799,2.7116,2.6047,2.563,2.5546,2.4978,2.5136,2.5714,0.0,0.9998,0.0,0.0,1.133,0.0,1.2716,1.3086,1.3478,1.4281,1.6008,1.7159,1.7239,1.8477,1.915,1.8799,1.9092,1.9287,1.9287,1.9287,1.9287,1.9287,1.8955,1.8623,1.8291,1.709,1.6287,0.0,1.4573,1.3657,1.3279,1.2766,1.2629,0.0,0.0,0.0,0.0,0.0,1.8008,1.9083,1.8844,1.9585,2.0791,2.1219,2.1991,2.2916,2.338,2.3514,2.3734,2.5346,2.6013,2.6245,2.6452,2.6533,2.6533,2.6533,2.6533,2.6533,2.6533,2.6533,2.6533,2.6533,2.6533,2.6533,2.6533,2.6533,2.6533,2.6533,2.6533,2.6316,2.5678,2.4935,0.0,0.0,0.0,0.0,0.0,0.0,0.0,0.0,0.0,0.0,0.0,0.0,0.0,0.0,0.0,0.0,1.9033,1.9415,2.0909,0.0,0.0,2.4682,2.6101,0.0,2.8109,2.8122,2.9252,2.9792,2.9792,2.9792,2.9702,2.9443,2.9443,2.8779,2.7695,2.6625,2.6141,2.6058,2.4872,2.4457,2.4296,2.3474,2.3637,2.4542,0.0,0.0,0.0,0.0,0.0,0.0,1.2751,1.3774,1.4844,1.5839,1.6186,1.7042,1.8827,1.9189,1.9268,1.9228,1.9268,1.9287,1.9287,1.9287,1.9287,1.9287,1.9248,1.9209,1.917,1.8281,1.7402,0.0,0.0,1.4376,1.3559,1.3119,1.3452,0.0,0.0,0.0,0.0,1.8009,1.8633,1.9315,1.9281,2.0038,2.1293,2.1345,2.2269,2.3458,2.3503,2.3514,2.3514,2.3745,2.4409,2.53,2.6233,2.6533,2.6533,2.6533,2.6533,2.6533,2.6533,2.6533,2.6533,2.6533,2.6533,2.6533,2.6533,2.6533,2.6533,2.6533,2.6533,2.6194,2.5086,2.5174,2.4797,0.0,0.0,0.0,0.0,0.0,0.0,0.0,0.0,0.0,0.0,0.0,0.0,0.0,0.0,0.0,1.9006,1.907,2.0169,2.2467,2.3509,2.4318,2.4971,2.7055,2.8109,2.8122,2.9252,2.9792,2.9792,2.9792,2.9275,2.8255,2.8255,2.7614,2.6554,2.5462,2.4957,2.4882,2.3714,2.3222,2.3222,2.3135,2.3135,2.3299,0.0,0.0,0.0,0.0,0.0,0.0,0.0,1.3704,1.4421,1.5747,1.6272,1.6698,1.7243,1.7799,1.8225,1.8685,1.8974,1.9421,2.0049,2.0059,2.0059,2.0059,1.9805,1.9668,1.9668,1.8818,1.7969,0.0,0.0,0.0,0.0,1.3739,1.4395,0.0,0.0,1.7184,1.8376,1.8449,1.8923,1.9668,1.9668,2.0137,2.0893,2.0893,2.1298,2.1745,2.1745,2.1745,2.1821,2.2403,2.3672,2.4933,2.4767,2.5134,2.5594,2.5594,2.5594,2.5734,2.6314,2.6094,2.5734,2.6383,2.6025,2.5734,2.6383,2.6533,2.6533,2.6533,2.6533,2.6395,2.5887,2.5159,2.4456,2.3904,0.0,0.0,0.0,0.0,0.0,0.0,0.0,0.0,0.0,0.0,0.0,0.0,0.0,0.0,1.7509,1.8168,0.0,2.066,0.0,2.3704,2.4173,2.6768,2.8109,2.8122,2.9252,2.9792,2.9792,2.9106,2.8187,2.7116,2.6449,2.587,2.5378,2.4211,2.38,2.3714,2.3299,2.3135,2.3135,2.3135,2.3135,2.3135,1.1872,0.0,1.2487,0.0,1.2966,1.3065,1.3612,1.3711,1.4119,1.5087,1.5635,1.6055,1.635,1.6941,1.7476,1.7926,1.8312,1.8789,1.9599,1.9599,1.9599,1.9599,1.931,0.0,1.9631,1.8619,1.7996,1.7939,1.6458,0.0,0.0,0.0,0.0,0.0,1.6967,1.7823,1.9049,1.896,1.9434,2.0107,2.0107,2.0293,2.0566,2.0566,2.0566,2.0566,2.0566,2.0654,2.0909,2.1501,2.3005,2.4351,2.3689,2.4066,2.4786,2.4786,2.5121,2.5589,2.6073,2.5966,2.5717,2.5992,2.5734,2.5523,2.5943,2.6314,2.6533,2.6533,2.6533,2.6533,2.6533,2.5372,2.4494,2.4569,0.0,0.0,0.0,0.0,0.0,0.0,0.0,1.799,0.0,0.0,0.0,0.0,0.0,0.0,1.718,1.7768,0.0,0.0,0.0,0.0,2.403,2.6698,2.8109,2.8122,2.8922,2.9275,2.9275,2.7763,2.6696,2.5975,2.4798,2.4296,2.4211,2.3474,2.3135,2.3135,2.3135,2.3135,2.3135,2.3135,2.3135,2.3135,1.1373,1.2426,1.3355,1.3951,1.4048,1.4041,1.4082,1.4088,1.4088,1.4088,1.4166,1.4977,1.7082,1.7253,1.7334,1.7334,1.7334,1.7342,1.7334,1.7334,1.7334,0.0,0.0,1.79,1.8957,1.7507,1.7585,1.9268,0.0,0.0,1.7334,0.0,1.6934,1.7373,1.7803,1.8467,1.9297,1.9727,2.0156,2.0557,2.0557,2.0557,2.0566,2.0566,2.0566,2.0566,2.0566,2.085,2.1221,2.123,2.2181,2.3303,2.3444,2.3862,2.4178,2.4178,2.5298,2.6368,2.576,2.6432,2.6918,2.5432,2.5734,2.6233,2.5229,2.5804,2.6533,2.6533,2.6533,2.6533,2.6533,2.5975,2.5234,2.418,0.0,0.0,0.0,0.0,0.0,0.0,1.8543,1.799,1.7438,0.0,0.0,0.0,0.0,0.0,1.892,0.0,0.0,2.1418,2.2274,0.0,2.4755,2.7005,2.8109,2.8109,2.8077,2.8096,2.8016,2.5859,2.4872,2.4787,2.3637,2.3135,2.3135,2.3144,2.3135,2.3135,2.3135,2.3135,2.3135,2.3135,2.3135,2.3135,1.2876,1.3579,1.3913,1.4112,1.4088,1.4088,1.4088,1.4088,1.4088,1.4088,1.4088,1.4334,1.5068,1.5144,1.5387,0.0,1.6191,1.6519,0.0,1.7342,1.7342,1.7342,1.7342,1.7504,1.7827,1.7379,1.7217,1.7534,0.0,0.0,0.0,1.5876,1.6599,1.8,1.8119,1.8929,2.0185,2.0635,2.0889,2.1045,2.1348,2.1465,2.1465,2.1465,2.1465,2.1465,2.1465,2.1553,2.168,2.168,2.1994,2.2371,2.2412,2.2939,2.3577,2.3577,2.3921,2.4558,2.5896,2.5371,2.4765,2.5415,2.5213,2.4912,2.5016,2.5804,2.6533,2.6533,2.6533,2.6533,2.6533,2.5699,2.4958,2.4619,2.3904,0.0,0.0,0.0,0.0,0.0,1.9083,1.8694,0.0,1.8342,0.0,0.0,0.0,0.0,0.0,0.0,0.0,0.0,2.1859,0.0,2.3478,2.5901,2.6868,2.6442,2.7514,2.7348,2.5859,2.5115,2.4382,2.3637,2.3222,2.3135,2.3135,2.3135,2.3135,2.3135,2.3135,2.3135,2.3135,2.3135,2.3135,2.3135,1.2486,1.3476,1.4088,1.4088,1.4088,1.4088,1.4088,1.4088,1.4088,1.4088,1.4088,1.4128,1.4242,1.4249,0.0,1.5068,1.5161,1.5562,1.6224,1.6347,1.6415,1.6415,1.6415,1.6576,1.6988,1.666,0.0,1.7229,1.6869,1.6403,1.585,1.6194,1.6988,1.8299,1.878,1.9485,2.0396,2.1186,2.1475,2.1504,2.1777,2.1885,2.1885,2.1885,2.1885,2.1885,2.1885,2.1992,2.2119,2.2119,2.2227,2.2353,2.2353,2.2745,2.3174,2.3012,2.3392,2.4129,2.525,2.4878,2.4259,2.4777,2.454,2.4367,2.4908,2.5804,2.6533,2.6533,2.6533,2.6533,2.6533,2.5561,2.482,2.482,2.3866,2.2749,2.1644,0.0,0.0,0.0,0.0,0.0,0.0,1.8754,1.8606,0.0,0.0,0.0,0.0,0.0,1.9332,1.9481,2.187,2.3224,2.3419,2.5511,2.6252,2.5641,2.6447,2.5942,2.4125,2.4125,2.38,2.3135,2.3135,2.3135,2.3135,2.3135,2.3135,2.3135,2.3135,2.3135,2.3135,2.3135,2.3135,2.3135,1.0611,1.2425,1.399,0.0,1.4088,1.4179,1.4179,1.4179,1.4186,1.4128,1.4128,1.4235,1.4522,1.4549,1.4442,1.4168,0.0,0.0,1.4549,1.481,1.4963,1.4963,1.4963,1.5479,1.6507,1.5479,1.6006,1.7983,1.7746,1.7243,1.6499,1.7227,1.7762,1.8156,1.9264,1.9773,1.9951,2.1294,2.1841,2.1841,2.1963,2.1973,2.1973,2.1973,2.1973,2.1973,2.1973,2.2217,2.2559,2.2559,2.2812,2.3135,2.3135,2.3135,2.3066,2.2676,2.3564,2.4618,2.4138,2.4734,2.5081,2.3731,2.3705,2.4292,2.4884,2.5758,2.6383,2.6465,2.6533,2.6533,2.6533,2.5561,2.482,2.482,2.3779,2.2711,2.1644,0.0,0.0,0.0,0.0,0.0,1.8726,1.843,1.8441,0.0,0.0,0.0,0.0,0.0,1.8733,2.1063,2.2268,2.3285,2.4147,2.5593,2.6089,2.5525,2.4997,2.4135,2.3135,2.3135,2.3135,2.3135,2.3135,2.3135,2.3135,2.3135,2.3135,2.3135,2.3135,2.3135,2.3135,2.3135,2.3135,2.3135,0.0,0.0,1.2849,1.3043,1.3802,1.4473,1.4754,1.4761,1.4774,1.4783,1.4824,1.4811,1.4836,1.4863,1.483,1.4763,1.4823,1.4863,1.4863,1.4923,1.4963,1.4963,1.4963,1.5136,1.5397,1.5136,1.5225,1.5747,1.5669,1.5588,1.539,1.5581,1.6096,1.7026,1.728,1.7889,1.869,2.0282,2.1019,2.1047,2.2351,2.2842,2.2842,2.2842,2.2842,2.2842,2.2842,2.291,2.2988,2.2988,2.3057,2.3135,2.3135,2.3135,2.3125,2.3018,2.3231,2.3694,2.4418,2.4142,2.3699,2.3898,2.3488,2.3471,2.5086,2.5433,2.5581,2.6314,2.6533,2.6533,2.6533,2.5561,2.482,2.482,2.3527,2.2272,2.1581,2.1493,0.0,0.0,2.0387,2.0181,1.9838,1.9841,1.9537,0.0,0.0,0.0,1.8858,1.8891,1.9342,2.0322,2.1923,2.2977,2.3472,2.4352,2.4837,2.4955,2.3998,2.3387,2.3135,2.3135,2.3135,2.3135,2.3135,2.3135,2.3135,2.3135,2.3135,2.3135,2.3135,2.3135,2.3135,2.3135,2.3135,2.3135,0.9662,1.0758,1.1838,1.2681,1.3355,1.4078,1.4883,1.4986,1.4963,1.4969,1.5044,1.5046,1.5163,1.5181,1.5217,1.5344,1.5237,1.5164,1.5164,1.5284,1.5357,1.5357,1.5357,1.5357,1.5357,1.5357,1.5357,1.5357,1.5224,1.5231,1.5357,1.5224,1.5581,1.6239,1.6875,1.7409,1.8045,1.9563,2.0448,2.1083,2.1938,2.2589,2.3135,2.3135,2.3135,2.3135,2.3135,2.3135,2.3135,2.3135,2.3135,2.3135,2.3135,2.3135,2.3135,2.3135,2.3135,2.3222,2.3887,2.3551,2.3114,2.3342,2.335,2.3546,2.4327,2.4585,2.4915,2.5863,2.5598,2.5288,2.5734,2.4558,2.3484,2.3257,2.2288,2.1416,2.1072,2.087,2.0828,2.1128,2.0526,2.018,2.0359,2.0081,1.964,1.9007,1.9366,0.0,1.9123,1.9614,2.0054,2.0307,2.1883,2.2749,2.2929,2.3469,2.3815,2.4049,2.3387,2.3135,2.3135,2.3135,2.3135,2.3135,2.3135,2.3135,2.3135,2.3135,2.3135,2.3135,2.3135,2.3135,2.3135,2.3135,2.3135,2.3135,0.8664,0.9643,1.0958,1.2152,1.274,1.3501,1.4659,1.4981,1.5089,1.5089,1.5126,1.5179,1.5422,1.5423,1.5565,1.5805,1.5605,1.5464,1.5464,1.5691,1.5832,1.5832,1.5832,1.5832,1.5832,1.5832,1.5832,1.5832,1.5585,1.5585,1.5825,1.5578,1.5591,1.5825,1.6943,1.7412,1.7498,1.868,1.9852,2.0755,2.0935,2.1667,2.2589,2.2589,2.2677,2.2862,2.2862,2.296,2.3135,2.3135,2.3135,2.3135,2.3135,2.3135,2.3135,2.3135,2.3135,2.3135,2.3135,2.3135,2.3057,2.2695,2.3217,2.3712,2.345,2.3781,2.4355,2.5187,2.4448,2.3835,2.4647,2.3282,2.1879,2.1475,2.0848,2.0404,2.0205,0.0,2.0308,2.1358,2.0249,1.975,2.0529,1.9907,1.9385,1.9385,1.9717,1.9785,1.9492,2.0234,2.0693,2.0762,2.1954,2.2585,2.2598,2.2959,2.3135,2.3135,2.3135,2.3135,2.3135,2.3135,2.3135,2.3135,2.3135,2.3135,2.3135,2.3135,2.3135,2.3135,2.3135,2.3135,2.3135,2.3135,2.3135,2.3135,0.758,0.8576,0.9583,1.0163,1.1932,1.3507,1.4028,1.4981,1.5717,1.5717,1.5677,1.5725,1.5705,1.5738,1.5778,1.5825,1.5792,1.5758,1.5758,1.5805,1.5832,1.5832,1.5832,1.5832,1.5832,1.5832,1.5832,1.5832,1.5785,1.5785,1.5832,1.5785,1.5785,1.5832,1.6015,1.6109,1.6204,1.7404,1.8048,1.8326,1.9405,1.9852,2.0042,2.0042,2.0666,2.1569,2.1569,2.2217,2.3135,2.3135,2.3135,2.3135,2.3135,2.3135,2.3135,2.3135,2.3135,2.3135,2.3135,2.3135,2.3125,2.3057,2.2859,2.2904,2.3722,2.3654,2.3667,2.4267,2.4198,2.4018,2.3751,2.2778,2.1879,2.1475,2.0546,1.9689,1.9369,0.0,2.0362,2.0568,2.079,2.0792,2.0623,2.0106,1.9814,1.9814,1.9883,2.0049,2.0352,2.085,2.1299,2.167,2.1902,2.2345,2.3027,2.3105,2.3135,2.3135,2.3135,2.3135,2.3135,2.3135,2.3135,2.3135,2.3135,2.3135,2.3135,2.3135,2.3135,2.3135,2.3135,2.3135,2.3135,2.3135,2.3135,2.3135,0.7248,0.7869,0.8448,0.8599,0.9609,1.1168,1.3233,1.3613,1.3927,1.4665,1.4766,1.5082,1.5724,1.5832,1.5832,1.5832,1.5832,1.5832,1.5832,1.5832,1.5832,1.5832,1.5832,1.5832,1.5832,1.5832,1.5832,1.5832,1.5832,1.5832,1.5832,1.5832,1.5832,1.5832,1.5832,1.5832,1.5825,1.6386,1.7037,1.7785,1.8326,1.8956,1.9497,1.9497,1.9852,2.0395,2.1025,2.1658,2.2217,2.2862,2.3135,2.3135,2.3135,2.3135,2.3135,2.3135,2.3135,2.3135,2.3135,2.3135,2.3135,2.3135,2.2988,2.2928,2.3433,2.3167,2.3104,2.3929,2.3256,2.2688,2.2982,2.1871,2.074,2.0362,1.9646,1.9201,1.9501,1.9449,1.9776,2.0743,2.0597,2.0501,2.0616,2.0365,2.0264,2.0264,2.0264,2.0352,2.0557,2.0986,2.1435,2.1875,2.2324,2.2744,2.3135,2.3135,2.3135,2.3135,2.3135,2.3135,2.3135,2.3135,2.3135,2.3135,2.3135,2.3135,2.3135,2.3135,2.3135,2.3135,2.3135,2.3135,2.3135,2.3135,2.3135,2.3135,0.7285,0.7455,0.7643,0.7664,0.7832,0.8898,1.1621,1.1788,1.1996,1.3245,1.3448,1.3849,1.4758,1.4873,1.4873,1.486,1.486,1.486,1.486,1.5146,1.5534,1.5825,1.5832,1.5832,1.5832,1.5832,1.5832,1.5832,1.5832,1.5832,1.5832,1.5832,1.5832,1.5832,1.5832,1.5832,1.5832,1.5832,1.6386,1.7225,1.7225,1.777,1.8672,1.8672,1.8856,1.9222,2.0124,2.0845,2.148,2.2394,2.2862,2.3135,2.3135,2.3135,2.3135,2.3135,2.3135,2.3135,2.3135,2.3135,2.3135,2.3135,2.3135,2.3135,2.3135,2.2891,2.2788,2.3512,2.2551,2.1727,2.2388,2.1168,1.9922,1.9502,0.0,1.8952,1.952,1.9213,1.9387,2.0759,2.0432,2.0195,2.0537,2.0566,2.0566,2.0566,2.0566,2.0605,2.0713,2.1143,2.1631,2.2158,2.2803,2.3135,2.3135,2.3135,2.3135,2.3135,2.3135,2.3135,2.3135,2.3135,2.3135,2.3135,2.3135,2.3135,2.3135,2.3135,2.3135,2.3135,2.3135,2.3135,2.3135,2.3135,2.3135,2.3135,0.7624,0.7645,0.7678,0.7929,0.8011,0.8137,0.8322,0.9661,1.1015,1.1964,1.2068,1.2112,1.216,1.2186,1.2191,1.2145,1.2237,1.2237,1.2237,1.3397,1.4555,1.573,1.5832,1.5832,1.5832,1.5832,1.5832,1.5832,1.5832,1.5832,1.5832,1.5832,1.5832,1.5832,1.5832,1.5832,1.5832,1.5832,1.5825,1.592,1.592,1.6015,1.6103,1.6103,1.685,1.787,1.7956,1.9405,2.1293,2.1382,2.2217,2.3135,2.3135,2.3135,2.3135,2.3135,2.3135,2.3135,2.3135,2.3135,2.3135,2.3135,2.3135,2.3135,2.3135,2.3115,2.2978,2.2673,2.2461,2.2295,2.1987,2.1193,2.0381,1.9941,0.0,0.0,1.8762,1.9316,1.9844,1.9977,2.035,2.0527,2.0634,2.0566,2.0566,2.0566,2.0566,2.0752,2.1162,2.1602,2.2207,2.3018,2.3105,2.3135,2.3135,2.3135,2.3135,2.3135,2.3135,2.3135,2.3135,2.3135,2.3135,2.3135,2.3135,2.3135,2.3135,2.3135,2.3135,2.3135,2.3135,2.3135,2.3135,2.3135,2.3135,2.3135,0.7621,0.7773,0.7906,0.8021,0.8038,0.8038,0.8038,0.8556,0.9383,1.0531,1.0735,1.0992,1.1765,1.186,1.19,1.1903,1.1868,1.1945,1.1945,1.2334,1.359,1.573,1.5832,1.5832,1.5832,1.5832,1.5832,1.5832,1.5832,1.5832,1.5832,1.5832,1.5832,1.5832,1.5832,1.5832,1.5832,1.5832,1.5832,1.5832,1.5832,1.5832,1.5832,1.5832,1.6109,1.6669,1.7412,1.8326,1.9314,2.0845,2.1569,2.212,2.2862,2.3135,2.3135,2.3135,2.3135,2.3135,2.3135,2.3135,2.3135,2.3135,2.3135,2.3135,2.3135,2.3135,2.3096,2.293,2.2695,2.2461,2.2305,2.1787,2.124,2.0801,0.0,2.0019,1.9863,1.9883,2.0019,2.0283,2.0469,2.0566,2.0566,2.0566,2.0566,2.0566,2.082,2.1055,2.1221,2.1894,2.2539,2.3125,2.3135,2.3135,2.3135,2.3135,2.3135,2.3135,2.3135,2.3135,2.3135,2.3135,2.3135,2.3135,2.3135,2.3135,2.3135,2.3135,2.3135,2.3135,2.3135,2.3135,2.3135,2.3135,2.3135,2.3135,0.7726,0.7899,0.8038,0.8038,0.8038,0.8038,0.8038,0.8038,0.8347,0.9275,0.9383,0.9657,1.0587,1.0672,1.0703,1.0632,1.0699,1.0681,1.0681,1.1072,1.2431,1.5051,1.5635,1.5832,1.5832,1.5832,1.5832,1.5832,1.5832,1.5832,1.5832,1.5832,1.5832,1.5832,1.5832,1.5832,1.5832,1.5832,1.5832,1.5832,1.5832,1.5832,1.5832,1.5832,1.5832,1.592,1.6756,1.7318,1.8048,2.0034,2.1025,2.148,2.2677,2.3135,2.3135,2.3135,2.3135,2.3135,2.3135,2.3135,2.3135,2.3135,2.3135,2.3135,2.3135,2.3135,2.3135,2.3135,2.291,2.2715,2.2715,2.2363,2.1982,2.168,2.1269,2.0977,2.0977,2.0723,2.0596,2.0752,2.0898,2.0928,2.0791,2.0898,2.0977,2.0977,2.126,2.1494,2.1631,2.2314,2.2842,2.3125,2.3135,2.3135,2.3135,2.3135,2.3135,2.3135,2.3135,2.3135,2.3135,2.3135,2.3135,2.3135,2.3135,2.3135,2.3135,2.3135,2.3135,2.3135,2.3135,2.3135,2.3135,2.3135,2.3135,2.3135,0.7902,0.8038,0.8038,0.8038,0.8038,0.8038,0.8038,0.8038,0.8038,0.8038,0.8038,0.8038,0.8038,0.8038,0.8038,0.8038,0.8038,0.8038,0.8038,0.9217,1.1161,1.3776,1.514,1.5825,1.5825,1.5825,1.5832,1.5832,1.5832,1.5832,1.5832,1.5832,1.5832,1.5832,1.5832,1.5832,1.5832,1.5832,1.5832,1.5832,1.5832,1.5832,1.5832,1.5832,1.5832,1.5832,1.5832,1.6574,1.787,1.9039,2.0305,2.148,2.2677,2.3047,2.3047,2.3047,2.3047,2.3057,2.3057,2.3047,2.3135,2.3135,2.3135,2.3135,2.3135,2.3135,2.3135,2.3135,2.3135,2.3135,2.3135,2.2793,2.2519,2.251,2.2168,2.1894,2.1885,2.1885,2.1728,2.1289,2.1621,2.1719,2.1279,2.1631,2.1885,2.1885,2.1894,2.207,2.249,2.291,2.3135,2.3135,2.3135,2.3135,2.3135,2.3135,2.3135,2.3135,2.3135,2.3135,2.3135,2.3135,2.3135,2.3135,2.3135,2.3135,2.3135,2.3135,2.3135,2.3135,2.3135,2.3135,2.3135,2.3135,2.3135,2.3135,0.7912,0.8038,0.8038,0.8038,0.8038,0.8038,0.8038,0.8038,0.8038,0.8038,0.8038,0.8038,0.8038,0.8038,0.8038,0.8038,0.8038,0.8038,0.8038,0.9217,1.0386,1.1161,1.3295,1.4459,1.4459,1.5337,1.5832,1.5832,1.5832,1.5832,1.5832,1.5832,1.5832,1.5832,1.5832,1.5832,1.5832,1.5832,1.5832,1.5832,1.5832,1.5832,1.5832,1.5832,1.5832,1.5832,1.5832,1.6015,1.6574,1.777,1.8503,1.8956,2.0223,2.0584,2.0584,2.0584,2.1212,2.1845,2.1845,2.2492,2.3135,2.3135,2.3135,2.3135,2.3135,2.3135,2.3135,2.3135,2.3135,2.3135,2.3135,2.3037,2.2852,2.2559,2.2412,2.2217,2.1924,2.1885,2.1836,2.1709,2.1807,2.1836,2.1699,2.1807,2.1885,2.1885,2.2158,2.251,2.293,2.3066,2.3135,2.3135,2.3135,2.3135,2.3135,2.3135,2.3135,2.3135,2.3135,2.3135,2.3135,2.3135,2.3135,2.3135,2.3135,2.3135,2.3135,2.3135,2.3135,2.3135,2.3135,2.3135,2.3135,2.3135,2.3135,2.3135,0.6213,0.7238,0.8048,0.8041,0.8038,0.8038,0.8038,0.8038,0.8038,0.8038,0.8038,0.8038,0.8038,0.8038,0.8038,0.8038,0.8038,0.8038,0.8038,0.8726,0.9217,0.9217,1.1258,1.2614,1.3102,1.4364,1.5045,1.5045,1.5534,1.5832,1.5832,1.5832,1.5832,1.5832,1.5832,1.5832,1.5832,1.5832,1.5832,1.5832,1.5832,1.5832,1.5832,1.5832,1.5832,1.5832,1.5832,1.5832,1.6015,1.7225,1.8048,1.8503,1.9314,1.9497,1.9497,1.9497,2.0034,2.0657,2.1203,2.1845,2.2492,2.296,2.3135,2.3135,2.3135,2.3135,2.3135,2.3135,2.3135,2.3135,2.3135,2.3135,2.3057,2.2803,2.2764,2.2676,2.2412,2.2383,2.2324,2.2158,2.2275,2.2314,2.2148,2.2285,2.2383,2.2383,2.2617,2.2871,2.3125,2.3135,2.3135,2.3135,2.3135,2.3135,2.3135,2.3135,2.3135,2.3135,2.3135,2.3135,2.3135,2.3135,2.3135,2.3135,2.3135,2.3135,2.3135,2.3135,2.3135,2.3135,2.3135,2.3135,2.3135,2.3135,2.3135,2.3135,0.3213,0.5632,0.7456,0.7942,0.8041,0.8041,0.8038,0.8038,0.8038,0.8038,0.8038,0.8038,0.8038,0.8038,0.8038,0.8038,0.8038,0.8038,0.8038,0.8038,0.8038,0.8038,0.9217,1.0386,1.156,1.3102,1.3878,1.3878,1.5146,1.5832,1.5832,1.5832,1.5832,1.5832,1.5832,1.5832,1.5832,1.5832,1.5832,1.5832,1.5832,1.5832,1.5832,1.5832,1.5832,1.5832,1.5832,1.5832,1.6015,1.7131,1.8226,1.9123,1.9123,1.9123,1.9123,1.9123,1.9222,1.9579,2.0666,2.1025,2.1391,2.2677,2.295,2.296,2.3047,2.3135,2.3135,2.3135,2.3135,2.3135,2.3135,2.3135,2.3135,2.3135,2.3135,2.3135,2.3135,2.3135,2.2998,2.2617,2.291,2.2988,2.2607,2.291,2.3135,2.3135,2.3135,2.3135,2.3135,2.3135,2.3135,2.3135,2.3135,2.3135,2.3135,2.3135,2.3135,2.3135,2.3135,2.3135,2.3135,2.3135,2.3135,2.3135,2.3135,2.3135,2.3135,2.3135,2.3135,2.3135,2.3135,2.3135,2.3135,2.3135,2.3135,2.3135,0.0704,0.1306,0.3011,0.7232,0.7955,0.7959,0.8041,0.8038,0.8038,0.8038,0.8038,0.8038,0.8038,0.8038,0.8038,0.8038,0.8038,0.8038,0.8038,0.8038,0.8038,0.8038,0.8233,0.8528,0.8821,1.2129,1.3878,1.3878,1.5146,1.5832,1.5832,1.5832,1.5832,1.5832,1.5832,1.5832,1.5832,1.5832,1.5832,1.5832,1.5832,1.5832,1.5832,1.5832,1.5832,1.5832,1.5832,1.5832,1.5825,1.6109,1.6386,1.656,1.656,1.656,1.656,1.656,1.7304,1.8141,1.8411,1.9131,2.0215,2.1391,2.1667,2.1943,2.2862,2.3135,2.3135,2.3135,2.3135,2.3135,2.3135,2.3135,2.3135,2.3135,2.3135,2.3135,2.3135,2.3135,2.3105,2.3018,2.3086,2.3105,2.3018,2.3086,2.3135,2.3135,2.3135,2.3135,2.3135,2.3135,2.3135,2.3135,2.3135,2.3135,2.3135,2.3135,2.3135,2.3135,2.3135,2.3135,2.3135,2.3135,2.3135,2.3135,2.3135,2.3135,2.3135,2.3135,2.3135,2.3135,2.3135,2.3135,2.3135,2.3135,2.3135,2.3135,-0.0,-0.0,0.0904,0.371,0.6339,0.7972,0.8045,0.8038,0.8038,0.8038,0.8038,0.8038,0.8038,0.8038,0.8038,0.8038,0.8038,0.8038,0.8038,0.8038,0.8038,0.8038,0.8038,0.8038,0.8038,1.0672,1.2328,1.2915,1.4268,1.5242,1.5832,1.5832,1.5832,1.5832,1.5832,1.5832,1.5832,1.5832,1.5832,1.5832,1.5832,1.5832,1.5832,1.5832,1.5832,1.5832,1.5832,1.5832,1.5832,1.5832,1.5832,1.5832,1.5832,1.5832,1.5832,1.5832,1.6292,1.6951,1.7505,1.8141,1.8948,2.0124,2.0486,2.0935,2.2677,2.3135,2.3135,2.3135,2.3135,2.3135,2.3135,2.3135,2.3135,2.3135,2.3135,2.3135,2.3135,2.3135,2.3135,2.3135,2.3135,2.3135,2.3135,2.3135,2.3135,2.3135,2.3135,2.3135,2.3135,2.3135,2.3135,2.3135,2.3135,2.3135,2.3135,2.3135,2.3135,2.3135,2.3135,2.3135,2.3135,2.3135,2.3135,2.3135,2.3135,2.3135,2.3135,2.3135,2.3135,2.3135,2.3135,2.3135,2.3135,2.3135,2.3135,2.3135,-0.0,-0.0,-0.0,-0.0,0.3723,0.6759,0.7235,0.7338,0.7441,0.7939,0.8038,0.8038,0.8038,0.8038,0.8038,0.8038,0.8038,0.8038,0.8038,0.8038,0.8038,0.8038,0.8038,0.8038,0.8038,0.9118,1.0386,1.1945,1.3199,1.4561,1.5832,1.5832,1.5832,1.5832,1.5832,1.5832,1.5832,1.5832,1.5832,1.5832,1.5832,1.5832,1.5832,1.5832,1.5832,1.5832,1.5832,1.5832,1.5832,1.5832,1.5832,1.5832,1.5832,1.5832,1.5832,1.5832,1.5832,1.6015,1.7131,1.7412,1.7684,1.8864,1.9222,1.977,2.1952,2.2677,2.2775,2.2775,2.296,2.3135,2.3135,2.3135,2.3135,2.3135,2.3135,2.3135,2.3135,2.3135,2.3135,2.3135,2.3135,2.3135,2.3135,2.3135,2.3135,2.3135,2.3135,2.3135,2.3135,2.3135,2.3135,2.3135,2.3135,2.3135,2.3135,2.3135,2.3135,2.3135,2.3135,2.3135,2.3135,2.3135,2.3135,2.3135,2.3135,2.3135,2.3135,2.3135,2.3135,2.3135,2.3135,2.3135,2.3135,2.3135,2.3135,2.3135,-0.0,-0.0,-0.0,-0.0,0.0605,0.1813,0.4218,0.4537,0.5349,0.7739,0.8038,0.8038,0.8038,0.8038,0.8038,0.8038,0.8038,0.8038,0.8038,0.8038,0.8038,0.8038,0.8038,0.8038,0.8038,0.8137,0.9509,1.1945,1.3199,1.4561,1.5832,1.5832,1.5832,1.5832,1.5832,1.5832,1.5832,1.5832,1.5832,1.5832,1.5832,1.5832,1.5832,1.5832,1.5832,1.5832,1.5832,1.5832,1.5832,1.5832,1.5832,1.5832,1.5832,1.5832,1.5832,1.5832,1.5832,1.5825,1.6015,1.6015,1.6386,1.7591,1.7963,1.8319,1.9679,2.0755,2.1569,2.1569,2.2394,2.3135,2.3135,2.3135,2.3135,2.3135,2.3135,2.3135,2.3135,2.3135,2.3135,2.3135,2.3135,2.3135,2.3135,2.3135,2.3135,2.3135,2.3135,2.3135,2.3135,2.3135,2.3135,2.3135,2.3135,2.3135,2.3135,2.3135,2.3135,2.3135,2.3135,2.3135,2.3135,2.3135,2.3135,2.3135,2.3135,2.3135,2.3135,2.3135,2.3135,2.3135,2.3135,2.3135,2.3135,2.3135,2.3135,2.3135,-0.0,-0.0,-0.0,-0.0,-0.0,0.0404,0.1611,0.1816,0.3233,0.7494,0.7965,0.8038,0.8038,0.8038,0.8038,0.8038,0.8038,0.8038,0.8038,0.8038,0.8038,0.8038,0.8038,0.8038,0.8038,0.8038,0.892,1.0877,1.2134,1.3494,1.4752,1.5439,1.5832,1.5832,1.5832,1.5832,1.5832,1.5832,1.5832,1.5832,1.5832,1.5832,1.5832,1.5832,1.5832,1.5832,1.5832,1.5832,1.5832,1.5832,1.5832,1.5832,1.5832,1.5832,1.5832,1.5832,1.5832,1.5832,1.5832,1.5832,1.592,1.648,1.6669,1.6756,1.7296,1.8395,1.967,2.1025,2.2217,2.3135,2.3135,2.3135,2.3135,2.3135,2.3135,2.3135,2.3135,2.3135,2.3135,2.3135,2.3135,2.3135,2.3135,2.3135,2.3135,2.3135,2.3135,2.3135,2.3135,2.3135,2.3135,2.3135,2.3135,2.3135,2.3135,2.3135,2.3135,2.3135,2.3135,2.3135,2.3135,2.3135,2.3135,2.3135,2.3135,2.3135,2.3135,2.3135,2.3135,2.3135,2.3135,2.3135,2.3047,2.2306,2.212,2.2031]},{"header":{"parameterUnit":"m.s-1","parameterCategory":1,"la1":30.6,"la2":28.766,"lo1":-90.7593,"lo2":-88.6598,"dy":0.0162,"dx":0.0183,"nx":116,"ny":114,"refTime":"2024-06-03T06:00:00:Z","depth":0,"parameterNumber":3,"parameterNumberName":"V-component_of_WINDS"},"data":[0.0,0.0,0.0,0.0,0.0,0.0,0.0,0.0,0.0,0.0,0.0,0.0,0.0,0.0,0.0,0.0,0.0,0.0,0.0,0.0,0.0,0.0,0.0,0.0,0.0,0.0,0.0,0.0,0.0,0.0,0.0,0.0,0.0,0.0,0.0,0.0,0.0,0.0,0.0,0.0,0.0,0.0,0.0,0.0,0.0,0.0,0.0,0.0,0.0,0.0,0.0,0.0,0.0,0.0,0.0,0.0,0.0,0.0,0.0,0.0,0.0,0.0,0.0,0.0,0.0,0.0,0.0,0.0,0.0,0.0,0.0,0.0,0.0,0.0,0.0,0.0,0.0,0.0,0.0,0.0,0.0,0.0,0.0,0.0,0.0,0.0,0.0,0.0,0.0,0.0,0.0,0.0,0.0,0.0,0.0,0.0,0.0,0.0,0.0,0.0,0.0,0.0,0.0,0.0,0.0,0.0,0.0,0.0,0.0,0.0,0.0,0.0,0.0,0.0,0.0,0.0,0.0,0.0,0.0,0.0,0.0,0.0,0.0,0.0,0.0,0.0,0.0,0.0,0.0,0.0,0.0,0.0,0.0,0.0,0.0,0.0,0.0,0.0,0.0,0.0,0.0,0.0,0.0,0.0,0.0,0.0,0.0,0.0,0.0,0.0,0.0,0.0,0.0,0.0,0.0,0.0,0.0,0.0,0.0,0.0,0.0,0.0,0.0,0.0,0.0,0.0,0.0,0.0,0.0,0.0,0.0,0.0,0.0,0.0,0.0,0.0,0.0,0.0,0.0,0.0,0.0,0.0,0.0,0.0,0.0,0.0,0.0,0.0,0.0,0.0,0.0,0.0,0.0,0.0,0.0,0.0,0.0,0.0,0.0,0.0,0.0,0.0,0.0,0.0,0.0,0.0,0.0,0.0,0.0,0.0,0.0,0.0,0.0,0.0,0.0,0.0,0.0,0.0,0.0,0.0,0.0,0.0,0.0,0.0,0.0,0.0,0.0,0.0,0.0,0.0,0.0,0.0,0.0,0.0,0.0,0.0,0.0,0.0,0.0,0.0,0.0,0.0,0.0,0.0,0.0,0.0,0.0,0.0,0.0,0.0,0.0,0.0,0.0,0.0,0.0,0.0,0.0,0.0,0.0,0.0,0.0,0.0,0.0,0.0,0.0,0.0,0.0,0.0,0.0,0.0,0.0,0.0,0.0,0.0,0.0,0.0,0.0,0.0,0.0,0.0,0.0,0.0,0.0,0.0,0.0,0.0,0.0,0.0,0.0,0.0,0.0,0.0,0.0,0.0,0.0,0.0,0.0,0.0,0.0,0.0,0.0,0.0,0.0,0.0,0.0,0.0,0.0,0.0,0.0,0.0,0.0,0.0,0.0,0.0,0.0,0.0,0.0,0.0,0.0,0.0,0.0,0.0,0.0,0.0,0.0,0.0,0.0,0.0,0.0,0.0,0.0,0.0,0.0,0.0,0.0,0.0,0.0,0.0,0.0,0.0,0.0,0.0,0.0,0.0,0.0,0.0,0.0,0.0,0.0,0.0,0.0,0.0,0.0,0.0,0.0,0.0,0.0,0.0,0.0,0.0,0.0,0.0,0.0,0.0,0.0,0.0,0.0,0.0,0.0,0.0,0.0,0.0,0.0,0.0,0.0,0.0,0.0,0.0,0.0,0.0,0.0,0.0,0.0,0.0,0.0,0.0,0.0,0.0,0.0,0.0,0.0,0.0,0.0,0.0,0.0,0.0,0.0,0.0,0.0,0.0,0.0,0.0,0.0,0.0,0.0,0.0,0.0,0.0,0.0,0.0,0.0,0.0,0.0,0.0,0.0,0.0,0.0,0.0,0.0,0.0,0.0,0.0,0.0,0.0,0.0,0.0,0.0,0.0,0.0,0.0,0.0,0.0,0.0,0.0,0.0,0.0,0.0,0.0,0.0,0.0,0.0,0.0,0.0,0.0,0.0,0.0,0.0,0.0,0.0,0.0,0.0,0.0,0.0,0.0,0.0,0.0,0.0,0.0,0.0,0.0,0.0,0.0,0.0,0.0,0.0,0.0,0.0,0.0,0.0,0.0,0.0,0.0,0.0,0.0,0.0,0.0,0.0,0.0,0.0,0.0,0.0,0.0,0.0,0.0,0.0,0.0,0.0,0.0,0.0,0.0,0.0,0.0,0.0,0.0,0.0,0.0,0.0,0.0,0.0,0.0,0.0,0.0,0.0,0.0,0.0,0.0,0.0,0.0,0.0,0.0,0.0,0.0,0.0,0.0,0.0,0.0,0.0,0.0,0.0,0.0,0.0,0.0,0.0,0.0,0.0,0.0,0.0,0.0,0.0,0.0,0.0,0.0,0.0,0.0,0.0,0.0,0.0,0.0,0.0,0.0,0.0,0.0,0.0,0.0,0.0,0.0,0.0,0.0,0.0,0.0,0.0,0.0,0.0,0.0,0.0,0.0,0.0,0.0,0.0,0.0,0.0,0.0,0.0,0.0,0.0,0.0,0.0,0.0,0.0,0.0,0.0,0.0,0.0,0.0,0.0,0.0,0.0,0.0,0.0,0.0,0.0,0.0,0.0,0.0,0.0,0.0,0.0,0.0,0.0,0.0,0.0,0.0,0.0,0.0,0.0,0.0,0.0,0.0,0.0,0.0,0.0,0.0,0.0,0.0,0.0,0.0,0.0,0.0,0.0,0.0,0.0,0.0,0.0,0.0,0.0,0.0,0.0,0.0,0.0,0.0,0.0,0.0,0.0,0.0,0.0,0.0,0.0,0.0,0.0,0.0,0.0,0.0,0.0,0.0,0.0,0.0,0.0,0.0,0.0,0.0,0.0,0.0,0.0,0.0,0.0,0.0,0.0,0.0,0.0,0.0,0.0,0.0,0.0,0.0,0.0,0.0,0.0,0.0,0.0,0.0,0.0,0.0,0.0,0.0,0.0,0.0,0.0,0.0,0.0,0.0,0.0,0.0,0.0,0.0,0.0,0.0,0.0,0.0,0.0,0.0,0.0,0.0,0.0,0.0,0.0,0.0,0.0,0.0,0.0,0.0,0.0,0.0,0.0,0.0,0.0,0.0,0.0,0.0,0.0,0.0,0.0,0.0,0.0,0.0,0.0,0.0,0.0,0.0,0.0,0.0,0.0,0.0,0.0,0.0,0.0,0.0,0.0,0.0,0.0,0.0,0.0,0.0,0.0,0.0,0.0,0.0,0.0,0.0,0.0,0.0,0.0,0.0,0.0,0.0,0.0,0.0,0.0,0.0,0.0,0.0,0.0,0.0,0.0,0.0,0.0,0.0,0.0,0.0,0.0,0.0,0.0,0.0,0.0,0.0,0.0,0.0,0.0,0.0,0.0,0.0,0.0,0.0,0.0,0.0,0.0,0.0,0.0,0.0,0.0,0.0,0.0,0.0,0.0,0.0,0.0,0.0,0.0,0.0,0.0,0.0,0.0,0.0,0.0,0.0,0.0,0.0,0.0,0.0,0.0,0.0,0.0,0.0,0.0,0.0,0.0,0.0,0.0,0.0,0.0,0.0,0.0,0.0,0.0,0.0,0.0,0.0,0.0,0.0,0.0,0.0,0.0,0.0,0.0,0.0,0.0,0.0,0.0,0.0,0.0,0.0,0.0,0.0,0.0,0.0,0.0,0.0,0.0,0.0,0.0,0.0,0.0,0.0,0.0,0.0,0.0,0.0,0.0,0.0,0.0,0.0,0.0,0.0,0.0,0.0,0.0,0.0,0.0,0.0,0.0,0.0,0.0,0.0,0.0,0.0,0.0,0.0,0.0,0.0,0.0,0.0,0.0,0.0,0.0,0.0,0.0,0.0,0.0,0.0,0.0,0.0,0.0,0.0,0.0,0.0,0.0,0.0,0.0,0.0,0.0,0.0,0.0,0.0,0.0,0.0,0.0,0.0,0.0,0.0,0.0,0.0,0.0,0.0,0.0,0.0,0.0,0.0,0.0,0.0,0.0,0.0,0.0,0.0,0.0,0.0,0.0,0.0,0.0,0.0,0.0,0.0,0.0,0.0,0.0,0.0,0.0,0.0,0.0,0.0,0.0,0.0,0.0,0.0,0.0,0.0,0.0,0.0,0.0,0.0,0.0,0.0,0.0,0.0,0.0,0.0,0.0,0.0,0.0,0.0,0.0,0.0,0.0,0.0,0.0,0.0,0.0,0.0,0.0,0.0,0.0,0.0,0.0,0.0,0.0,0.0,0.0,0.0,0.0,0.0,0.0,0.0,0.0,0.0,0.0,0.0,0.0,0.0,0.0,0.0,0.0,0.0,0.0,0.0,0.0,0.0,0.0,0.0,0.0,0.0,0.0,0.0,0.0,0.0,0.0,0.0,0.0,0.0,0.0,0.0,0.0,0.0,0.0,0.0,0.0,0.0,0.0,0.0,0.0,0.0,0.0,0.0,0.0,0.0,0.0,0.0,0.0,0.0,0.0,0.0,0.0,0.0,0.0,0.0,0.0,0.0,0.0,0.0,0.0,0.0,0.0,0.0,0.0,0.0,0.0,0.0,0.0,0.0,0.0,0.0,0.0,0.0,0.0,0.0,0.0,0.0,0.0,0.0,0.0,0.0,0.0,0.0,0.0,0.0,0.0,0.0,0.0,0.0,0.0,0.0,0.0,0.0,0.0,0.0,0.0,0.0,0.0,0.0,0.0,0.0,0.0,0.0,0.0,0.0,0.0,0.0,0.0,0.0,0.0,0.0,0.0,0.0,0.0,0.0,0.0,0.0,0.0,0.0,0.0,0.0,0.0,0.0,0.0,0.0,0.0,0.0,0.0,0.0,0.0,0.0,0.0,0.0,0.0,0.0,0.0,0.0,0.0,0.0,0.0,0.0,0.0,0.0,0.0,0.0,0.0,0.0,0.0,0.0,0.0,0.0,0.0,0.0,0.0,0.0,0.0,0.0,0.0,0.0,0.0,0.0,0.0,0.0,0.0,0.0,0.0,0.0,0.0,0.0,0.0,0.0,0.0,0.0,0.0,0.0,0.0,0.0,0.0,0.0,0.0,0.0,0.0,0.0,0.0,0.0,0.0,0.0,0.0,0.0,0.0,0.0,0.0,0.0,0.0,0.0,0.0,0.0,0.0,0.0,0.0,0.0,0.0,0.0,0.0,0.0,0.0,0.0,0.0,0.0,0.0,0.0,0.0,0.0,0.0,0.0,0.0,0.0,0.0,0.0,0.0,0.0,0.0,0.0,0.0,0.0,0.0,0.0,0.0,0.0,0.0,0.0,0.0,0.0,0.0,0.0,0.0,0.0,0.0,0.0,0.0,0.0,0.0,0.0,0.0,0.0,0.0,0.0,0.0,0.0,0.0,0.0,0.0,0.0,0.0,0.0,0.0,0.0,0.0,0.0,0.0,0.0,0.0,0.0,0.0,0.0,0.0,0.0,0.0,0.0,0.0,0.0,0.0,0.0,0.0,0.0,0.0,0.0,0.0,0.0,0.0,0.0,0.0,0.0,0.0,0.0,0.0,0.0,0.0,0.0,0.0,0.0,0.0,0.0,0.0,0.0,0.0,0.0,0.0,0.0,0.0,0.0,0.0,0.0,0.0,0.0,0.0,0.0,0.0,0.0,0.0,0.0,0.0,0.0,0.0,0.0,0.0,0.0,0.0,0.0,0.0,0.0,0.0,0.0,0.0,0.0,0.0,0.0,0.0,0.0,0.0,0.0,0.0,0.0,0.0,0.0,0.0,0.0,0.0,0.0,0.0,0.0,0.0,0.0,0.0,0.0,0.0,0.0,0.0,0.0,0.0,0.0,0.0,0.0,0.0,0.0,0.0,0.0,0.0,0.0,0.0,0.0,0.0,0.0,0.0,0.0,0.0,0.0,0.0,0.0,0.0,0.0,0.0,0.0,0.0,0.0,0.0,0.0,0.0,0.0,0.0,0.0,0.0,0.0,0.0,0.0,0.0,0.0,0.0,0.0,0.0,0.0,0.0,0.0,0.0,0.0,0.0,0.0,0.0,0.0,0.0,0.0,0.0,0.0,0.0,0.0,0.0,0.0,0.0,0.0,0.0,0.0,0.0,0.0,0.0,0.0,0.0,0.0,0.0,0.0,0.0,0.0,0.0,0.0,0.1298,0.0,0.0,0.0,0.0,0.0,0.0,0.0,0.0,0.0,0.0,0.0,0.0,0.0,0.0,0.0,0.0,0.0,0.0,0.0,0.0,0.0,0.0,0.0,0.0,0.1803,0.1825,0.1892,0.1933,0.1918,0.1896,0.0,0.0,0.0,0.0,0.0,0.1812,0.1803,0.2077,0.263,0.3264,0.3317,0.2815,0.2805,0.2685,0.2452,0.0,0.0,0.0,0.0,0.0,0.0,0.0,0.0,0.0,0.0,0.0,0.0,0.0,0.0,0.0,0.0,0.0,0.0,0.0,0.0,0.0,0.0,0.0,0.0,0.0,0.0,0.0,0.0,0.0,0.0,0.0,0.0,0.0,0.0,0.0,0.0,0.0,0.0,0.0,0.0,0.0,0.0,0.0,0.0,0.0,0.0,0.0,0.0,0.0,0.0,0.0,0.0,0.0,0.0,0.0,0.0,0.0,0.0,0.0,0.0,0.0,0.0,0.0,0.0,0.0,0.0,0.0,0.0,0.0,0.0,0.0,0.1895,0.0,0.0,0.0,0.0,0.0,0.0,0.0,0.0,0.0,0.0,0.0,0.0,0.0,0.0,0.0,0.0,0.0,0.0,0.0,0.0,0.0,0.1813,0.184,0.1844,0.1912,0.2082,0.2097,0.2113,0.207,0.2091,0.0,0.0,0.0,0.1806,0.1806,0.1992,0.291,0.4491,0.4468,0.4266,0.3868,0.3721,0.3392,0.291,0.2859,0.0,0.0,0.0,0.0,0.0,0.0,0.0,0.0,0.0,0.0,0.0,0.0,0.0,0.0,0.0,0.0,0.0,0.0,0.0,0.0,0.0,0.0,0.0,0.0,0.0,0.0,0.0,0.0,0.0,0.0,0.0,0.0,0.0,0.0,0.0,0.0,0.0,0.0,0.0,0.0,0.0,0.0,0.0,0.0,0.0,0.0,0.0,0.0,0.0,0.0,0.0,0.0,0.0,0.0,0.0,0.0,0.0,0.0,0.0,0.0,0.0,0.0,0.0,0.5555,0.5708,0.5918,0.5945,0.5905,0.5821,0.4816,0.2713,0.0126,0.2129,0.0,0.0,0.0,0.0,0.0,0.0,0.0,0.0,0.0,0.0,0.0,0.0,0.0,0.0,0.0,0.0,0.0,0.0,0.0,0.1854,0.204,0.2001,0.209,0.24,0.2271,0.2229,0.2342,0.2194,0.0,0.0,0.1515,0.1803,0.1803,0.2833,0.3745,0.4516,0.4333,0.4111,0.383,0.389,0.3921,0.3832,0.3575,0.3462,0.3421,0.0,0.0,0.0,0.0,0.0,0.0,0.0,0.0,0.0,0.0,0.0,0.0,0.0,0.0,0.0,0.0,0.0,0.0,0.0,0.0,0.0,0.0,0.0,0.0,0.0,0.0,0.0,0.0,0.0,0.0,0.0,0.0,0.0,0.0,0.0,0.0,0.0,0.0,0.0,0.0,0.0,0.3527,0.3714,0.0,0.0,0.0,0.0,0.0,0.0,0.0,0.0,0.0,0.0,0.0,0.0,0.0,0.5365,0.562,0.5932,0.6037,0.5945,0.6335,0.6474,0.6386,0.6522,0.6579,0.6612,0.6367,0.0,0.0,0.0323,0.0,0.0,0.0,0.0,0.0,0.0,0.0,0.0,0.0,0.0,0.0,0.0,0.0,0.0,0.0,0.0,0.0,0.0,0.0,0.0,0.0,0.2455,0.2634,0.2808,0.3039,0.3025,0.2764,0.2052,0.1563,0.1408,0.1015,0.1568,0.3291,0.3845,0.4247,0.4512,0.4472,0.4414,0.43,0.4453,0.4524,0.4518,0.4389,0.411,0.3721,0.3549,0.0,0.0,0.0,0.0,0.0,0.0,0.0,0.0,0.0,0.0,0.0,0.0,0.0,0.0,0.0,0.0,0.0,0.0,0.0,0.0,0.0,0.0,0.0,0.0,0.0,0.0,0.0,0.0,0.0,0.0,0.0,0.0,0.0,0.0,0.0,0.0,0.0,0.0,0.0,0.3534,0.3978,0.4039,0.4121,0.4114,0.0,0.0,0.0,0.0,0.0,0.0,0.0,0.0,0.0,0.5623,0.5864,0.6088,0.6305,0.6607,0.6763,0.6787,0.6983,0.7088,0.7109,0.7177,0.7244,0.7218,0.7251,0.6019,0.3924,0.1125,0.0,0.0,0.0,0.0,0.0,0.0,0.0,0.0,0.0,0.0,0.0,0.0,0.0,0.0,0.0,0.0,0.0,0.0,0.0,0.0,0.2535,0.2847,0.3052,0.3269,0.3567,0.363,0.3282,0.202,0.1318,0.1336,0.0476,0.1227,0.3853,0.436,0.4571,0.4518,0.4668,0.4748,0.4752,0.4867,0.4918,0.4918,0.4918,0.4585,0.4009,0.3975,0.3628,0.0,0.0,0.0,0.0,0.0,0.0,0.0,0.0,0.0,0.0,0.0,0.0,0.0,0.0,0.0,0.0,0.0,0.0,0.0,0.0,0.0,0.0,0.0,0.0,0.0,0.0,0.0,0.0,0.0,0.0,0.0,0.0,0.0,0.0,0.0,0.0,0.0,0.0,0.3956,0.4308,0.4308,0.4558,0.4606,0.0,0.0,0.0,0.0,0.0,0.0,0.5648,0.5772,0.601,0.6305,0.6566,0.6776,0.6929,0.7146,0.7316,0.7431,0.7431,0.7509,0.7655,0.7655,0.7675,0.7709,0.7682,0.7705,0.7181,0.2112,0.0,0.0,0.0,0.0,0.0,0.0,0.0,0.0,0.0,0.0,0.0,0.0,0.0,0.0,0.0,0.0,0.0,0.0,0.0,0.1946,0.3135,0.3043,0.3137,0.3707,0.3561,0.3569,0.0,0.2299,0.0925,0.0116,0.0037,0.0741,0.227,0.3996,0.4779,0.4498,0.4755,0.4908,0.4908,0.4914,0.4918,0.4918,0.4918,0.4816,0.4626,0.4338,0.4175,0.4032,0.0,0.0,0.0,0.0,0.0,0.0,0.0,0.0,0.0,0.0,0.0,0.0,0.0,0.0,0.0,0.0,0.0,0.0,0.0,0.0,0.0,0.0,0.0,0.0,0.0,0.0,0.0,0.0,0.0,0.0,0.0,0.0,0.0,0.0,0.0,0.0,0.0,0.0,0.0,0.4667,0.5053,0.0,0.0,0.0,0.0,0.5391,0.5725,0.6044,0.6207,0.6488,0.678,0.7075,0.7241,0.74,0.7553,0.757,0.758,0.7587,0.7587,0.7662,0.7801,0.7801,0.7879,0.8011,0.7865,0.7824,0.7524,0.2191,0.0,0.0,0.0,0.0,0.0,0.0,0.0,0.0,0.0,0.0,0.0,0.0,0.0,0.0,0.0,0.0,0.0646,0.2474,0.2612,0.2785,0.3425,0.3477,0.3643,0.3999,0.4073,0.4139,0.4119,0.2721,0.1301,0.0043,0.1841,0.2788,0.2546,0.4062,0.4808,0.4755,0.4955,0.5053,0.5057,0.5159,0.5257,0.5345,0.5247,0.5176,0.5098,0.4701,0.4395,0.4199,0.389,0.3113,0.0,0.0,0.0,0.0,0.0,0.0,0.0,0.0,0.0,0.0,0.0,0.0,0.0,0.0,0.0,0.0,0.0,0.0,0.0,0.0,0.0,0.0,0.0,0.0,0.0,0.0,0.0,0.0,0.0,0.0,0.0,0.0,0.0,0.0,0.0,0.0,0.0,0.5257,0.5579,0.0,0.543,0.5779,0.6037,0.6074,0.6407,0.6715,0.6963,0.7075,0.7227,0.7431,0.7577,0.7682,0.7736,0.7834,0.7882,0.7882,0.7882,0.7909,0.796,0.796,0.7987,0.8035,0.798,0.7967,0.777,0.4766,0.2083,0.0,0.0,0.0,0.0,0.0,0.0,0.0,0.0,0.0,0.0,0.0,-0.0314,-0.0224,-0.0022,0.0,0.0582,0.218,0.2906,0.3387,0.3641,0.3802,0.3988,0.4294,0.4365,0.4391,0.431,0.328,0.2349,0.1544,0.3629,0.4381,0.3449,0.4462,0.4984,0.4989,0.5189,0.5287,0.5291,0.544,0.5562,0.5657,0.5555,0.5508,0.5491,0.5192,0.4836,0.4401,0.4316,0.4108,0.3622,0.0,0.0,0.0,0.0,0.0,0.0,0.0,0.0,0.0,0.0,0.0,0.0,0.0,0.0,0.0,0.0,0.0,0.0,0.0,0.0,0.0,0.0,0.0,0.0,0.0,0.0,0.0,0.0,0.0,0.0,0.0,0.0,0.0,0.0,0.0,0.5644,0.58,0.6122,0.6274,0.6122,0.6427,0.6675,0.677,0.701,0.7261,0.7506,0.7519,0.759,0.7743,0.7838,0.7889,0.7889,0.7987,0.8038,0.8038,0.8038,0.8038,0.8038,0.8038,0.8038,0.8038,0.8038,0.8045,0.7949,0.6736,0.486,0.2528,0.068,0.0,0.0,0.0,0.0,0.0,0.0,0.0,0.0,-0.0936,-0.0936,-0.0736,-0.0156,-0.0024,0.0423,0.163,0.2846,0.3637,0.3777,0.3934,0.4144,0.4491,0.4345,0.4281,0.4428,0.3935,0.3875,0.4506,0.5092,0.5201,0.4842,0.5182,0.5286,0.5145,0.5447,0.5596,0.5599,0.5739,0.5803,0.581,0.5803,0.5803,0.581,0.5803,0.5471,0.4918,0.4613,0.4664,0.4728,0.0,0.0,0.0,0.0,0.0,0.0,0.0,0.0,0.0,0.0,0.0,0.0,0.0,0.0,0.0,0.0,0.0,0.0,0.0,0.0,0.0,0.0,0.0,0.0,0.0,0.0,0.0,0.0,0.0,0.0,0.0,0.0,0.0,0.5393,0.5776,0.6115,0.6278,0.6681,0.6892,0.6742,0.7126,0.7387,0.7387,0.7529,0.7675,0.7811,0.7818,0.7885,0.8035,0.8038,0.8038,0.8038,0.8038,0.8038,0.8038,0.8038,0.8038,0.8038,0.8038,0.8038,0.8038,0.8038,0.7952,0.7972,0.7972,0.7992,0.7507,0.2114,0.0,0.0,0.0,0.0,0.0,0.0,0.0,-0.1547,-0.1547,-0.1547,-0.1502,-0.1321,-0.0573,0.037,0.1447,0.2762,0.3611,0.3655,0.3843,0.4124,0.447,0.4453,0.3941,0.2903,0.3712,0.4545,0.5149,0.5033,0.5067,0.5211,0.5317,0.5425,0.5464,0.565,0.5742,0.5742,0.5783,0.5861,0.5962,0.585,0.5864,0.5959,0.5847,0.5708,0.5532,0.5233,0.5051,0.4834,0.0,0.0,0.0,0.0,0.0,0.0,0.0,0.0,0.0,0.0,0.0,0.0,0.0,0.0,0.0,0.0,0.0,0.0,0.0,0.0,0.0,0.0,0.0,0.0,0.0,0.0,0.0,0.0,0.0,0.0,0.0,0.0,0.5435,0.5942,0.6324,0.6699,0.7037,0.7272,0.7397,0.7356,0.7556,0.7689,0.7689,0.7831,0.7936,0.7974,0.7977,0.7994,0.8038,0.8038,0.8038,0.8038,0.8038,0.8038,0.8038,0.8038,0.8038,0.8038,0.8038,0.8038,0.8038,0.8038,0.8041,0.8048,0.8048,0.7962,0.7475,0.2111,0.0,0.0,0.0,0.0,0.0,0.0,-0.1791,-0.1791,-0.1791,-0.1791,-0.1794,-0.1798,-0.128,-0.0275,0.1407,0.232,0.3068,0.3659,0.3917,0.3928,0.3555,0.4122,0.411,0.323,0.2835,0.3342,0.4927,0.5057,0.5142,0.5373,0.5459,0.5603,0.5677,0.5827,0.5895,0.5898,0.5962,0.604,0.6122,0.6034,0.6044,0.6122,0.603,0.5993,0.5973,0.5735,0.5464,0.5179,0.5098,0.4549,0.3802,0.3428,0.3406,0.3316,0.2514,0.0,0.0,0.0,0.0,0.0,0.0,0.0,0.0,0.0,0.0,0.0,0.0,0.0,0.0,0.0,0.0,0.0,0.0,0.0,0.0,0.0,0.0,0.0,0.0,0.541,0.5311,0.5007,0.6124,0.7151,0.7522,0.7634,0.7712,0.7777,0.7858,0.7906,0.7906,0.7987,0.8038,0.8038,0.8038,0.8038,0.8038,0.8038,0.8038,0.8038,0.8038,0.8038,0.8038,0.8038,0.8038,0.8038,0.8038,0.8038,0.8038,0.8038,0.8038,0.8038,0.8048,0.7965,0.0,0.0,0.0,0.0,0.0,0.0,0.0,0.0,-0.1891,-0.1891,-0.1847,-0.1847,-0.1828,-0.1794,-0.1956,-0.1181,0.1266,0.1823,0.2488,0.3739,0.3773,0.3229,0.2065,0.3177,0.3996,0.0,0.148,0.1219,0.3854,0.4665,0.5058,0.5122,0.5487,0.5772,0.5833,0.5986,0.6061,0.6064,0.62,0.6264,0.6264,0.6338,0.6338,0.6338,0.6338,0.6338,0.6247,0.6112,0.5888,0.561,0.5328,0.5267,0.5339,0.5076,0.4796,0.4607,0.5132,0.0,0.0,0.0,0.0,0.0,0.0,0.0,0.0,0.0,0.0,0.0,0.0,0.0,0.0,0.0,0.0,0.0,0.0,0.0,0.0,0.0,0.0,0.0,0.0,0.5149,0.4855,0.3308,0.5652,0.7573,0.7814,0.7838,0.7889,0.8024,0.8038,0.8038,0.8038,0.8038,0.8038,0.8038,0.0,0.0,0.0,0.0,0.8038,0.8038,0.8058,0.8065,0.8065,0.8065,0.8065,0.8065,0.8045,0.8038,0.8038,0.8038,0.8041,0.8045,0.7965,0.7982,0.7685,0.4726,0.211,0.0,0.0,0.0,0.0,0.0,-0.2524,-0.2437,-0.2172,-0.2128,-0.2044,-0.1828,-0.1823,-0.1323,0.0153,0.2028,0.3361,0.3646,0.1954,0.0721,0.0424,0.0696,0.0866,0.0,0.0,0.0235,0.0852,0.2135,0.2948,0.3251,0.4927,0.5805,0.58,0.6093,0.6244,0.6244,0.6264,0.6274,0.6274,0.6264,0.6338,0.6338,0.6338,0.6338,0.6257,0.623,0.6105,0.5925,0.5745,0.5535,0.5394,0.5339,0.5118,0.481,0.468,0.4552,0.3842,0.0936,0.0,0.0,0.0,0.0,0.0,0.0,0.0,0.0,0.0,0.0,0.0,0.0,0.0,0.0,0.0,0.0,0.0,0.0,0.0,0.0,0.0909,0.3482,0.484,0.3299,0.5821,0.7895,0.7918,0.8004,0.8007,0.8035,0.8038,0.8038,0.8038,0.8038,0.8038,0.8038,0.8038,0.8038,0.8038,0.8038,0.8038,0.8038,0.8163,0.8225,0.8225,0.0,0.0,0.8221,0.8096,0.8038,0.8038,0.8038,0.8048,0.7965,0.7972,0.7992,0.7503,0.2622,0.0504,0.0,0.0,0.0,0.0,-0.3068,-0.2896,-0.2654,-0.2481,-0.2302,-0.215,-0.2019,-0.1937,-0.1533,-0.0479,0.0642,0.1672,0.244,0.1482,0.0372,-0.057,-0.0242,0.0,0.0,0.0,0.0,0.0,0.0697,0.1197,0.135,0.2381,0.3409,0.4464,0.4595,0.4701,0.4701,0.4696,0.5249,0.6288,0.6281,0.6278,0.6278,0.6278,0.6278,0.6278,0.6278,0.623,0.6146,0.5986,0.5796,0.5464,0.4409,0.4493,0.5106,0.4964,0.393,0.2382,0.0598,0.0,-0.0434,0.0,0.0,0.0,0.0,0.0,0.0,0.0,0.0,0.0,0.0,0.0,0.0,0.0,0.0,0.0,0.0,0.0,0.0,0.0,0.15,0.2436,0.1686,0.3006,0.5041,0.7669,0.7962,0.7952,0.8041,0.8038,0.8038,0.8038,0.8038,0.8038,0.8038,0.8113,0.8153,0.8153,0.8225,0.8262,0.8262,0.8336,0.8377,0.8377,0.8284,0.8287,0.8284,0.8114,0.7981,0.7981,0.7981,0.7988,0.7991,0.8031,0.8024,0.7728,0.5086,0.2326,0.0,0.0,0.0,0.0,-0.3464,-0.3153,-0.2832,-0.2783,-0.2546,-0.2324,-0.2215,-0.2115,-0.1781,-0.1057,-0.0975,-0.045,0.0961,0.1104,0.0331,-0.1484,0.0,0.0,0.0,0.0,0.0,0.0,0.0,0.0,0.0,0.0,0.0823,0.25,0.25,0.25,0.25,0.2499,0.3441,0.5101,0.5497,0.5655,0.5655,0.5655,0.5655,0.5655,0.5655,0.5899,0.6288,0.6152,0.6,0.5692,0.398,0.3776,0.4338,0.4375,0.2403,0.0,0.0,-0.0184,-0.0893,-0.3328,-0.4055,0.0,0.0,0.0,0.0,0.0,0.0,0.0,0.0,0.0,-0.2329,-0.0424,0.0,0.0,0.0,0.0,0.0,0.0,0.0,0.0,0.0,0.0,0.1609,0.5939,0.7359,0.7965,0.8048,0.8041,0.8038,0.8038,0.8041,0.8058,0.8082,0.8204,0.8289,0.8316,0.8428,0.8489,0.8496,0.8523,0.854,0.854,0.8451,0.813,0.7587,0.7361,0.7249,0.7249,0.7793,0.8014,0.7899,0.6843,0.6393,0.6396,0.6484,0.3766,0.0,0.0,0.0,0.0,0.0,-0.3464,-0.333,-0.3089,-0.3025,-0.2826,-0.228,-0.2192,-0.2125,-0.1968,-0.1537,-0.1026,-0.0434,-0.0379,-0.1047,-0.2739,0.0,0.0,-0.0159,0.0,0.0,0.0,0.0,0.0,0.0,0.0,0.0076,0.0314,0.0314,0.0314,0.0314,0.0313,0.047,0.0783,0.2656,0.3437,0.3437,0.3437,0.3437,0.3437,0.3437,0.4628,0.6325,0.6305,0.6277,0.6241,0.5999,0.3615,0.0588,0.06,0.033,0.0,0.0,-0.0898,-0.2025,-0.2378,0.0,-0.2792,-0.4185,-0.3306,0.0,-0.0504,-0.0195,-0.0206,0.0,0.0,-0.0322,-0.0084,0.0,0.0,0.0,0.0,0.0,0.0,0.0,0.0,0.0,0.0,0.0202,0.0804,0.5129,0.7972,0.7969,0.7952,0.8038,0.8038,0.7959,0.8119,0.8238,0.8269,0.8347,0.8269,0.8289,0.8411,0.8543,0.8458,0.8524,0.8524,0.875,0.7419,0.4886,0.4596,0.4457,0.4565,0.6942,0.8037,0.7602,0.2873,0.0851,0.0849,0.0938,0.0518,0.0,0.0,0.0,0.0,0.0,-0.3848,-0.3703,-0.3577,-0.3302,-0.3025,-0.2762,-0.2589,-0.2521,-0.2557,-0.2515,-0.2433,-0.2293,-0.2463,-0.2844,-0.3449,-0.3372,0.0,-0.1128,-0.0405,0.0,0.0,0.0,0.0,0.0,0.0,0.0,0.0,0.0,0.0,0.0,0.0,0.0,0.0,0.094,0.1331,0.1331,0.1331,0.1331,0.1409,0.2586,0.4408,0.6329,0.6318,0.4798,0.2426,0.064,-0.1104,0.0,0.0,0.0,-0.0314,-0.2079,-0.3055,-0.3544,-0.3567,-0.3784,0.0,-0.5353,0.0,0.0,0.0,0.0,0.0,0.0,0.0,0.0,0.0,0.0,0.0,0.0,0.0,0.0,0.0,0.0,0.0,0.0,0.0,0.0,0.0,0.2011,0.4526,0.7675,0.7975,0.7969,0.7969,0.7958,0.7403,0.5882,0.7503,0.8385,0.8448,0.6872,0.6134,0.6141,0.6184,0.6208,0.6208,0.8014,0.8241,0.6887,0.3298,0.1643,0.1752,0.2853,0.3296,0.3182,0.0979,0.0,0.0,0.0,0.0,0.0,0.0,0.0,0.0,0.0,-0.4027,-0.3869,-0.3807,-0.3535,-0.3281,-0.3132,-0.2939,-0.285,-0.2999,-0.3304,-0.3561,-0.3791,-0.3919,-0.4,-0.4007,-0.3559,-0.2814,-0.1847,-0.0683,0.0,0.0,0.0,0.0,0.0,0.0,0.0,0.0,0.0,0.0,0.0,0.0,0.0,0.0,0.0,0.0,0.0,0.0,0.0,0.0157,0.165,0.3137,0.46,0.4563,0.2182,-0.1528,-0.3689,-0.4476,0.0,0.0,-0.0978,-0.0973,-0.3206,-0.3843,-0.3954,-0.4534,-0.5051,-0.5531,-0.5848,0.0,0.0,-0.0307,0.0,0.0,0.0,0.0,0.0,0.0,0.0,0.0,0.0,0.0,0.0,0.0,0.0,0.0,0.0,0.0,0.0,0.0,0.0,0.151,0.5445,0.6456,0.6859,0.6859,0.761,0.6864,0.416,0.5369,0.6909,0.851,0.6689,0.4925,0.3243,0.3243,0.3243,0.3243,0.5386,0.6408,0.6293,0.2018,0.0,0.0,0.0,0.0,0.0,0.0,0.0,0.0,0.0,0.0,0.0,0.0,0.0,0.0,0.0,0.0,-0.3807,-0.3569,-0.371,-0.3703,-0.3175,-0.3089,-0.3135,-0.3282,-0.3693,-0.4137,-0.4532,-0.4215,-0.4165,-0.4558,-0.3969,-0.3084,-0.1886,-0.0665,0.0,0.0,0.0,0.0,0.0,0.0,0.0,0.0,0.0,0.0,0.0,0.0,0.0,0.0,0.0,0.0,0.0,0.0,0.0,0.0,0.0079,0.0155,0.0227,0.0221,-0.1696,-0.4403,-0.447,0.0,0.0,0.0,-0.3382,-0.2124,-0.2252,-0.2273,0.0,-0.4517,-0.5352,0.0,0.0,0.0,-0.5145,-0.105,0.0,0.0,0.0,0.0,0.0,0.0,0.0,0.0,0.0,0.0,0.0,0.0,0.0,0.0,0.0,0.0,0.0,0.0,0.0,0.0101,0.0,0.2615,0.4117,0.4117,0.6581,0.6813,0.413,0.1619,0.2859,0.8673,0.8795,0.5953,0.0224,0.0112,0.0112,0.0112,0.0224,0.0224,0.0224,0.0112,0.0,0.0,0.0,0.0,0.0,0.0,0.0,0.0,0.0,0.0,0.0,0.0,0.0,0.0,0.0,0.0,0.0,-0.4068,-0.4109,-0.4109,-0.3917,-0.3737,-0.3822,-0.4364,-0.4712,0.0,0.0,0.0,0.0,0.0,0.0,0.0,-0.3275,-0.1211,0.0,0.0,0.0,0.0,0.0,0.0,0.0,0.0,0.0,0.0,0.0,0.0,0.0,0.0,0.0,0.0,0.0,0.0,0.0,0.0,0.0,0.0,-0.0226,-0.2673,-0.3995,-0.4528,0.0,0.0,0.0,0.0,-0.4137,-0.3702,-0.3749,0.0,0.0,-0.4846,0.0,-0.493,0.0,0.0,-0.477,-0.0968,0.0,0.0,0.0,0.0,0.0,0.0,0.0,0.0,0.0,0.0,0.0,0.0,0.0,0.0,0.0,0.0,0.0,0.0,0.0,0.0,0.0,0.0,0.0,0.131,0.218,0.233,0.1383,0.0438,0.0891,0.2914,0.3027,0.2017,0.0,0.0,0.0,0.0,0.0,0.0,0.0,0.0,0.0,0.0,0.0,0.0,0.0,0.0,0.0,0.0,0.0,0.0,0.0,0.0,0.0,0.0,0.0,0.0,0.0,0.0,0.0,0.0,0.0,0.0,0.0,0.0,0.0,0.0,0.0,0.0,0.0,0.0,0.0,0.0,0.0,0.0,-0.1702,-0.1605,-0.1344,-0.111,-0.0779,-0.0795,-0.0543,0.0,0.0,0.0,0.0,0.0,0.0,0.0,0.0,0.0,0.0,0.0,0.0,-0.0076,-0.1191,-0.1613,-0.1808,-0.3566,-0.4375,0.0,0.0,0.0,0.0,-0.4504,0.0,0.0,0.0,0.0,0.0,-0.5084,-0.5114,-0.4953,0.0,-0.3681,-0.2942,-0.0561,0.0,0.0,0.0,0.0,0.0,0.0,0.0,0.0,0.0,0.0,0.0,0.0,0.0,0.0,0.0,0.0,0.0,0.0,0.0,0.0,0.0,0.0,0.0,0.0,0.0,0.0,0.0,0.0,0.0,0.0,0.0,0.0,0.0,0.0,0.0,0.0,0.0,0.0,0.0,0.0,0.0,0.0,0.0,0.0,0.0,0.0,0.0,0.0,0.0,0.0,0.0,0.0,0.0,0.0,0.0,0.0,0.0,0.0,0.0,0.0,0.0,0.0,0.0,0.0,0.0,0.0,0.0,0.0,0.0,0.0,0.0,0.0,0.0,0.0,0.0,-0.452,-0.4049,-0.3353,-0.2536,-0.2433,-0.1674,-0.0257,-0.0132,-0.0136,-0.014,-0.014,-0.0142,-0.0145,-0.0145,-0.0145,-0.0145,-0.0145,-0.0145,-0.0362,-0.3254,-0.4423,-0.4359,-0.2896,0.0,0.0,0.0,0.0,0.0,0.0,0.0,0.0,0.0,0.0,0.0,0.0,0.0,-0.5685,-0.5451,-0.2753,0.0,0.0,0.0,0.0,0.0,0.0,0.0,0.0,0.0,0.0,0.0,0.0,0.0,0.0,0.0,0.0,0.0,0.0,0.0,0.0,0.0,0.0,0.0,0.0,0.0,0.0,0.0,0.0,0.0,0.0,0.0,0.0,0.0,0.0,0.0,0.0,0.0,0.0,0.0,0.0,0.0,0.0,0.0,0.0,0.0,0.0,0.0,0.0,0.0,0.0,0.0,0.0,0.0,0.0,0.0,0.0,0.0,0.0,0.0,0.0,0.0,0.0,0.0,0.0,0.0,0.0,0.0,0.0,0.0,0.0,0.0,0.0,0.0,0.0,0.0,0.0,0.0,0.0,0.0,-0.7116,-0.6468,-0.5793,-0.4779,-0.3342,-0.2178,-0.1633,-0.1655,-0.1628,-0.165,-0.1662,-0.163,-0.1645,-0.1645,-0.1645,-0.1645,-0.1709,0.0,-0.3479,-0.4493,0.0,0.0,0.0,0.0,0.0,0.0,0.0,0.0,0.0,0.0,0.0,-0.5115,0.0,0.0,-0.4915,-0.531,-0.2713,0.0,0.0,0.0,0.0,0.0,0.0,0.0,0.0,0.0,0.0,0.0,0.0,0.0,0.0,0.0,0.0,0.0,0.0,0.0,0.0,0.0,0.0,0.0,0.0,0.0,0.0,0.0,0.0,0.0,0.0,0.0,0.0,0.0,0.0,0.0,0.0,0.0,0.0,0.0,0.0,0.0,0.0,0.0,0.0,0.0,0.0,0.0,0.0,0.0,0.0,0.0,0.0,0.0,0.0,0.0,0.0,0.0,0.0,0.0,0.0,0.0,0.0,0.0,0.0,0.0,0.0,0.0,0.0,0.0,0.0,0.0,0.0,0.0,0.0,0.0,0.0,0.0,0.0,-0.743,-0.7822,-0.7407,-0.694,-0.6284,0.0,0.0,0.0,-0.2998,-0.2995,-0.3069,-0.3221,-0.3214,-0.3198,-0.3236,-0.3236,0.0,0.0,0.0,0.0,0.0,0.0,0.0,0.0,0.0,0.0,0.0,0.0,0.0,-0.4431,-0.4423,-0.5017,-0.5466,-0.4532,0.0,-0.3774,-0.3193,-0.1554,0.0,0.0,0.0,0.0,0.0,0.0,0.0,0.0,0.0,0.0,0.0,0.0,0.0,0.0,0.0,0.0,0.0,0.0,0.0,0.0,0.0,0.0,0.0,0.0,0.0,0.0,0.0,0.0,0.0,0.0,0.0,0.0,0.0,0.0,0.0,0.0,0.0,0.0,0.0,0.0,0.0,0.0,0.0,0.0,0.0,0.0,0.0,0.0,0.0,0.0,0.0,0.0,0.0,0.0,0.0,0.0,0.0,0.0,0.0,0.0,0.0,0.0,0.0,0.0,0.0,0.0,0.0,0.0,0.0,0.0,0.0,0.0,0.0,0.0,0.0,0.0,0.0,0.0,-0.7061,-0.7001,-0.6913,0.0,0.0,0.0,0.0,0.0,0.0,0.0,0.0,0.0,0.0,0.0,0.0,0.0,0.0,0.0,0.0,0.0,0.0,0.0,0.0,0.0,0.0,0.0,0.0,0.0,-0.3892,-0.3968,-0.4237,-0.5419,-0.6347,-0.4088,-0.3279,-0.2766,-0.0587,0.0,0.0,0.0,0.0,-0.0096,-0.053,-0.0594,-0.0564,-0.0358,0.0,0.0,-0.0066,0.0,0.0,0.0,0.0,0.0,0.0,0.0,0.0,0.0,0.0,0.0,0.0,0.0,0.0,0.0,0.0,0.0,0.0,0.0,0.0,0.0,0.0,0.0,0.0,0.0,0.0,0.0,0.0,0.0,0.0,0.0,0.0,0.0,0.0,0.0,0.0,0.0,0.0,0.0,0.0,0.0,0.0,0.0,0.0,0.0,0.0,0.0,0.0,0.0,0.0,0.0,0.0,0.0,0.0,0.0,-0.8398,-0.8262,0.0,0.0,0.0,0.0,0.0,0.0,0.0,0.0,0.0,0.0,-0.7261,-0.739,0.0,0.0,0.0,0.0,0.0,0.0,0.0,0.0,0.0,0.0,0.0,0.0,0.0,0.0,0.0,0.0,0.0,0.0,0.0,0.0,0.0,0.0,0.0,0.0,0.0,0.0,-0.4691,-0.442,-0.6071,-0.6733,-0.7014,-0.704,-0.5571,-0.3252,-0.0694,0.0,0.0,0.0,0.0,-0.0643,-0.3184,-0.372,0.0,0.0,0.0,-0.1425,-0.0242,0.0,0.0,0.0,0.0,0.0,0.0,0.0,0.0,0.0,0.0,0.0,0.0,0.0,0.0,0.0,0.0,0.0,0.0,0.0,0.0,0.0,0.0,0.0,0.0,0.0,0.0,0.0,0.0,0.0,0.0,0.0,0.0,0.0,0.0,0.0,0.0,0.0,0.0,0.0,0.0,0.0,0.0,0.0,0.0,0.0,0.0,0.0,0.0,0.0,0.0,0.0,0.0,-0.7969,-0.8655,-0.9868,-0.9827,-0.9518,-0.904,-0.8571,-0.8233,0.0,0.0,0.0,0.0,0.0,0.0,0.0,0.0,0.0,0.0,0.0,0.0,0.0,0.0,0.0,0.0,0.0,0.0,0.0,0.0,0.0,0.0,0.0,0.0,0.0,0.0,0.0,0.0,0.0,0.0,0.0,0.0,0.0,0.0,0.0,-0.5023,-0.5143,-0.6445,-0.694,-0.7214,-0.753,-0.6954,-0.5828,-0.4495,-0.2111,0.0,0.0,0.0,-0.0812,-0.3846,0.0,0.0,0.0,0.0,-0.3152,-0.2468,0.0,0.0,0.0,0.0,0.0,0.0,0.0,0.0,0.0,0.0,0.0,0.0,0.0,0.0,0.0,0.0,0.0,0.0,0.0,0.0,0.0,0.0,0.0,0.0,0.0,0.0,0.0,0.0,0.0,0.0,0.0,0.0,0.0,0.0,0.0,0.0,0.0,0.0,0.0,0.0,0.0,0.0,0.0,0.0,0.0,0.0,0.0,0.0,0.0,0.0,0.0,0.0,-0.8634,-0.9283,-1.1076,-1.1197,-1.0833,-1.0119,-0.9247,-0.8585,0.0,0.0,0.0,0.0,0.0,0.0,0.0,0.0,0.0,0.0,0.0,0.0,0.0,0.0,0.0,0.0,0.0,0.0,0.0,0.0,0.0,0.0,0.0,0.0,0.0,0.0,0.0,0.0,0.0,0.0,0.0,0.0,0.0,0.0,0.0,-0.5467,-0.6014,-0.6607,-0.6841,-0.7037,-0.7244,-0.7609,-0.7887,-0.7987,-0.4916,-0.1399,-0.0293,0.0,-0.0711,-0.3416,-0.4272,0.0,0.0,0.0,-0.449,-0.4494,0.0,0.0,0.0,0.0,0.0,0.0,0.0,0.0,0.0,0.0,0.0,0.0,0.0,0.0,0.0,0.0,0.0,0.0,0.0,0.0,0.0,0.0,0.0,0.0,0.0,0.0,0.0,0.0,0.0,0.0,0.0,0.0,0.0,0.0,0.0,0.0,0.0,0.0,0.0,0.0,0.0,0.0,0.0,0.0,0.0,0.0,0.0,0.0,0.0,0.0,0.0,0.0,-0.9053,-0.983,-1.1977,-1.1858,-1.1502,-1.1422,-1.058,-0.9551,0.0,0.0,0.0,0.0,0.0,0.0,0.0,0.0,0.0,0.0,0.0,0.0,0.0,0.0,0.0,0.0,0.0,0.0,0.0,0.0,0.0,0.0,0.0,0.0,0.0,0.0,0.0,0.0,0.0,0.0,0.0,0.0,0.0,0.0,0.0,0.0,-0.6988,-0.7312,-0.7041,-0.6593,-0.6888,0.0,0.0,-0.7887,-0.7668,-0.609,-0.125,0.0,-0.0434,-0.2036,0.0,0.0,0.0,-0.4522,-0.4525,-0.448,-0.4384,0.0,0.0,0.0,0.0,0.0,0.0,0.0,0.0,0.0,0.0,0.0,0.0,0.0,0.0,0.0,0.0,0.0,0.0,0.0,0.0,0.0,0.0,0.0,0.0,0.0,0.0,0.0,0.0,0.0,0.0,0.0,0.0,0.0,0.0,0.0,0.0,0.0,0.0,0.0,0.0,0.0,0.0,0.0,0.0,0.0,0.0,0.0,0.0,0.0,0.0,-0.8849,-0.91,-0.9906,-1.2115,-1.2215,-1.2077,-1.2077,-1.1454,-1.0471,-0.9088,0.0,0.0,0.0,0.0,0.0,0.0,0.0,0.0,0.0,0.0,0.0,0.0,0.0,0.0,0.0,0.0,0.0,0.0,0.0,0.0,0.0,0.0,0.0,0.0,0.0,0.0,0.0,0.0,0.0,0.0,0.0,0.0,0.0,0.0,0.0,0.0,-0.7121,-0.7081,0.0,0.0,-0.7133,-0.7193,-0.7684,-0.775,-0.7279,-0.5149,-0.3073,-0.2172,-0.4469,0.0,0.0,-0.5065,-0.4787,-0.4519,-0.4522,-0.4518,-0.4581,-0.4814,-0.3838,-0.2752,0.0,0.0,0.0,0.0,0.0,0.0,0.0,0.0,0.0,0.0,0.0,0.0,0.0,0.0,0.0,0.0,0.0,0.0,0.0,0.0,0.0,0.0,0.0,0.0,0.0,0.0,0.0,0.0,0.0,0.0,0.0,0.0,0.0,0.0,0.0,0.0,0.0,0.0,0.0,0.0,0.0,0.0,0.0,0.0,0.0,-0.71,-0.8635,-0.9,-0.978,-1.1663,-1.2065,-1.2165,-1.2165,-1.1676,-1.0924,-0.9885,-0.8973,0.0,0.0,0.0,0.0,0.0,0.0,0.0,0.0,0.0,0.0,0.0,0.0,0.0,0.0,0.0,0.0,0.0,0.0,0.0,0.0,0.0,0.0,0.0,0.0,0.0,0.0,0.0,0.0,0.0,0.0,0.0,0.0,0.0,0.0,0.0,0.0,0.0,0.0,0.0,-0.7074,-0.7077,-0.7368,-0.7472,-0.7629,-0.7499,-0.5931,-0.4809,0.0,0.0,-0.5693,-0.5549,-0.5109,-0.4732,-0.4519,-0.4519,-0.4548,-0.476,-0.4945,-0.4736,-0.3823,0.0,0.0,0.0,0.0,0.0,0.0,0.0,0.0,0.0,0.0,0.0,-0.1344,-0.1344,-0.0896,-0.0,0.0,0.0,0.0,0.0,0.0,0.0,0.0,0.0,0.0,0.0,0.0,0.0,0.0,0.0,0.0,0.0,0.0,0.0,0.0,0.0,0.0,0.0,0.0,0.0,0.0,0.0,0.0,0.0,0.0,0.0,-0.8135,-0.875,-0.9479,-1.0568,-1.1236,-1.16,-1.16,-1.1073,-1.0706,-1.0681,-0.9517,0.0,0.0,0.0,0.0,0.0,0.0,0.0,0.0,0.0,-0.7168,-0.7506,-0.7506,0.0,0.0,0.0,0.0,0.0,0.0,0.0,0.0,0.0,0.0,0.0,0.0,0.0,0.0,0.0,0.0,0.0,0.0,0.0,0.0,0.0,0.0,0.0,0.0,0.0,0.0,0.0,-0.6993,-0.7211,-0.6979,-0.7149,-0.7343,-0.7121,-0.7807,-0.8218,0.0,-0.7204,-0.7416,-0.5827,-0.5487,-0.5269,-0.4625,-0.4519,-0.457,-0.4667,-0.4897,-0.5286,-0.5857,0.0,0.0,0.0,0.0,0.0,0.0,0.0,0.0,0.0,0.0,0.0,-0.447,-0.447,-0.3131,-0.0112,0.0,0.0,0.0,0.0,0.0,0.0,0.0,0.0,0.0,0.0,0.0,0.0,0.0,0.0,0.0,0.0,0.0,0.0,0.0,0.0,0.0,0.0,0.0,0.0,0.0,0.0,0.0,0.0,0.0,0.0,0.0,-0.7839,-0.8465,-0.9968,-1.032,-1.0721,-1.15,-1.1073,-1.0694,-1.0694,-0.9776,0.0,0.0,0.0,0.0,0.0,0.0,0.0,0.0,0.0,-0.8146,-0.8047,-0.8047,-0.7937,0.0,0.0,0.0,0.0,0.0,0.0,0.0,0.0,0.0,0.0,0.0,0.0,0.0,0.0,0.0,0.0,0.0,0.0,0.0,0.0,0.0,0.0,0.0,0.0,0.0,0.0,0.0,0.0,-0.7654,-0.7842,-0.8015,-0.7878,-0.7869,-0.7855,-0.7837,-0.7507,-0.7197,-0.704,-0.6583,-0.6036,-0.5328,-0.5164,-0.5171,-0.5199,-0.5233,0.0,0.0,0.0,0.0,0.0,0.0,0.0,0.0,0.0,0.0,0.0,0.0,0.0,-0.7522,-0.7522,-0.6165,-0.3131,-0.3131,-0.3131,-0.3131,-0.3131,-0.3131,-0.3131,-0.3131,-0.3131,-0.3131,-0.3131,-0.3131,0.0,0.0,0.0,0.0,0.0,0.0,0.0,0.0,0.0,0.0,0.0,0.0,-0.0561,0.0,0.0,0.0,0.0,0.0,0.0,0.0,-0.7407,-0.7877,-0.8838,-0.9165,-0.9717,-1.0834,-1.0445,-1.027,-1.0656,-1.0032,0.0,0.0,0.0,0.0,0.0,0.0,0.0,-0.8008,-0.8275,-0.8577,-0.8842,-0.8842,-0.8837,-0.8831,-0.8997,-0.8941,0.0,0.0,0.0,0.0,0.0,0.0,0.0,0.0,0.0,0.0,0.0,0.0,0.0,0.0,0.0,0.0,0.0,0.0,0.0,0.0,0.0,0.0,0.0,-0.8749,0.0,0.0,-0.7981,-0.8141,-0.8065,-0.7986,-0.8073,-0.8259,-0.8049,-0.7745,-0.7722,-0.7343,-0.6804,-0.6036,-0.5923,-0.5923,-0.5872,-0.5796,0.0,0.0,0.0,0.0,0.0,0.0,0.0,0.0,0.0,0.0,0.0,0.0,0.0,-0.887,-0.887,-0.8069,-0.6255,-0.6156,-0.6161,-0.6161,-0.6161,-0.6161,-0.6161,-0.6161,-0.6161,-0.6161,-0.6161,-0.6161,0.0,0.0,0.0,0.0,-0.1677,-0.1679,-0.1679,-0.1679,-0.1679,-0.1679,-0.1679,-0.1679,-0.2239,0.0,0.0,0.0,0.0,0.0,0.0,0.0,-0.7407,-0.7671,-0.7452,-0.7909,-0.866,-0.9679,-0.9366,-0.9491,-1.0493,0.0,0.0,0.0,0.0,0.0,0.0,0.0,0.0,-0.8081,-0.8084,-0.8659,-0.9786,-0.9786,-0.9985,-1.0414,-1.0437,-1.0098,-0.9374,0.0,0.0,0.0,0.0,0.0,0.0,0.0,0.0,0.0,0.0,0.0,0.0,0.0,0.0,0.0,0.0,0.0,0.0,0.0,0.0,0.0,0.0,0.0,0.0,0.0,0.0,0.0,0.0,0.0,-0.8709,-0.8303,-0.8713,0.0,-0.7991,-0.7777,-0.7574,-0.6846,-0.6732,-0.6747,-0.6719,0.0,0.0,0.0,0.0,0.0,0.0,0.0,0.0,0.0,0.0,0.0,0.0,0.0,0.0,-0.894,-0.894,-0.894,-0.894,-0.887,-0.889,-0.889,-0.889,-0.889,-0.889,-0.889,-0.889,-0.889,-0.889,-0.889,0.0,0.0,0.0,0.0,-0.4808,-0.4808,-0.4808,-0.4808,-0.4808,-0.4808,-0.4808,-0.4808,-0.4808,0.0,0.0,0.0,0.0,0.0,0.0,0.0,0.0,0.0,0.0,-0.7829,-0.812,-0.8622,-0.8914,-0.9214,0.0,0.0,0.0,0.0,0.0,0.0,0.0,0.0,0.0,-0.8749,-0.9057,-0.9628,-1.0382,-1.0382,-1.0492,-1.0731,-1.0941,-1.0745,-1.0286,-1.0456,-1.0299,0.0,0.0,0.0,0.0,0.0,0.0,0.0,0.0,0.0,0.0,0.0,0.0,0.0,0.0,0.0,0.0,0.0,0.0,0.0,0.0,-1.018,-1.0198,-1.0045,0.0,-0.8771,-0.8569,-0.8695,-0.8786,0.0,-0.879,-0.8831,0.0,0.0,0.0,0.0,0.0,0.0,0.0,0.0,0.0,0.0,0.0,0.0,0.0,0.0,0.0,0.0,0.0,0.0,0.0,0.0,-0.894,-0.894,-0.894,-0.894,-0.894,-0.895,-0.8954,-0.8954,-0.8954,-0.8954,-0.8954,-0.8954,-0.8954,-0.8954,-0.8954,-0.8954,0.0,0.0,0.0,-0.7844,-0.7859,-0.7865,-0.7865,-0.7865,-0.7865,-0.7865,-0.7865,-0.7865,-0.7865,0.0,0.0,0.0,0.0,0.0,0.0,0.0,0.0,0.0,0.0,0.0,-0.7517,-0.7847,-0.8399,0.0,0.0,0.0,0.0,0.0,0.0,0.0,0.0,0.0,-0.8369,-0.8994,-0.9228,-0.9916,-1.106,-1.106,-1.1297,-1.1783,-1.1916,-1.164,-1.1041,-1.0733,-1.0607,0.0,0.0,0.0,0.0,0.0,0.0,0.0,0.0,0.0,0.0,0.0,-1.1125,0.0,-1.1697,-1.1781,-1.1603,0.0,0.0,0.0,0.0,-1.0365,-1.0403,-1.0524,-1.0394,-1.01,-0.9617,-0.9528,-0.9475,-0.9059,0.0,0.0,0.0,0.0,0.0,0.0,0.0,0.0,0.0,0.0,0.0,0.0,0.0,0.0,0.0,0.0,0.0,0.0,0.0,0.0,0.0,0.0,-0.894,-0.894,-0.894,-0.894,-0.894,-0.894,-0.894,-0.894,-0.894,-0.894,-0.894,-0.894,-0.894,-0.894,-0.894,-0.894,0.0,0.0,0.0,-0.8846,-0.886,-0.8866,-0.8866,-0.8866,-0.8866,-0.8866,-0.8866,-0.8866,-0.8863,0.0,0.0,0.0,0.0,0.0,0.0,0.0,0.0,0.0,0.0,0.0,0.0,0.0,0.0,0.0,0.0,0.0,0.0,0.0,0.0,0.0,0.0,-0.7947,-0.8123,-0.9082,-0.9043,-0.9844,-1.1606,-1.1606,-1.2028,-1.2783,-1.2852,-1.2412,-1.1567,-1.0854,-1.0671,0.0,0.0,0.0,0.0,0.0,0.0,0.0,0.0,0.0,0.0,0.0,0.0,0.0,-1.2088,-1.2162,-1.2109,-1.2063,0.0,0.0,0.0,0.0,0.0,-1.0625,-1.1251,-1.1629,-1.0632,-1.0539,-1.0454,-0.9603,0.0,0.0,0.0,0.0,0.0,0.0,0.0,0.0,0.0,0.0,0.0,0.0,0.0,0.0,0.0,0.0,0.0,0.0,0.0,0.0,0.0,0.0,-0.9158,-0.894,-0.894,-0.894,-0.894,-0.894,-0.9047,-0.9265,-0.9047,-0.894,-0.894,-0.894,-0.894,-0.894,-0.894,-0.894,-0.894,0.0,0.0,-0.894,-0.894,-0.894,-0.894,-0.894,-0.9047,-0.9265,-0.9265,-0.9372,-0.9592,0.0,0.0,0.0,0.0,0.0,0.0,0.0,0.0,0.0,0.0,0.0,0.0,0.0,0.0,0.0,0.0,0.0,0.0,0.0,0.0,0.0,-0.8734,-0.8052,-0.826,-0.9476,-0.9189,-0.9844,-1.1606,-1.1606,-1.1826,-1.2334,-1.2705,-1.2412,-1.1587,-1.1521,-1.1308,-1.1019,0.0,0.0,0.0,0.0,0.0,0.0,0.0,0.0,0.0,0.0,0.0,0.0,-1.1702,-1.1806,-1.162,-1.1266,0.0,0.0,0.0,0.0,0.0,-1.2206,-1.3074,-1.3206,-1.1207,-1.1031,-1.1231,-1.0669,0.0,0.0,0.0,0.0,0.0,0.0,0.0,0.0,0.0,0.0,0.0,0.0,0.0,0.0,0.0,0.0,0.0,0.0,0.0,0.0,0.0,0.0,-1.0241,-0.8937,-0.894,-0.894,-0.894,-0.894,-0.9482,-1.0785,-0.9482,-0.894,-0.894,-0.894,-0.894,-0.894,-0.894,-0.894,-0.894,0.0,-0.894,-0.894,-0.894,-0.894,-0.894,-0.894,-0.9699,-1.0781,-1.0781,-1.1538,-1.2615,0.0,0.0,0.0,0.0,0.0,0.0,0.0,0.0,0.0,0.0,0.0,0.0,0.0,0.0,0.0,0.0,0.0,0.0,0.0,0.0,-0.9134,-0.918,-0.8872,-0.8901,-0.9277,-0.9551,-1.0497,-1.2115,-1.2297,-1.2789,-1.3556,-1.2964,-1.2303,-1.1577,-1.1418,-1.1371,-1.1468,-1.1957,0.0,0.0,0.0,0.0,0.0,0.0,0.0,0.0,0.0,0.0,0.0,0.0,-1.2479,-1.2404,-1.1912,0.0,0.0,0.0,0.0,0.0,-1.1875,-1.2627,-1.2965,-1.2669,-1.304,-1.3199,-1.2301,0.0,0.0,0.0,0.0,0.0,0.0,0.0,0.0,0.0,0.0,0.0,0.0,0.0,0.0,0.0,0.0,0.0,0.0,0.0,0.0,0.0,0.0,0.0,-1.1061,-1.1159,-1.1324,-1.1324,-1.1324,-1.1647,-1.2295,-1.1647,-1.1324,-1.1324,-1.0457,-1.0457,-1.1324,-1.1324,-1.1324,-1.1324,0.0,-1.1324,-1.1324,-1.1324,-1.1324,-1.1324,-1.1324,-1.1647,-1.2295,-1.2295,-1.2729,-1.3264,0.0,0.0,0.0,0.0,0.0,0.0,0.0,0.0,0.0,0.0,0.0,0.0,0.0,0.0,0.0,0.0,0.0,0.0,0.0,0.0,-0.9411,-0.9464,-0.966,-0.9659,-0.9434,-1.0103,-1.1175,-1.2647,-1.2941,-1.3669,-1.4687,-1.3292,-1.2413,-1.1946,-1.1504,-1.1566,-1.1993,-1.2473,-1.265,0.0,0.0,0.0,0.0,0.0,0.0,0.0,0.0,0.0,0.0,0.0,0.0,0.0,0.0,0.0,0.0,-1.178,-1.1155,-1.0875,-1.1854,-1.2246,-1.2618,-1.3786,0.0,-1.4575,-1.4029,0.0,0.0,0.0,0.0,0.0,0.0,0.0,0.0,0.0,0.0,0.0,0.0,0.0,0.0,0.0,0.0,0.0,0.0,0.0,0.0,0.0,0.0,0.0,-1.275,-1.2911,-1.3113,-1.3113,-1.3113,-1.324,-1.3725,-1.3403,-1.3214,-1.3264,-1.2186,-1.2186,-1.3264,-1.3264,-1.3264,-1.3264,-1.3264,-1.3264,-1.3264,-1.3264,-1.3264,-1.3264,-1.3264,-1.348,-1.3804,-1.4126,-1.4341,-1.4341,0.0,0.0,0.0,0.0,0.0,0.0,0.0,0.0,0.0,0.0,0.0,0.0,0.0,0.0,0.0,0.0,0.0,0.0,0.0,0.0,-0.9393,-0.9402,-0.9939,-1.042,-1.0742,-1.0899,-1.164,-1.3068,-1.3099,-1.3669,-1.4687,-1.357,-1.3054,-1.3073,-1.2512,-1.234,-1.2461,-1.2943,-1.3163,-1.3163,0.0,0.0,0.0,0.0,0.0,0.0,0.0,0.0,0.0,0.0,0.0,0.0,0.0,0.0,-1.3167,-1.3193,-1.2535,-1.2056,-1.3307,-1.3253,-1.3047,-1.3863,-1.3854,0.0,-1.5536,-1.5284,0.0,0.0,0.0,0.0,0.0,0.0,0.0,0.0,0.0,0.0,0.0,0.0,0.0,0.0,0.0,0.0,0.0,0.0,0.0,0.0,0.0,0.0,-1.2525,-1.2437,-1.2447,-1.2447,-1.2447,-1.3267,-1.485,-1.3483,-1.2956,-1.3264,-1.3156,-1.3156,-1.3264,-1.3264,-1.3264,-1.3264,-1.3264,-1.3264,-1.3264,-1.3264,-1.3264,-1.3264,-1.3264,-1.4126,-1.5417,-1.6823,-1.7259,-1.7259,0.0,0.0,0.0,0.0,0.0,0.0,0.0,0.0,0.0,0.0,0.0,0.0,0.0,0.0,0.0,0.0,0.0,0.0,0.0,-0.8995,-0.9374,-0.9765,-1.0636,-1.0985,-1.0772,-1.1826,-1.3003,-1.4293,-1.4515,-1.4529,-1.4294,-1.352,-1.2826,-1.2268,-1.2408,-1.2469,-1.2544,-1.3012,-1.3198,-1.3198,-1.3198,0.0,0.0,0.0,0.0,0.0,0.0,0.0,0.0,0.0,-1.2623,-1.2938,-1.3179,-1.3478,-1.3679,-1.3427,-1.2855,-1.248,-1.3178,-1.3744,-1.4227,-1.4463,0.0,0.0,0.0,0.0,0.0,0.0,0.0,0.0,0.0,0.0,0.0,0.0,0.0,0.0,0.0,0.0,0.0,0.0,0.0,0.0,0.0,0.0,0.0,0.0,0.0,0.0,-1.4823,-1.4974,-1.5059,-1.5059,-1.5059,-1.5417,-1.6043,-1.5522,-1.5264,-1.5366,-1.4841,-1.5097,-1.5962,-1.5962,-1.5962,-1.5962,-1.5962,-1.5962,-1.5962,-1.5962,-1.5962,-1.5962,-1.5962,-1.6797,-1.8053,-1.8596,-1.8812,-1.9013,0.0,0.0,0.0,0.0,0.0,0.0,0.0,0.0,0.0,0.0,0.0,0.0,0.0,0.0,0.0,0.0,0.0,0.0,-0.7989,-0.8688,-0.928,-0.9689,-1.0739,-1.1204,-1.0999,-1.2461,-1.3689,-1.4672,-1.5186,-1.4959,-1.4063,-1.3354,-1.2814,-1.2454,-1.2501,-1.271,-1.2998,-1.3122,-1.3098,-1.2947,-1.3123,-1.2647,0.0,0.0,0.0,0.0,0.0,0.0,0.0,0.0,-1.2484,-1.2998,-1.3383,-1.3766,-1.4067,-1.3859,-1.348,-1.3146,-1.352,-1.3994,-1.446,0.0,0.0,0.0,0.0,0.0,0.0,0.0,0.0,0.0,0.0,0.0,0.0,0.0,0.0,0.0,0.0,0.0,0.0,0.0,0.0,0.0,0.0,0.0,0.0,0.0,0.0,0.0,0.0,-1.6319,-1.6426,-1.6426,-1.6426,-1.6473,-1.6567,-1.6567,-1.6806,-1.7292,-1.6658,-1.6795,-1.7448,-1.7542,-1.7582,-1.7582,-1.8094,-1.8199,-1.8304,-1.8708,-1.8909,-1.8909,-1.8909,-1.942,-2.0231,-2.0231,-2.0231,-2.0436,0.0,0.0,0.0,0.0,0.0,0.0,0.0,0.0,0.0,0.0,0.0,0.0,0.0,0.0,0.0,0.0,0.0,0.0,-0.7406,-0.8462,-0.91,-0.91,-1.0131,-1.0998,-1.1563,-1.2622,-1.3459,-1.3997,-1.4672,-1.4677,-1.4074,-1.3081,-1.3154,-1.4038,-1.2997,-1.3095,-1.4035,-1.3458,-1.2885,-1.2467,-1.2985,-1.2196,0.0,0.0,0.0,0.0,0.0,0.0,0.0,0.0,-1.1939,-1.258,-1.372,-1.4072,-1.4186,-1.4739,-1.4516,-1.4229,-1.4666,-1.397,0.0,0.0,0.0,0.0,0.0,0.0,0.0,0.0,0.0,0.0,0.0,0.0,0.0,0.0,0.0,0.0,0.0,0.0,0.0,0.0,0.0,0.0,0.0,0.0,0.0,0.0,0.0,0.0,0.0,-1.5832,-1.5832,-1.5832,-1.5832,-1.5972,-1.6266,-1.6273,-1.6988,-1.8452,-1.8452,-1.8039,-1.7257,-1.7546,-1.7681,-1.7681,-1.9013,-1.9627,-1.9731,-2.1143,-2.1752,-2.1752,-2.1752,-2.1752,-2.1752,-2.1752,-2.1752,-2.1752,0.0,0.0,0.0,0.0,0.0,0.0,0.0,0.0,0.0,0.0,0.0,0.0,0.0,0.0,0.0,0.0,0.0,0.0,-0.7381,-0.8102,-0.87,-0.9088,-1.0131,-1.051,-1.0052,-1.1082,-1.2628,-1.4631,-1.4369,-1.3993,-1.3545,-1.3576,-1.3364,-1.2997,-1.3435,-1.3565,-1.3471,-1.3273,-1.311,-1.2973,-1.3135,-1.2672,0.0,0.0,0.0,0.0,0.0,0.0,0.0,0.0,0.0,0.0,-1.2542,-1.3456,-1.4123,-1.4286,-1.475,-1.5143,-1.4899,0.0,0.0,0.0,0.0,0.0,0.0,0.0,0.0,0.0,0.0,0.0,0.0,0.0,0.0,0.0,0.0,0.0,0.0,0.0,0.0,0.0,0.0,0.0,0.0,0.0,0.0,0.0,0.0,0.0,0.0,-1.5832,-1.5832,-1.5832,-1.5832,-1.5872,-1.5959,-1.5965,-1.6661,-1.7976,-1.8111,-1.8671,-1.9481,-1.9814,-1.9969,-1.9985,-2.0734,-2.1041,-2.1143,-2.155,-2.2257,-2.2976,-2.2055,-2.2257,-2.3076,-2.3076,-2.3076,-2.3276,0.0,0.0,0.0,0.0,0.0,0.0,0.0,0.0,0.0,0.0,0.0,0.0,0.0,0.0,0.0,0.0,0.0,0.0,0.0,-0.7839,-0.8437,-0.8763,-0.9818,-1.0237,-0.9936,-1.0558,-1.1786,-1.3607,-1.3226,-1.2889,-1.2675,-1.316,-1.3329,-1.3152,-1.4026,-1.411,-1.3559,-1.3559,-1.3182,-1.2617,-1.3246,-1.292,-1.2071,0.0,0.0,0.0,0.0,0.0,0.0,0.0,0.0,0.0,-1.1789,0.0,-1.3481,-1.3695,-1.45,-1.5386,-1.5477,0.0,0.0,0.0,0.0,0.0,0.0,0.0,0.0,0.0,0.0,0.0,0.0,0.0,0.0,0.0,0.0,0.0,0.0,0.0,0.0,0.0,0.0,0.0,0.0,0.0,0.0,0.0,0.0,0.0,0.0,-1.6574,-1.6749,-1.7203,-1.7296,-1.7296,-1.7296,-1.7296,-1.794,-1.9131,-1.9257,-2.012,-2.1476,-2.095,-2.0794,-2.0802,-2.1624,-2.2403,-2.3036,-2.3036,-2.3637,-2.4402,-2.3583,-2.3791,-2.4501,-2.4501,-2.4501,-2.4609,0.0,0.0,0.0,0.0,0.0,0.0,0.0,0.0,0.0,0.0,0.0,0.0,0.0,0.0,0.0,0.0,0.0,0.0,0.0,-0.7671,-0.8298,-0.8298,-0.9304,-1.0104,-1.0653,-1.0618,-1.0881,-1.1482,-1.1612,-1.1723,-1.1769,-1.2293,-1.3069,-1.4045,-1.4597,-1.45,-1.3934,-1.3934,-1.304,-1.1736,-1.3142,-1.2838,-1.1635,-1.1955,0.0,0.0,0.0,0.0,0.0,0.0,0.0,0.0,-1.1349,-1.1927,-1.2517,-1.2973,-1.3973,-1.5103,0.0,0.0,0.0,0.0,0.0,0.0,0.0,0.0,0.0,0.0,0.0,0.0,0.0,0.0,0.0,0.0,0.0,0.0,0.0,0.0,0.0,0.0,0.0,0.0,0.0,0.0,0.0,0.0,0.0,0.0,0.0,-1.787,-1.8411,-1.9497,-1.9497,-1.9497,-1.9497,-1.9497,-2.0124,-2.1293,-2.1293,-2.1933,-2.3076,-2.1436,-2.0729,-2.0858,-2.2028,-2.3485,-2.501,-2.501,-2.5273,-2.5674,-2.5674,-2.5703,-2.5742,-2.5742,-2.5742,-2.5742,0.0,0.0,0.0,0.0,0.0,0.0,0.0,0.0,0.0,0.0,0.0,0.0,0.0,0.0,0.0,0.0,0.0,0.0,0.0,-0.7671,-0.8298,-0.8298,-0.9083,-0.9755,-1.0286,-0.9885,-0.9944,-1.0508,-1.1196,-1.179,-1.2254,-1.2799,-1.3171,-1.3406,-1.3999,-1.372,-1.2768,-1.2768,-1.2303,-1.1643,-1.1961,-1.1893,-1.1567,-1.1159,-1.0878,0.0,0.0,0.0,0.0,0.0,0.0,0.0,-1.0844,-1.16,-1.2429,-1.2554,-1.3672,-1.5054,0.0,0.0,0.0,0.0,0.0,0.0,0.0,0.0,0.0,0.0,0.0,0.0,0.0,0.0,0.0,0.0,0.0,0.0,0.0,0.0,0.0,0.0,0.0,0.0,0.0,0.0,0.0,0.0,0.0,0.0,-1.9131,-1.9131,-1.9222,-1.9488,-1.9497,-1.9497,-1.9497,-1.9497,-2.0124,0.0,-2.1293,-2.1933,-2.3067,-2.3124,-2.3249,-2.3551,-2.3839,-2.4185,-2.456,-2.456,-2.4814,-2.5215,-2.5215,-2.543,-2.5742,-2.5742,-2.5742,-2.5742,0.0,0.0,0.0,0.0,0.0,0.0,0.0,0.0,0.0,0.0,0.0,0.0,0.0,0.0,0.0,0.0,0.0,0.0,0.0,-0.7446,-0.8102,-0.865,-0.9293,-0.9768,-1.0049,-0.978,-0.978,-1.0061,-1.0525,-1.1161,-1.204,-1.3119,-1.376,-1.4036,-1.4349,-1.3835,-1.276,-1.2529,-1.2019,-1.1446,-1.1757,-1.1936,-1.1974,-1.148,-1.1148,-1.088,-1.0341,0.0,0.0,0.0,0.0,0.0,0.0,0.0,-1.2065,-1.2328,-1.3396,-1.4815,0.0,0.0,0.0,0.0,0.0,0.0,0.0,0.0,0.0,0.0,0.0,0.0,0.0,0.0,0.0,0.0,0.0,0.0,0.0,0.0,0.0,0.0,0.0,0.0,0.0,0.0,0.0,0.0,0.0,-1.9761,-2.0305,-2.0395,-2.0666,-2.1221,-2.1221,-2.1221,-2.1221,-2.1221,-2.1587,-2.2129,-2.2129,-2.2492,-2.3144,-2.3379,-2.3594,-2.3809,-2.3809,-2.3926,-2.4111,-2.4111,-2.4365,-2.4869,-2.5628,-2.6131,-2.6364,-2.7222,-2.7484,-2.7389,0.0,0.0,0.0,0.0,0.0,0.0,0.0,0.0,0.0,0.0,0.0,0.0,0.0,0.0,0.0,0.0,0.0,0.0,0.0,-0.7284,-0.7963,-0.905,-0.9516,-0.9805,-0.9905,-0.9805,-0.9805,-0.9905,-0.9905,-1.0533,-1.1763,-1.3166,-1.4148,-1.4765,-1.4765,-1.4074,-1.2885,-1.2467,-1.175,-1.103,-1.1583,-1.1907,-1.202,-1.1692,-1.1307,-1.0926,-1.0543,-1.0185,-0.9981,-1.0588,0.0,0.0,0.0,0.0,-1.1663,-1.2015,-1.2906,-1.4249,0.0,0.0,0.0,0.0,0.0,0.0,0.0,0.0,0.0,0.0,0.0,0.0,0.0,0.0,0.0,0.0,0.0,0.0,0.0,0.0,0.0,0.0,0.0,0.0,0.0,0.0,0.0,0.0,0.0,-2.0584,-2.1569,-2.1569,-2.2031,-2.3047,-2.3135,-2.3135,-2.3135,-2.3135,-2.3135,-2.3135,-2.3135,-2.3135,-2.3135,-2.3135,-2.3135,-2.3135,-2.3135,-2.3428,-2.393,-2.393,-2.4356,-2.4957,-2.6407,-2.7013,-2.7387,-2.8763,-2.9329,-2.9223,0.0,0.0,0.0,0.0,0.0,0.0,0.0,0.0,0.0,0.0,0.0,-0.8049,-0.7914,-0.7724,0.0,0.0,0.0,0.0,-0.7162,0.0,0.0,-0.905,-0.9176,-0.9416,-0.9893,-0.9453,-0.9428,-0.9905,-0.9905,-1.0721,0.0,0.0,-1.317,-1.4198,-1.4198,-1.3317,-1.1801,-1.1726,-1.1064,-1.0084,-1.016,-1.0224,-1.0237,-1.0187,-1.0135,-1.0097,-1.0311,-1.0185,-1.0033,-1.0832,-1.1304,0.0,0.0,0.0,0.0,0.0,0.0,0.0,0.0,0.0,0.0,0.0,0.0,0.0,0.0,0.0,0.0,0.0,0.0,0.0,0.0,0.0,0.0,0.0,0.0,0.0,0.0,0.0,0.0,0.0,0.0,0.0,0.0,0.0,0.0,0.0,-2.2599,-2.2677,-2.2862,-2.2862,-2.295,-2.3047,-2.3135,-2.3135,-2.3135,-2.3135,-2.3135,-2.3135,-2.3135,-2.3135,-2.3135,-2.3135,-2.3135,-2.3135,-2.3135,-2.3667,-2.4636,-2.4636,-2.5498,-2.6777,-2.7026,-2.7568,-2.841,-2.8656,-2.9037,-2.9407,0.0,0.0,0.0,0.0,0.0,0.0,0.0,0.0,0.0,0.0,0.0,-0.8049,-0.7914,-0.7724,0.0,0.0,0.0,0.0,-0.7031,-0.7522,0.0,-0.8135,-0.8474,-0.875,-0.9002,-0.8776,-0.8914,-0.9441,-0.9152,0.0,0.0,-1.2522,-1.3333,0.0,-1.4362,-1.3506,-1.2441,-1.1695,-1.0922,-1.0185,-1.0185,-1.0844,-1.1677,-1.0597,-1.0729,-1.1468,-1.0897,-1.0348,0.0,0.0,0.0,0.0,0.0,0.0,0.0,0.0,0.0,0.0,0.0,0.0,0.0,0.0,0.0,0.0,0.0,0.0,0.0,0.0,0.0,0.0,0.0,0.0,0.0,0.0,0.0,0.0,0.0,0.0,0.0,0.0,0.0,0.0,0.0,0.0,0.0,0.0,-2.3135,-2.3135,-2.3135,-2.3135,-2.3135,-2.3135,-2.3135,-2.3135,-2.3135,-2.3135,-2.3135,-2.3135,-2.3135,-2.3135,-2.3135,-2.38,-2.4049,-2.4049,-2.4049,-2.4713,-2.5714,-2.5714,-2.6179,-2.6819,-2.7759,-2.8391,-2.8939,-3.0138,-3.0766,-3.0918,0.0,0.0,0.0,0.0,0.0,0.0,0.0,0.0,0.0,0.0,0.0,0.0,-0.804,0.0,0.0,0.0,0.0,0.0,-0.6996,0.0,0.0,0.0,-0.7839,-0.8064,-0.8064,-0.8064,-0.8273,-0.8663,0.0,0.0,-1.2985,-1.2722,-1.3797,0.0,-1.4928,-1.3923,0.0,0.0,0.0,0.0,-1.0704,-1.1654,-1.2947,-1.1764,-1.2143,-1.3151,-1.2012,0.0,0.0,0.0,0.0,0.0,0.0,0.0,0.0,0.0,0.0,0.0,0.0,0.0,0.0,0.0,0.0,0.0,0.0,0.0,0.0,0.0,0.0,0.0,0.0,0.0,0.0,0.0,0.0,0.0,0.0,0.0,0.0,0.0,0.0,0.0,0.0,0.0,0.0,0.0,-2.3135,-2.3135,-2.3135,-2.3135,-2.3135,-2.3135,-2.3135,-2.3135,-2.3135,-2.3135,-2.3135,-2.3135,-2.3387,-2.3551,-2.3551,-2.4713,-2.5368,-2.5619,-2.5368,-2.588,-2.6883,-2.6883,-2.7046,-2.7429,-2.8629,-2.9181,-2.9585,-3.1307,-3.2089,-3.2122,0.0,0.0,0.0,0.0,0.0,0.0,0.0,0.0,0.0,0.0,0.0,0.0,-0.8403,-0.82,-0.8075,-0.809,0.0,0.0,0.0,0.0,0.0,0.0,0.0,0.0,-0.7443,-0.7443,-0.7456,-0.7481,0.0,0.0,-1.2467,-1.2922,-1.4325,-1.6446,-1.5869,-1.4438,-1.2441,0.0,0.0,0.0,0.0,-1.1897,-1.2562,-1.3476,-1.4192,-1.46,0.0,0.0,0.0,0.0,0.0,0.0,0.0,0.0,-1.0631,0.0,0.0,0.0,0.0,0.0,0.0,0.0,0.0,0.0,0.0,0.0,0.0,0.0,0.0,0.0,0.0,0.0,0.0,0.0,0.0,0.0,0.0,0.0,0.0,0.0,0.0,0.0,0.0,0.0,0.0,0.0,-2.3135,-2.3135,-2.3135,-2.3135,-2.3135,-2.3135,-2.3135,-2.3135,-2.3135,-2.3135,-2.3135,-2.3135,-2.4211,-2.4702,-2.4787,-2.5891,-2.6953,-2.7844,-2.6883,-2.7035,-2.8004,-2.8004,-2.8688,-2.9636,-2.9739,-3.0065,-3.0591,-3.1223,-3.1763,-3.229,0.0,0.0,0.0,0.0,0.0,0.0,0.0,0.0,0.0,0.0,0.0,0.0,0.0,-0.8065,-0.7969,-0.7969,-0.7927,0.0,0.0,0.0,0.0,0.0,0.0,0.0,0.0,-0.6899,-0.7044,0.0,0.0,-0.8953,-1.1307,-1.1914,-1.2947,-1.44,-1.494,-1.4726,-1.3959,-1.3075,0.0,0.0,0.0,0.0,-1.4477,-1.4487,0.0,0.0,0.0,0.0,0.0,0.0,0.0,0.0,0.0,-1.145,-1.1161,-1.0568,-1.1224,0.0,0.0,0.0,0.0,0.0,0.0,0.0,0.0,0.0,0.0,0.0,0.0,0.0,0.0,0.0,0.0,0.0,0.0,0.0,0.0,0.0,0.0,0.0,0.0,0.0,0.0,0.0,0.0,0.0,0.0,-2.3135,-2.3135,-2.3135,-2.3135,-2.3135,-2.3135,-2.3135,-2.3135,-2.3135,-2.3135,-2.3135,-2.4296,-2.4787,-2.4872,-2.6696,-2.7763,-2.8096,-2.845,-2.887,-2.9197,-2.9197,-2.9443,-2.9792,-2.9792,-2.9917,-3.0156,-3.0696,-3.1235,-3.1763,0.0,0.0,0.0,0.0,0.0,0.0,0.0,0.0,-0.8878,-0.8788,0.0,0.0,0.0,0.0,-0.8768,-0.8392,-0.8092,-0.7827,-0.762,-0.7514,0.0,0.0,0.0,0.0,0.0,-0.6599,-0.6774,-0.7131,-0.7306,0.0,0.0,-1.0947,-1.1889,-1.2947,-1.3722,-1.435,0.0,0.0,0.0,-1.3301,0.0,0.0,-1.5662,0.0,0.0,0.0,0.0,0.0,0.0,0.0,0.0,0.0,0.0,-1.189,-1.1186,-1.0608,-1.1374,-1.2529,-1.3103,0.0,0.0,0.0,0.0,0.0,0.0,0.0,0.0,0.0,0.0,0.0,0.0,0.0,0.0,0.0,0.0,0.0,0.0,0.0,0.0,0.0,0.0,0.0,0.0,0.0,0.0,0.0,0.0,0.0,-2.3135,-2.3135,-2.3135,-2.3135,-2.3135,-2.3135,-2.3135,-2.3135,-2.3135,-2.3135,-2.4628,-2.5378,-2.5462,-2.7683,-2.8688,-2.8688,-2.9456,-2.9792,-2.9792,-2.9792,-2.9792,-2.9792,-2.9792,-2.9792,-2.9854,-3.0407,-3.0947,-3.1474,0.0,0.0,0.0,0.0,0.0,0.0,0.0,0.0,-0.8908,-0.8953,0.0,0.0,0.0,0.0,0.0,-0.9435,-0.8499,-0.7871,-0.7664,-0.7377,0.0,0.0,0.0,0.0,-0.6641,-0.6629,-0.6611,-0.6624,-0.7144,-0.7964,-0.9075,-1.0157,-1.1245,-1.2366,-1.2379,-1.3295,-1.4865,0.0,-1.4853,-1.4942,0.0,-1.5694,-1.6008,0.0,0.0,0.0,-1.8933,-1.8834,0.0,0.0,0.0,0.0,0.0,-1.2481,-1.0631,-1.0119,-1.1136,-1.2341,0.0,0.0,0.0,0.0,0.0,0.0,0.0,0.0,0.0,0.0,0.0,0.0,0.0,0.0,0.0,0.0,0.0,0.0,0.0,0.0,0.0,0.0,0.0,0.0,0.0,0.0,0.0,0.0,-2.3135,-2.3135,-2.3135,-2.3135,-2.3135,-2.3135,-2.3135,-2.3135,-2.3135,-2.3135,-2.3135,-2.3135,-2.5473,-2.6554,-2.6637,-2.8791,-2.9792,-2.9792,-2.9792,-2.9792,-2.9792,-2.9792,-2.9792,-2.9792,-2.9792,-2.9792,-2.9854,-3.0394,-3.0922,-3.1449,0.0,0.0,0.0,0.0,0.0,-0.8897,-0.8903,-0.89,-0.9159,0.0,0.0,0.0,-1.0326,-1.0631,-1.0703,-1.0406,-0.9748,-0.911,-0.857,-0.8019,-0.762,-0.7407,-0.736,-0.7376,-0.7457,-0.7032,-0.6945,-0.7169,-0.7331,-0.7556,-0.7901,-0.9014,-1.0119,-1.1182,-1.1625,-1.2517,-1.3634,-1.2831,0.0,0.0,-1.499,-1.6049,0.0,0.0,0.0,0.0,0.0,-2.0666,0.0,0.0,-1.8747,-1.6819,0.0,0.0,-1.1826,-1.1286,-1.2335,-1.3506,-1.2931,0.0,0.0,0.0,0.0,0.0,0.0,0.0,0.0,0.0,0.0,0.0,0.0,0.0,0.0,0.0,0.0,0.0,0.0,0.0,0.0,0.0,0.0,0.0,0.0,0.0,0.0,0.0,-2.3135,-2.3135,-2.3135,-2.3135,-2.3135,-2.3135,-2.3135,-2.3135,-2.3135,-2.3877,-2.4296,-2.4372,-2.6614,-2.7683,-2.7695,-2.9118,-2.9792,-2.9792,-2.9792,-2.9792,-2.9792,-2.9792,-2.9792,-2.9792,-2.9792,-2.9792,-2.9817,-2.9967,-3.0369,-3.0909,0.0,0.0,0.0,-0.957,-0.918,-0.9098,-0.9735,-0.9823,-0.9968,0.0,0.0,0.0,-1.1887,-1.21,-1.1991,-1.1429,-1.0696,-0.9875,-0.8965,-0.8436,-0.7988,-0.7605,-0.7659,-0.7717,-0.7804,-0.759,-0.7471,-0.7406,-0.7406,-0.7281,-0.7081,-0.8236,-0.8964,-0.9379,-1.042,-1.1236,-1.177,-1.1161,0.0,0.0,-1.6157,0.0,0.0,-2.0059,-2.0819,0.0,0.0,0.0,-2.1353,-2.2178,-2.0599,0.0,0.0,0.0,0.0,-1.2429,-1.3317,-1.4311,-1.3722,-1.4375,0.0,0.0,0.0,0.0,0.0,0.0,0.0,0.0,0.0,0.0,0.0,0.0,0.0,0.0,0.0,0.0,0.0,0.0,0.0,0.0,0.0,0.0,0.0,-2.3037,-2.3135,-2.3135,-2.3135,-2.3135,-2.3135,-2.3135,-2.3135,-2.3135,-2.3135,-2.3299,-2.38,-2.4457,-2.5041,-2.5546,-2.7267,-2.8096,-2.8176,-2.9287,-2.9792,-2.9792,-2.9792,-2.9792,-2.9792,-2.9792,-2.9792,-2.9792,-2.9792,-2.9792,-2.9792,-2.9792,-3.0143,-3.0658,0.0,0.0,-1.1022,-1.0783,-0.9851,-0.9652,-1.1124,-1.1482,-1.1451,0.0,-1.2,-1.3192,-1.4357,-1.4449,-1.3953,-1.2768,-1.1657,-1.0488,-0.9205,-0.8767,-0.83,-0.778,-0.7851,-0.7971,-0.8078,-0.8316,-0.8159,-0.7591,-0.7528,-0.7237,-0.6764,-0.7774,-0.7997,-0.7643,-0.9152,-0.9843,-0.9918,-1.0169,0.0,-1.5044,-1.7611,-1.8604,0.0,0.0,-2.1225,0.0,-2.304,-2.3065,-2.2367,-2.395,-2.2425,0.0,0.0,0.0,0.0,0.0,-1.4274,0.0,-1.455,-1.513,0.0,0.0,0.0,0.0,-1.7614,-1.7423,0.0,0.0,0.0,0.0,0.0,0.0,0.0,0.0,0.0,0.0,0.0,0.0,0.0,0.0,0.0,0.0,-2.2441,-2.2783,-2.2998,-2.2998,-2.3047,-2.3066,-2.3066,-2.3193,-2.3309,-2.3309,-2.3387,-2.3963,-2.4957,-2.5126,-2.5714,-2.6719,-2.7775,-2.8267,-2.8347,-2.9365,-2.9792,-2.9792,-2.9792,-2.9869,-2.9934,-2.9934,-2.9934,-2.9934,-2.9934,-2.9998,-3.0075,-3.0075,-3.0392,-3.0823,0.0,-1.092,-1.1457,-1.2596,-1.1642,-1.1189,-1.2722,-1.3956,-1.4692,-1.4606,-1.5126,-1.6033,-1.7395,-1.6614,-1.5863,-1.5598,-1.3641,-1.1835,-1.0533,-0.9406,-0.8765,-0.8646,-0.8669,-0.9054,-0.9875,-0.9487,-0.9116,-0.8765,-0.8286,-0.7878,-0.7585,-0.7796,-0.8221,-0.8776,-0.9126,-0.9503,-1.0018,-1.1783,0.0,-1.4277,-1.5353,0.0,-1.9889,-2.1327,-2.2644,-2.3777,-2.4252,-2.4576,-2.4749,0.0,-2.3514,-2.2372,0.0,0.0,0.0,0.0,0.0,-1.7424,-1.6338,-1.6534,0.0,0.0,0.0,0.0,0.0,-1.6754,0.0,0.0,0.0,0.0,0.0,0.0,0.0,0.0,0.0,0.0,0.0,0.0,0.0,0.0,0.0,0.0,-2.2012,-2.208,-2.2129,-2.2129,-2.2441,-2.2637,-2.2637,-2.377,-2.4457,-2.4457,-2.5389,-2.5975,-2.6141,-2.7023,-2.7602,-2.7775,-2.8937,-2.9456,-2.9456,-2.9714,-2.9792,-2.9792,-2.9792,-3.0203,-3.0895,-3.0895,-3.0895,-3.0895,-3.0895,-3.1402,-3.2046,-3.2046,-3.2114,-3.2277,-1.1274,-1.1763,-1.2331,-1.2603,-1.3042,-1.3358,-1.3385,-1.5269,-1.6962,-1.77,-1.7817,-1.7988,-1.835,-1.7947,-1.7306,-1.6452,-1.4656,-1.2894,-1.1401,-1.0383,-0.9713,-0.9413,-0.9555,-0.9875,-1.0384,-1.0264,-0.9982,-0.955,-0.881,-0.8247,-0.7854,-0.8121,-0.8696,-0.9517,-0.9951,-1.0535,-1.1199,0.0,-1.3048,-1.4241,-1.6596,0.0,-2.0699,-2.2542,-2.3822,-2.4672,-2.5375,-2.6033,-2.6281,-2.4316,-2.3536,0.0,0.0,-1.9884,-1.9683,0.0,-1.7614,-1.8544,-1.7308,-1.7162,0.0,-1.7702,0.0,0.0,0.0,0.0,0.0,0.0,0.0,0.0,0.0,0.0,0.0,0.0,0.0,0.0,0.0,0.0,0.0,0.0,0.0,0.0,-2.123,-2.1631,-2.2113,-2.2564,-2.2766,-2.2887,-2.2887,-2.4354,-2.5024,-2.4535,-2.576,-2.6719,-2.729,-2.7844,-2.8347,-2.8937,-2.9534,-2.9792,-2.9792,-2.9792,-2.9792,-2.9869,-3.0279,-3.0771,-3.1254,-3.1669,-3.2177,-3.2522,-3.2105,-3.2177,-3.2593,-3.2593,-3.2593,-3.2648,-1.1898,-1.2714,-1.3293,-1.2606,-1.4211,-1.5304,-1.438,-1.6271,-1.8319,-1.98,-1.973,-1.9409,-1.9164,-1.9214,-1.8744,-1.7543,-1.595,-1.4358,-1.2811,-1.1812,-1.1047,-1.0473,-1.0479,-1.0604,-1.085,-1.1002,-1.0762,-1.0137,-0.9329,-0.8676,-0.8213,-0.863,-0.9225,-0.9999,-1.1041,-1.1842,0.0,0.0,0.0,-1.5086,0.0,-2.0204,-2.0669,-2.326,-2.4327,-2.467,-2.621,-2.7126,-2.7205,-2.4762,0.0,-2.3119,-2.1387,-2.0906,0.0,0.0,0.0,0.0,0.0,0.0,0.0,0.0,0.0,-1.8116,0.0,0.0,0.0,-1.6966,0.0,0.0,0.0,0.0,0.0,0.0,0.0,0.0,0.0,0.0,0.0,0.0,0.0,0.0,0.0,-2.0918,-2.1729,-2.271,-2.2877,-2.3097,-2.3277,-2.4856,-2.5461,-2.4832,-2.6206,-2.744,-2.8426,-2.8426,-2.8858,-2.9792,-2.9792,-2.9792,-2.9792,-2.9792,-2.9934,-3.0139,-3.0908,-3.1389,-3.1815,-3.2522,-3.3463,-3.4177,-3.3241,-3.2961,-3.3185,-3.3185,-3.3185,-3.3185,-1.3482,-1.3733,-1.4003,-1.4553,-1.5176,-1.5985,-1.7134,-1.7586,-1.8314,-1.9813,-1.9951,-2.0422,-2.1731,-2.0988,0.0,-2.1147,0.0,0.0,-1.603,0.0,-1.2901,-1.2494,-1.1359,-1.1308,-1.25,-1.197,-1.137,-1.0718,-1.0076,-0.9577,-0.9218,-0.929,-0.9611,-1.0233,-1.187,0.0,0.0,0.0,-1.5841,0.0,-1.9148,-1.939,0.0,-2.1928,-2.3445,-2.4221,-2.6619,-2.7565,-2.739,0.0,-2.5301,-2.4783,0.0,-2.2422,0.0,0.0,0.0,0.0,0.0,0.0,0.0,0.0,-2.0037,0.0,0.0,0.0,-1.7718,-1.6754,0.0,0.0,0.0,0.0,0.0,0.0,0.0,0.0,0.0,0.0,0.0,0.0,0.0,0.0,0.0,-1.9063,-1.9682,-2.0854,-2.1538,-2.2325,-2.3246,-2.5275,-2.6553,-2.6976,-2.8025,-2.8946,-2.9611,-2.9624,-2.9702,-2.9792,-2.9792,-2.9792,-2.9792,-2.9792,-3.0279,-3.1044,-3.118,-3.2177,-3.3671,-3.3808,-3.4409,-3.5213,-3.4245,-3.4394,-3.5148,-3.5148,-3.5148,-3.5148,-1.3187,-1.3482,-1.3848,-1.419,-1.4452,-1.5318,-1.7472,-1.8529,-1.9209,-1.9553,-2.0605,-2.1752,0.0,0.0,0.0,0.0,0.0,-1.8115,0.0,0.0,-1.4541,-1.4551,-1.3256,-1.2807,-1.3361,-1.2718,-1.2044,-1.1386,-1.0624,-1.0181,-1.0033,-1.0033,-1.0835,-1.2279,-1.3151,0.0,-1.5833,0.0,0.0,0.0,0.0,0.0,0.0,-2.2931,-2.5124,-2.613,-2.7225,-2.7625,-2.741,0.0,-2.5133,0.0,0.0,0.0,0.0,0.0,0.0,0.0,0.0,0.0,0.0,0.0,0.0,0.0,-1.8046,0.0,-1.7187,0.0,0.0,0.0,0.0,0.0,0.0,0.0,0.0,0.0,0.0,0.0,0.0,0.0,0.0,0.0,0.0,0.0,0.0,0.0,-2.1261,-2.2157,-2.3236,-2.5301,-2.6493,-2.6459,-2.8038,-2.9051,-2.9289,-2.9628,-2.9792,-2.9792,-2.9792,-2.9792,-2.9792,-3.0343,-3.0833,-3.1241,-3.2321,-3.3241,-3.4027,-3.461,-3.5133,-3.5439,-3.5052,-3.5133,-3.5504,-3.5504,-3.5504,-3.5504,-1.2902,0.0,0.0,-1.3826,-1.3871,-1.4773,-1.7394,-1.9423,-2.0408,-1.9784,-2.1032,0.0,-2.308,-2.2485,0.0,0.0,0.0,-1.9994,0.0,0.0,-1.6678,-1.6686,-1.52,0.0,0.0,-1.3569,-1.2756,-1.2059,-1.1076,-1.067,-1.0866,-1.067,-1.154,-1.3333,-1.4198,-1.5738,-1.7723,0.0,0.0,-1.8507,-1.9723,-2.0415,-2.1072,-2.418,-2.6311,-2.7625,-2.7625,-2.7625,-2.7395,-2.605,-2.5003,0.0,-2.4276,0.0,0.0,0.0,0.0,0.0,-2.196,0.0,0.0,0.0,0.0,0.0,0.0,0.0,0.0,0.0,0.0,0.0,0.0,0.0,0.0,-1.7338,0.0,0.0,0.0,0.0,0.0,0.0,0.0,0.0,0.0,0.0,0.0,0.0,0.0,-2.1764,-2.3183,-2.5041,-2.6027,-2.5961,-2.773,-2.8775,-2.8925,-2.9503,-2.9792,-2.9792,-2.9792,-2.9934,-3.0216,-3.0895,-3.1462,-3.2033,-3.338,-3.4177,-3.4461,-3.5213,-3.5504,-3.5504,-3.5504,-3.5504,-3.5504,-3.5504,-3.5504,-3.5504,-1.3256,-1.3775,0.0,0.0,0.0,-1.4777,-1.7392,-2.0302,-2.1885,-2.0863,0.0,0.0,0.0,0.0,0.0,0.0,0.0,-2.3849,-2.2789,0.0,-1.9634,0.0,0.0,-1.5907,0.0,0.0,-1.3436,-1.2771,-1.1425,-1.1126,-1.1723,-1.1096,-1.13,-1.2356,-1.4707,-1.5966,-1.6506,-1.8672,-2.0823,-2.2686,-2.2621,-2.4089,-2.6236,0.0,-2.6002,-2.7625,-2.7625,0.0,0.0,-2.6119,-2.5618,0.0,0.0,0.0,0.0,0.0,0.0,0.0,0.0,0.0,0.0,-2.0841,0.0,0.0,0.0,0.0,-1.8643,0.0,0.0,0.0,0.0,0.0,-1.7978,-1.7463,-1.7827,0.0,0.0,0.0,0.0,0.0,0.0,0.0,0.0,0.0,0.0,0.0,0.0,0.0,-2.3015,-2.4205,-2.5372,-2.644,-2.7557,-2.8386,-2.8925,-2.9503,-2.9792,-2.9792,-2.9792,-3.0279,-3.118,-3.118,-3.2177,-3.3876,-3.3959,-3.4543,-3.5424,-3.5504,-3.5504,-3.5504,-3.5504,-3.5504,-3.5504,-3.5504,-3.5504,-3.5504,0.0,0.0,0.0,0.0,0.0,-1.4535,-1.7369,-2.0347,-2.2884,0.0,0.0,0.0,0.0,0.0,-2.6095,0.0,0.0,-2.5145,-2.4348,-2.2069,0.0,0.0,0.0,-1.7486,0.0,0.0,-1.4809,-1.4109,-1.3226,-1.2888,-1.3121,-1.2873,-1.3231,-1.4113,-1.5699,-1.725,0.0,0.0,0.0,0.0,0.0,-2.5038,-2.7215,0.0,0.0,-2.7625,-2.7625,-2.7625,0.0,-2.7104,-2.6367,-2.5734,-2.6659,-2.6049,-2.5293,-2.6688,-2.6946,0.0,0.0,0.0,-2.7318,-2.3336,0.0,0.0,0.0,0.0,0.0,0.0,0.0,0.0,0.0,-1.8204,-1.8028,-1.7476,-1.7539,-1.7343,0.0,0.0,0.0,0.0,0.0,0.0,0.0,0.0,0.0,0.0,-1.9273,0.0,0.0,-2.4004,-2.5146,-2.5862,-2.6979,-2.7821,-2.8386,-2.8938,-2.9682,-3.0696,-3.0696,-3.118,-3.2177,-3.2749,-3.338,-3.4027,-3.4691,-3.5213,-3.5504,-3.5504,-3.5504,-3.5504,-3.5504,-3.5504,-3.5504,-3.5504,-3.5504,-3.5504,-1.5918,0.0,0.0,0.0,0.0,0.0,0.0,0.0,0.0,0.0,-2.588,0.0,-2.7375,0.0,-2.7514,0.0,-2.7401,-2.6493,-2.5076,-2.3899,0.0,-2.301,-2.1106,0.0,0.0,0.0,-1.6678,-1.5762,-1.4694,-1.4154,-1.4154,-1.3914,-1.4219,-1.4994,0.0,0.0,0.0,0.0,-2.2652,0.0,0.0,-2.6393,0.0,0.0,-2.7625,-2.7625,0.0,-2.7625,-2.7655,-2.7859,-2.738,-2.6946,-2.8487,-2.7783,-2.6784,-2.8356,-2.8392,-2.7869,-2.7753,-2.8554,0.0,-2.5204,-2.4486,0.0,-2.0035,0.0,0.0,0.0,0.0,0.0,0.0,0.0,-1.8538,-1.8678,-1.7982,-1.7187,0.0,0.0,0.0,0.0,0.0,0.0,0.0,0.0,-1.6604,-1.7896,0.0,0.0,0.0,0.0,-2.4556,-2.5297,-2.6603,-2.7544,-2.8097,-2.9007,-3.0064,-3.118,-3.1536,-3.2177,-3.3101,-3.3739,-3.4177,-3.4543,-3.5213,-3.5504,-3.5504,-3.5504,-3.5504,-3.5504,-3.5504,-3.5504,-3.5504,-3.5504,-3.5504,-3.5504,0.0,0.0,0.0,0.0,-1.5837,0.0,0.0,0.0,-2.6735,0.0,-2.6871,-2.6925,-2.7259,-2.769,-2.8068,-2.834,-2.8787,0.0,-2.5426,-2.6468,0.0,0.0,-2.3874,-2.3939,-2.3071,-2.0783,0.0,-1.765,-1.5811,-1.4887,-1.4872,-1.4214,-1.4244,-1.4902,-1.6174,0.0,-1.8961,-2.1599,-2.4219,-2.6694,-2.7969,-2.814,-2.761,-2.761,-2.7625,-2.7625,-2.7625,-2.764,-2.7775,-2.8382,-2.8622,-2.8771,-2.9415,-2.9624,-2.9639,-2.9669,-3.0103,-3.0235,-2.8897,-2.9044,-2.8944,-2.6482,-2.5825,0.0,0.0,0.0,-2.3405,0.0,0.0,0.0,0.0,0.0,-1.9557,-2.0735,-1.8934,-1.7149,-1.6597,0.0,0.0,0.0,0.0,0.0,0.0,0.0,-1.6409,-1.8041,-1.7702,0.0,0.0,0.0,-2.3578,-2.4745,-2.6445,-2.7578,-2.8119,-2.9673,-3.0732,-3.1275,-3.2236,-3.3171,-3.4095,-3.4095,-3.461,-3.5504,-3.5504,-3.5504,-3.5504,-3.5504,-3.5504,-3.5504,-3.5504,-3.5504,-3.5504,-3.5504,-3.5504,-3.5504,-1.8346,-1.9183,-1.9792,0.0,-1.7412,-1.7122,0.0,0.0,0.0,0.0,-2.9111,-2.8854,-3.0022,-3.0251,-3.0357,-3.0426,-3.0032,0.0,0.0,0.0,0.0,-2.738,-2.5934,-2.5159,-2.5274,-2.2511,0.0,-1.9717,-1.738,-1.6204,-1.6204,-1.5575,-1.5379,-1.5604,0.0,0.0,-2.0169,-2.2301,-2.502,-2.7882,-2.8342,-2.8415,0.0,0.0,-2.7625,-2.7625,-2.7625,-2.7904,-2.8368,-2.8547,-2.8921,-2.9445,-3.0073,-3.0268,-3.0372,-3.0881,-3.115,-3.1168,-3.0817,-3.0834,-3.0527,-2.8857,-2.7864,-2.6777,0.0,0.0,0.0,0.0,0.0,0.0,0.0,0.0,0.0,-1.9281,-1.7688,-1.6685,0.0,0.0,0.0,0.0,0.0,0.0,0.0,0.0,-1.666,-1.7526,-1.784,0.0,0.0,0.0,0.0,-2.4192,-2.6438,-2.7832,-2.8378,-2.9914,-3.135,-3.2607,-3.332,-3.4177,-3.5133,-3.5133,-3.5279,-3.5504,-3.5504,-3.5504,-3.5504,-3.5504,-3.5504,-3.5504,-3.5504,-3.5504,-3.5504,-3.5504,-3.5504,-3.5504,-1.9699,0.0,0.0,-2.1479,0.0,0.0,-2.1935,0.0,0.0,-2.8853,-2.911,0.0,-3.0142,-3.0801,-3.119,-3.119,-3.0818,0.0,0.0,0.0,0.0,-2.8213,-2.7736,-2.7247,-2.685,-2.4368,0.0,-2.1256,0.0,0.0,-1.6697,-1.6069,-1.5799,0.0,0.0,-1.845,0.0,-2.3277,-2.5936,-2.8047,-2.8939,0.0,0.0,-2.8461,-2.8248,-2.8053,-2.8353,-2.8517,-2.8682,-2.9235,-2.9684,-3.0103,-3.0746,-3.0956,-3.1031,-3.1362,-3.1482,-3.1482,-3.1482,-3.1482,-3.1319,-3.0484,-2.9866,-2.8975,-2.7338,-2.7228,-2.7229,0.0,-2.6553,-2.6623,0.0,0.0,0.0,-1.8333,-1.7313,0.0,0.0,0.0,0.0,0.0,0.0,0.0,0.0,0.0,0.0,0.0,0.0,0.0,0.0,0.0,0.0,-2.4532,-2.6701,-2.826,-2.908,-3.0627,-3.1999,-3.3134,-3.4185,-3.4986,-3.5504,-3.5504,-3.5504,-3.5504,-3.5504,-3.5504,-3.5504,-3.5504,-3.5504,-3.5504,-3.5831,-3.6006,-3.6006,-3.6368,-3.6085,-3.5504,0.0,0.0,0.0,0.0,0.0,0.0,0.0,-2.3813,0.0,-2.6458,0.0,-2.9372,-2.9299,-3.0429,-3.119,-3.119,0.0,-3.0499,-2.881,-3.0236,-3.0157,-2.784,-2.9328,-2.9583,-2.811,-2.6247,0.0,0.0,0.0,-1.8007,-1.6908,-1.6143,0.0,0.0,0.0,0.0,0.0,-2.4477,-2.7038,-2.8002,-2.9642,-2.9694,-2.8793,-2.9301,-2.9159,-2.8816,-2.946,-2.934,-2.9026,-3.0133,-3.0567,-3.0746,-3.1345,-3.1482,-3.1482,-3.1482,-3.1482,-3.1482,-3.1482,-3.1482,-3.1482,-3.1482,-3.1482,-3.1053,-2.9373,-2.8997,-2.8997,-2.8997,-2.7623,-2.741,0.0,0.0,0.0,0.0,0.0,0.0,0.0,0.0,0.0,0.0,0.0,0.0,0.0,0.0,0.0,0.0,0.0,0.0,0.0,0.0,0.0,-2.507,-2.7113,-2.8706,-2.9841,-3.1525,-3.2637,-3.3151,-3.4727,-3.5504,-3.5504,-3.5504,-3.5504,-3.5504,-3.5504,-3.5504,-3.5504,-3.5504,-3.5554,-3.5733,-3.6446,-3.6737,-3.6843,-3.7515,-3.6951,-3.5797,0.0,0.0,0.0,0.0,0.0,-2.5127,-3.0899,-3.1805,-3.0552,-2.7142,-2.9403,-3.117,-3.084,-3.1038,-3.119,-3.119,-3.119,0.0,0.0,0.0,0.0,-3.0538,-3.0813,-3.0598,-2.9736,-2.7818,-2.6068,0.0,-2.1022,-1.8905,-1.8084,-1.6531,-1.6069,0.0,0.0,0.0,-2.3467,-2.6008,0.0,-2.9682,-3.0096,-3.0206,-3.0006,-2.9619,-2.9449,-2.949,-3.0118,-3.0268,-3.0208,-3.0432,-3.0881,-3.1375,-3.1437,-3.1482,-3.1482,-3.1482,-3.1482,-3.1482,-3.1482,-3.1482,-3.1482,-3.1482,-3.1482,-3.1407,-3.1053,-3.1008,-3.1008,-3.1008,-3.07,-3.0216,-2.9315,0.0,0.0,0.0,0.0,0.0,0.0,0.0,0.0,0.0,0.0,0.0,0.0,0.0,0.0,0.0,0.0,0.0,0.0,0.0,0.0,0.0,-2.7488,0.0,0.0,0.0,-3.3359,-3.3416,-3.4842,-3.5504,-3.5504,-3.5504,-3.5504,-3.5504,-3.5504,-3.5504,-3.5504,-3.5504,-3.5831,-3.6508,-3.7279,-3.7573,-3.7632,-3.7764,-3.7648,-3.7413,0.0,0.0,0.0,0.0,0.0,0.0,0.0,-3.453,0.0,-3.0166,-3.0404,-3.0694,-3.0112,-3.141,-3.2188,-3.1782,-3.2121,-3.2341,-3.2341,-3.2341,-3.2341,-3.2341,-3.1968,0.0,-3.0683,-2.8605,-2.6681,-2.4993,-2.2101,-1.9981,-1.8616,-1.7449,-1.7024,-1.7384,0.0,-2.1117,0.0,0.0,0.0,-3.0329,-3.1048,-3.1427,-3.1505,-3.1533,-3.1415,-3.1249,-3.1865,-3.2098,-3.2006,-3.1242,-3.1255,-3.1482,-3.1482,-3.1482,-3.1482,-3.1482,-3.1482,-3.1482,-3.1482,-3.1482,-3.1482,-3.1482,-3.1482,-3.1482,-3.1482,-3.1482,-3.1482,-3.1482,-3.1482,-3.0891,-2.8983,-2.6773,0.0,0.0,0.0,0.0,0.0,0.0,0.0,0.0,0.0,0.0,0.0,0.0,0.0,0.0,0.0,0.0,0.0,0.0,-2.3843,0.0,0.0,0.0,-3.0896,0.0,-3.3499,-3.3514,-3.4861,-3.5504,-3.5504,-3.5504,-3.5504,-3.5504,-3.5504,-3.5733,-3.6117,-3.6538,-3.689,-3.7322,-3.8076,-3.8358,-3.8414,-3.8832,-3.8707,-3.8302,0.0,-2.7101,0.0,0.0,-2.7694,0.0,-3.4238,-3.5954,-3.5809,-3.3042,-3.176,-3.0796,-3.001,-3.2002,-3.3169,-3.256,-3.3068,-3.3406,-3.3406,-3.3406,-3.3406,-3.3406,-3.2831,-3.2256,-3.1681,-2.96,-2.7649,0.0,-2.3436,-2.1335,-1.9502,-1.8575,-1.829,0.0,0.0,0.0,0.0,0.0,-2.8959,-3.1141,-3.215,-3.2596,-3.2793,-3.3307,-3.3225,-3.288,-3.339,-3.3582,-3.3427,-3.2296,-3.1838,-3.1697,-3.1524,-3.1482,-3.1482,-3.1482,-3.1482,-3.1482,-3.1482,-3.1482,-3.1482,-3.1482,-3.1482,-3.1482,-3.1482,-3.1482,-3.1482,-3.1482,-3.1482,-3.0949,-2.9151,-2.8061,0.0,0.0,0.0,0.0,0.0,0.0,0.0,0.0,0.0,0.0,0.0,0.0,0.0,0.0,0.0,0.0,-2.068,-2.2433,-2.4266,0.0,0.0,-2.9415,-3.1106,0.0,-3.3499,-3.3514,-3.4861,-3.5504,-3.5504,-3.5504,-3.5554,-3.5718,-3.5718,-3.618,-3.6919,-3.7674,-3.8035,-3.8092,-3.8854,-3.9139,-3.9262,-3.985,-3.9731,-3.9086,0.0,0.0,0.0,0.0,0.0,0.0,-3.7295,-3.8364,-3.7207,-3.3775,-3.3935,-3.3995,-3.3107,-3.3237,-3.3372,-3.3305,-3.3372,-3.3406,-3.3406,-3.3406,-3.3406,-3.3406,-3.3339,-3.3271,-3.3203,-3.1664,-3.0142,0.0,0.0,-2.3007,-2.149,-1.9727,-1.9573,0.0,0.0,0.0,0.0,-2.882,-3.0707,-3.3119,-3.3229,-3.3349,-3.3423,-3.3505,-3.3486,-3.3502,-3.3566,-3.3582,-3.3582,-3.3443,-3.2986,-3.2382,-3.1682,-3.1482,-3.1482,-3.1482,-3.1482,-3.1482,-3.1482,-3.1482,-3.1482,-3.1482,-3.1482,-3.1482,-3.1482,-3.1482,-3.1482,-3.1482,-3.1482,-3.1078,-2.9764,-2.9869,-2.9292,0.0,0.0,0.0,0.0,0.0,0.0,0.0,0.0,0.0,0.0,0.0,0.0,0.0,0.0,0.0,-2.0651,-2.2034,-2.3408,-2.4843,-2.7284,-2.8981,-2.9759,-3.2243,-3.3499,-3.3514,-3.4861,-3.5504,-3.5504,-3.5504,-3.5831,-3.6492,-3.6492,-3.698,-3.7748,-3.8469,-3.8799,-3.887,-3.9662,-4.002,-4.002,-4.007,-4.007,-3.9952,0.0,0.0,0.0,0.0,0.0,0.0,0.0,-3.87,-3.8063,-3.6217,-3.5705,-3.5206,-3.4396,-3.5122,-3.5387,-3.4593,-3.4947,-3.5036,-3.4726,-3.4742,-3.4742,-3.4742,-3.4303,-3.4066,-3.4066,-3.2594,-3.1123,0.0,0.0,0.0,0.0,-2.2642,-2.2926,0.0,0.0,-2.7769,-2.9696,-3.0704,-3.2285,-3.4066,-3.4066,-3.4358,-3.4772,-3.4772,-3.4755,-3.48,-3.48,-3.48,-3.4752,-3.4333,-3.3495,-3.2641,-3.2718,-3.2461,-3.2176,-3.2176,-3.2176,-3.2064,-3.164,-3.1796,-3.2064,-3.1582,-3.1853,-3.2064,-3.1582,-3.1482,-3.1482,-3.1482,-3.1482,-3.1317,-3.0851,-2.9983,-2.9146,-2.8487,0.0,0.0,0.0,0.0,0.0,0.0,0.0,0.0,0.0,0.0,0.0,0.0,0.0,0.0,-2.0053,-2.1367,0.0,-2.5063,0.0,-2.8628,-2.9985,-3.2329,-3.3499,-3.3514,-3.4861,-3.5504,-3.5504,-3.5943,-3.6569,-3.7322,-3.7774,-3.8173,-3.8525,-3.9315,-3.961,-3.9662,-3.9952,-4.007,-4.007,-4.007,-4.007,-4.007,-3.4478,0.0,-3.232,0.0,-3.1498,-3.0779,-3.7654,-3.8718,-3.853,-3.8056,-3.7284,-3.6487,-3.567,-3.6537,-3.6847,-3.5955,-3.633,-3.6481,-3.6097,-3.6097,-3.6097,-3.6097,-3.5565,0.0,-3.5053,-3.3939,-3.2633,-3.1072,-2.9845,0.0,0.0,0.0,0.0,0.0,-2.8949,-3.0258,-3.1391,-3.2512,-3.366,-3.4827,-3.4827,-3.5148,-3.5622,-3.5622,-3.5622,-3.5622,-3.5622,-3.5774,-3.5852,-3.5432,-3.4592,-3.3826,-3.3674,-3.343,-3.3192,-3.3192,-3.3185,-3.3048,-3.2342,-3.2353,-3.2476,-3.1955,-3.2064,-3.2231,-3.1894,-3.164,-3.1482,-3.1482,-3.1482,-3.1482,-3.1482,-3.0238,-2.919,-2.928,0.0,0.0,0.0,0.0,0.0,0.0,0.0,-2.144,0.0,0.0,0.0,0.0,0.0,0.0,-2.0565,-2.165,0.0,0.0,0.0,0.0,-3.0075,-3.2387,-3.3499,-3.3514,-3.5085,-3.5831,-3.5831,-3.6843,-3.76,-3.8149,-3.8924,-3.9262,-3.9315,-3.985,-4.007,-4.007,-4.007,-4.007,-4.007,-4.007,-4.007,-4.007,-3.6348,-3.5091,-3.479,-3.8071,-3.8597,-3.8579,-3.8689,-3.8707,-3.8707,-3.8707,-3.8658,-3.8267,-3.7268,-3.721,-3.7173,-3.7173,-3.7173,-3.719,-3.7173,-3.7173,-3.7173,0.0,0.0,-3.6904,-3.6416,-3.6095,-3.5077,-3.3372,0.0,0.0,-3.0023,0.0,-2.933,-3.0091,-3.0835,-3.1985,-3.3423,-3.4167,-3.4912,-3.5605,-3.5605,-3.5605,-3.5622,-3.5622,-3.5622,-3.5622,-3.5622,-3.6113,-3.6755,-3.6772,-3.6733,-3.6403,-3.4272,-3.4078,-3.4691,-3.4691,-3.466,-3.4519,-3.3877,-3.3081,-3.2509,-3.2552,-3.2064,-3.1682,-3.2437,-3.2007,-3.1482,-3.1482,-3.1482,-3.1482,-3.1482,-3.0956,-3.0073,-2.8816,0.0,0.0,0.0,0.0,0.0,0.0,-2.2099,-2.144,-2.0782,0.0,0.0,0.0,0.0,0.0,-2.2649,0.0,0.0,-2.5525,-2.8128,0.0,-2.9633,-3.2183,-3.3499,-3.3499,-3.5615,-3.6615,-3.6676,-3.8157,-3.8854,-3.8908,-3.9731,-4.007,-4.007,-4.0087,-4.007,-4.007,-4.007,-4.007,-4.007,-4.007,-4.007,-4.007,-3.7933,-3.7562,-3.7461,-3.8511,-3.8707,-3.8707,-3.8707,-3.8707,-3.8707,-3.8707,-3.8707,-3.8596,-3.8252,-3.8201,-3.8083,0.0,-3.7685,-3.7542,0.0,-3.719,-3.719,-3.719,-3.719,-3.7114,-3.696,-3.6849,-3.63,-3.5168,0.0,0.0,0.0,-3.2371,-3.2753,-3.3675,-3.3899,-3.4326,-3.4962,-3.574,-3.618,-3.6451,-3.6975,-3.7178,-3.7178,-3.7178,-3.7178,-3.7178,-3.7178,-3.733,-3.755,-3.755,-3.7525,-3.7416,-3.6752,-3.6356,-3.6133,-3.6133,-3.614,-3.59,-3.4679,-3.492,-3.5042,-3.3575,-3.3458,-3.3513,-3.2749,-3.2007,-3.1482,-3.1482,-3.1482,-3.1482,-3.1482,-3.0627,-2.9744,-2.934,-2.8487,0.0,0.0,0.0,0.0,0.0,-2.2742,-2.2278,0.0,-2.1859,0.0,0.0,0.0,0.0,0.0,0.0,0.0,0.0,-2.8746,0.0,-3.1585,-3.3301,-3.4701,-3.5734,-3.6347,-3.7128,-3.8157,-3.8674,-3.9209,-3.9731,-4.002,-4.007,-4.007,-4.007,-4.007,-4.007,-4.007,-4.007,-4.007,-4.007,-4.007,-4.007,-3.9007,-3.8862,-3.8707,-3.8707,-3.8707,-3.8707,-3.8707,-3.8707,-3.8707,-3.8707,-3.8707,-3.8817,-3.9129,-3.9148,0.0,-3.8252,-3.8489,-3.8518,-3.8222,-3.851,-3.8672,-3.8672,-3.8672,-3.8582,-3.8381,-3.8546,0.0,-3.7372,-3.6592,-3.6203,-3.6236,-3.5741,-3.6019,-3.6904,-3.6661,-3.6646,-3.6795,-3.7068,-3.7195,-3.7246,-3.7719,-3.7905,-3.7905,-3.7905,-3.7905,-3.7905,-3.7905,-3.8091,-3.8311,-3.8311,-3.8497,-3.8717,-3.8717,-3.8421,-3.8003,-3.7736,-3.7617,-3.7334,-3.6229,-3.6367,-3.6478,-3.5058,-3.4723,-3.4319,-3.2905,-3.2007,-3.1482,-3.1482,-3.1482,-3.1482,-3.1482,-3.0462,-2.9579,-2.9579,-2.8442,-2.7111,-2.5794,0.0,0.0,0.0,0.0,0.0,0.0,-2.379,-2.4029,0.0,0.0,0.0,0.0,0.0,-2.7354,-2.7822,-3.0101,-3.1966,-3.3291,-3.4163,-3.5316,-3.679,-3.7249,-3.8101,-3.9368,-3.9368,-3.961,-4.007,-4.007,-4.007,-4.007,-4.007,-4.007,-4.007,-4.007,-4.007,-4.007,-4.007,-4.007,-4.007,-3.9599,-3.9109,-3.8701,0.0,-3.8707,-3.8695,-3.8695,-3.8695,-3.8713,-3.8817,-3.8817,-3.9111,-3.99,-3.9974,-3.968,-3.8927,0.0,0.0,-3.9974,-4.0689,-4.1111,-4.1111,-4.1111,-4.0857,-4.0348,-4.0857,-4.0633,-3.969,-3.894,-3.9187,-4.033,-3.9151,-3.8975,-3.9611,-3.9063,-3.8807,-3.8738,-3.8218,-3.8021,-3.8021,-3.8041,-3.8058,-3.8058,-3.8058,-3.8058,-3.8058,-3.8058,-3.8481,-3.9073,-3.9073,-3.9512,-4.007,-4.007,-4.007,-3.9952,-3.9276,-3.9023,-3.883,-3.8256,-3.7546,-3.7009,-3.6894,-3.5815,-3.4372,-3.3022,-3.2094,-3.1582,-3.1539,-3.1482,-3.1482,-3.1482,-3.0462,-2.9579,-2.9579,-2.8464,-2.7066,-2.5794,0.0,0.0,0.0,0.0,0.0,-2.4626,-2.5839,-2.6832,0.0,0.0,0.0,0.0,0.0,-2.9264,-3.0505,-3.1951,-3.3409,-3.4808,-3.4904,-3.5581,-3.6966,-3.8308,-3.9385,-4.007,-4.007,-4.007,-4.007,-4.007,-4.007,-4.007,-4.007,-4.007,-4.007,-4.007,-4.007,-4.007,-4.007,-4.007,-4.007,0.0,0.0,-3.8683,-3.8701,-3.8707,-3.8711,-3.8688,-3.8707,-3.8994,-3.9804,-3.9914,-4.0148,-4.0763,-4.0836,-4.0744,-4.0561,-4.0726,-4.0836,-4.0836,-4.1001,-4.1111,-4.1111,-4.1111,-4.1027,-4.0909,-4.1027,-4.0994,-4.0755,-4.0555,-4.0607,-4.0891,-4.0589,-4.0345,-4.011,-3.998,-3.9711,-3.9405,-3.9381,-3.9325,-3.9376,-3.9506,-3.9563,-3.9563,-3.9563,-3.9563,-3.9563,-3.9563,-3.9681,-3.9817,-3.9817,-3.9935,-4.007,-4.007,-4.007,-4.0054,-3.9868,-3.9834,-3.9629,-3.8887,-3.9013,-3.9055,-3.7876,-3.6516,-3.5126,-3.3748,-3.2848,-3.216,-3.164,-3.1482,-3.1482,-3.1482,-3.0462,-2.9579,-2.9579,-2.8038,-2.6542,-2.5719,-2.5615,0.0,0.0,-2.586,-2.666,-2.6088,-2.7688,-2.8426,0.0,0.0,0.0,-3.0179,-3.1441,-3.1875,-3.1144,-3.3597,-3.5381,-3.6317,-3.6792,-3.7525,-3.8428,-3.9354,-3.9901,-4.007,-4.007,-4.007,-4.007,-4.007,-4.007,-4.007,-4.007,-4.007,-4.007,-4.007,-4.007,-4.007,-4.007,-4.007,-4.007,-3.9861,-3.9458,-3.9025,-3.8739,-3.9915,-4.0886,-4.0891,-4.0895,-4.1111,-4.1691,-4.1332,-4.106,-4.1101,-4.1427,-4.1809,-4.2158,-4.1864,-4.1662,-4.1662,-4.1992,-4.2194,-4.2194,-4.2194,-4.2194,-4.2194,-4.2194,-4.2194,-4.2194,-4.1827,-4.1846,-4.2194,-4.1827,-4.1674,-4.1758,-4.1505,-4.1263,-4.101,-4.0785,-4.0568,-4.0285,-4.0405,-4.0336,-4.007,-4.007,-4.007,-4.007,-4.007,-4.007,-4.007,-4.007,-4.007,-4.007,-4.007,-4.007,-4.007,-4.007,-4.007,-4.002,-3.9558,-3.9782,-3.9834,-3.8656,-3.7551,-3.6432,-3.5395,-3.4308,-3.3365,-3.266,-3.2471,-3.2367,-3.2064,-3.1152,-3.033,-3.0037,-2.8786,-2.7411,-2.6138,-2.6474,-2.6779,-2.6443,-2.7866,-2.8954,-2.9211,-3.0484,-3.0978,-3.027,-3.1449,0.0,-3.1826,-3.3465,-3.4044,-3.3301,-3.4851,-3.6406,-3.7786,-3.8487,-3.9054,-3.9437,-3.9901,-4.007,-4.007,-4.007,-4.007,-4.007,-4.007,-4.007,-4.007,-4.007,-4.007,-4.007,-4.007,-4.007,-4.007,-4.007,-4.007,-4.007,-4.033,-4.0167,-3.9849,-3.944,-4.167,-4.3479,-4.3495,-4.3509,-4.3513,-4.3513,-4.2713,-4.1989,-4.1525,-4.2087,-4.2763,-4.3424,-4.2873,-4.2488,-4.2488,-4.3112,-4.3497,-4.3497,-4.3497,-4.3497,-4.3497,-4.3497,-4.3497,-4.3497,-4.2818,-4.2818,-4.3479,-4.28,-4.2837,-4.3479,-4.3014,-4.2826,-4.277,-4.2203,-4.1621,-4.1178,-4.1087,-4.075,-4.0336,-4.0336,-4.0286,-4.0204,-4.0204,-4.0171,-4.007,-4.007,-4.007,-4.007,-4.007,-4.007,-4.007,-4.007,-4.007,-4.007,-4.007,-4.007,-3.9935,-3.9309,-3.8639,-3.7947,-3.7166,-3.5929,-3.4782,-3.4038,-3.3805,-3.3571,-3.2857,-3.2045,-3.1246,-3.0527,-2.9774,-2.8605,-2.6814,0.0,-2.8602,-2.8732,-3.002,-3.1302,-3.238,-3.3131,-3.3575,-3.3575,-3.415,-3.4269,-3.3761,-3.5047,-3.5842,-3.596,-3.6002,-3.7036,-3.914,-3.9766,-4.007,-4.007,-4.007,-4.007,-4.007,-4.007,-4.007,-4.007,-4.007,-4.007,-4.007,-4.007,-4.007,-4.007,-4.007,-4.007,-4.007,-4.007,-4.007,-4.007,-4.1402,-4.1686,-4.1926,-4.2332,-4.3024,-4.3498,-4.3497,-4.3509,-4.3477,-4.3477,-4.3367,-4.3204,-4.3149,-4.324,-4.3351,-4.3479,-4.3387,-4.3296,-4.3296,-4.3424,-4.3497,-4.3497,-4.3497,-4.3497,-4.3497,-4.3497,-4.3497,-4.3497,-4.3369,-4.3369,-4.3497,-4.3369,-4.3369,-4.3497,-4.341,-4.3375,-4.3339,-4.2808,-4.2519,-4.24,-4.1853,-4.1621,-4.1552,-4.1552,-4.1223,-4.078,-4.078,-4.0497,-4.007,-4.007,-4.007,-4.007,-4.007,-4.007,-4.007,-4.007,-4.007,-4.007,-4.007,-4.007,-4.0054,-3.9935,-3.9395,-3.869,-3.7963,-3.7129,-3.6097,-3.4819,-3.4558,-3.4302,-3.3607,-3.238,-3.1246,-3.0527,-2.9342,-2.8249,-2.728,0.0,-2.9351,-2.9374,-3.156,-3.2954,-3.2529,-3.3627,-3.432,-3.432,-3.4438,-3.4726,-3.525,-3.6113,-3.6891,-3.7533,-3.7557,-3.8316,-3.9884,-4.002,-4.007,-4.007,-4.007,-4.007,-4.007,-4.007,-4.007,-4.007,-4.007,-4.007,-4.007,-4.007,-4.007,-4.007,-4.007,-4.007,-4.007,-4.007,-4.007,-4.007,-4.1104,-4.1944,-4.2469,-4.18,-4.3342,-4.4378,-4.3623,-4.3506,-4.3509,-4.3513,-4.35,-4.3494,-4.3495,-4.3497,-4.3497,-4.3497,-4.3497,-4.3497,-4.3497,-4.3497,-4.3497,-4.3497,-4.3497,-4.3497,-4.3497,-4.3497,-4.3497,-4.3497,-4.3497,-4.3497,-4.3497,-4.3497,-4.3497,-4.3497,-4.3497,-4.3497,-4.3479,-4.325,-4.2976,-4.2673,-4.24,-4.208,-4.181,-4.181,-4.1621,-4.1358,-4.1041,-4.0733,-4.0497,-4.0204,-4.007,-4.007,-4.007,-4.007,-4.007,-4.007,-4.007,-4.007,-4.007,-4.007,-4.007,-4.007,-3.9817,-3.9513,-3.9193,-3.8556,-3.7703,-3.6672,-3.6155,-3.5613,-3.4888,-3.384,-3.2871,-3.2116,-3.1137,-3.0285,-2.9603,-3.0382,-3.1193,-3.1638,-3.3122,-3.4119,-3.4141,-3.4745,-3.5098,-3.5098,-3.5098,-3.525,-3.5605,-3.6349,-3.7127,-3.7889,-3.8667,-3.9394,-4.007,-4.007,-4.007,-4.007,-4.007,-4.007,-4.007,-4.007,-4.007,-4.007,-4.007,-4.007,-4.007,-4.007,-4.007,-4.007,-4.007,-4.007,-4.007,-4.007,-4.007,-4.007,-4.1316,-4.2277,-4.2799,-4.1863,-4.3857,-4.5247,-4.414,-4.3995,-4.3999,-4.4007,-4.3986,-4.3923,-4.3791,-4.3814,-4.3814,-4.3777,-4.3777,-4.3777,-4.3777,-4.3679,-4.3563,-4.3479,-4.3497,-4.3497,-4.3497,-4.3497,-4.3497,-4.3497,-4.3497,-4.3497,-4.3497,-4.3497,-4.3497,-4.3497,-4.3497,-4.3497,-4.3497,-4.3497,-4.325,-4.2902,-4.2902,-4.2637,-4.2185,-4.2185,-4.2103,-4.1937,-4.149,-4.1133,-4.0827,-4.04,-4.0204,-4.007,-4.007,-4.007,-4.007,-4.007,-4.007,-4.007,-4.007,-4.007,-4.007,-4.007,-4.007,-4.007,-4.007,-3.9648,-3.9075,-3.8369,-3.7718,-3.7071,-3.6355,-3.5404,-3.4506,-3.3778,0.0,-3.2336,-3.1698,-3.2295,-3.3077,-3.3711,-3.4343,-3.4979,-3.5571,-3.5622,-3.5622,-3.5622,-3.5622,-3.569,-3.5876,-3.662,-3.7466,-3.8379,-3.9495,-4.007,-4.007,-4.007,-4.007,-4.007,-4.007,-4.007,-4.007,-4.007,-4.007,-4.007,-4.007,-4.007,-4.007,-4.007,-4.007,-4.007,-4.007,-4.007,-4.007,-4.007,-4.007,-4.007,-4.3239,-4.3355,-4.3547,-4.497,-4.5432,-4.5568,-4.5455,-4.5449,-4.5442,-4.5443,-4.5436,-4.5202,-4.4602,-4.4697,-4.4716,-4.4546,-4.4501,-4.4501,-4.4501,-4.4165,-4.3818,-4.3513,-4.3497,-4.3497,-4.3497,-4.3497,-4.3497,-4.3497,-4.3497,-4.3497,-4.3497,-4.3497,-4.3497,-4.3497,-4.3497,-4.3497,-4.3497,-4.3497,-4.3479,-4.3444,-4.3444,-4.341,-4.3356,-4.3356,-4.305,-4.2616,-4.2559,-4.1853,-4.0903,-4.0856,-4.0497,-4.007,-4.007,-4.007,-4.007,-4.007,-4.007,-4.007,-4.007,-4.007,-4.007,-4.007,-4.007,-4.007,-4.007,-4.0037,-3.98,-3.9074,-3.8903,-3.8616,-3.7891,-3.6523,-3.5301,-3.4539,0.0,0.0,-3.2334,-3.3457,-3.437,-3.4428,-3.507,-3.5554,-3.556,-3.5622,-3.5622,-3.5622,-3.5622,-3.5943,-3.6654,-3.7415,-3.8464,-3.9868,-4.002,-4.007,-4.007,-4.007,-4.007,-4.007,-4.007,-4.007,-4.007,-4.007,-4.007,-4.007,-4.007,-4.007,-4.007,-4.007,-4.007,-4.007,-4.007,-4.007,-4.007,-4.007,-4.007,-4.007,-4.322,-4.4085,-4.4836,-4.549,-4.5586,-4.5586,-4.5586,-4.5611,-4.5607,-4.5616,-4.5589,-4.5347,-4.4688,-4.5047,-4.5198,-4.4813,-4.4681,-4.458,-4.458,-4.4474,-4.4106,-4.3513,-4.3497,-4.3497,-4.3497,-4.3497,-4.3497,-4.3497,-4.3497,-4.3497,-4.3497,-4.3497,-4.3497,-4.3497,-4.3497,-4.3497,-4.3497,-4.3497,-4.3497,-4.3497,-4.3497,-4.3497,-4.3497,-4.3497,-4.3375,-4.3142,-4.2826,-4.24,-4.1895,-4.1133,-4.078,-4.0528,-4.0204,-4.007,-4.007,-4.007,-4.007,-4.007,-4.007,-4.007,-4.007,-4.007,-4.007,-4.007,-4.007,-4.007,-4.0003,-3.9715,-3.9309,-3.8903,-3.8633,-3.7736,-3.6789,-3.6028,0.0,-3.4675,-3.4404,-3.4438,-3.4675,-3.5131,-3.5453,-3.5622,-3.5622,-3.5622,-3.5622,-3.5622,-3.6062,-3.6468,-3.6755,-3.7922,-3.9039,-4.0054,-4.007,-4.007,-4.007,-4.007,-4.007,-4.007,-4.007,-4.007,-4.007,-4.007,-4.007,-4.007,-4.007,-4.007,-4.007,-4.007,-4.007,-4.007,-4.007,-4.007,-4.007,-4.007,-4.007,-4.007,-4.3816,-4.4797,-4.5586,-4.5586,-4.5586,-4.5586,-4.5586,-4.5586,-4.559,-4.5589,-4.5607,-4.543,-4.4962,-4.5323,-4.5456,-4.5152,-4.4995,-4.4919,-4.4919,-4.4825,-4.4447,-4.3712,-4.3548,-4.3497,-4.3497,-4.3497,-4.3497,-4.3497,-4.3497,-4.3497,-4.3497,-4.3497,-4.3497,-4.3497,-4.3497,-4.3497,-4.3497,-4.3497,-4.3497,-4.3497,-4.3497,-4.3497,-4.3497,-4.3497,-4.3497,-4.3444,-4.3087,-4.2864,-4.2519,-4.1534,-4.1041,-4.0827,-4.0286,-4.007,-4.007,-4.007,-4.007,-4.007,-4.007,-4.007,-4.007,-4.007,-4.007,-4.007,-4.007,-4.007,-4.007,-4.007,-3.9681,-3.9343,-3.9343,-3.8734,-3.8075,-3.755,-3.684,-3.6332,-3.6332,-3.5893,-3.5673,-3.5943,-3.6197,-3.6248,-3.6011,-3.6197,-3.6332,-3.6332,-3.6823,-3.7229,-3.7466,-3.865,-3.9563,-4.0054,-4.007,-4.007,-4.007,-4.007,-4.007,-4.007,-4.007,-4.007,-4.007,-4.007,-4.007,-4.007,-4.007,-4.007,-4.007,-4.007,-4.007,-4.007,-4.007,-4.007,-4.007,-4.007,-4.007,-4.007,-4.5391,-4.5586,-4.5586,-4.5586,-4.5586,-4.5586,-4.5586,-4.5586,-4.5586,-4.5586,-4.5586,-4.5586,-4.5586,-4.5586,-4.5586,-4.5586,-4.5586,-4.5586,-4.5586,-4.5302,-4.4762,-4.4028,-4.366,-4.3479,-4.3479,-4.3479,-4.3497,-4.3497,-4.3497,-4.3497,-4.3497,-4.3497,-4.3497,-4.3497,-4.3497,-4.3497,-4.3497,-4.3497,-4.3497,-4.3497,-4.3497,-4.3497,-4.3497,-4.3497,-4.3497,-4.3497,-4.3497,-4.3178,-4.2616,-4.2021,-4.1402,-4.0827,-4.0286,-4.0121,-4.0121,-4.0121,-4.0121,-4.0138,-4.0138,-4.0121,-4.007,-4.007,-4.007,-4.007,-4.007,-4.007,-4.007,-4.007,-4.007,-4.007,-4.007,-3.9478,-3.9005,-3.8988,-3.8396,-3.7922,-3.7905,-3.7905,-3.7635,-3.6874,-3.7449,-3.7618,-3.6857,-3.7466,-3.7905,-3.7905,-3.7922,-3.8227,-3.8954,-3.9681,-4.007,-4.007,-4.007,-4.007,-4.007,-4.007,-4.007,-4.007,-4.007,-4.007,-4.007,-4.007,-4.007,-4.007,-4.007,-4.007,-4.007,-4.007,-4.007,-4.007,-4.007,-4.007,-4.007,-4.007,-4.007,-4.007,-4.5449,-4.5586,-4.5586,-4.5586,-4.5586,-4.5586,-4.5586,-4.5586,-4.5586,-4.5586,-4.5586,-4.5586,-4.5586,-4.5586,-4.5586,-4.5586,-4.5586,-4.5586,-4.5586,-4.5302,-4.4988,-4.4762,-4.4175,-4.3849,-4.3849,-4.3612,-4.3497,-4.3497,-4.3497,-4.3497,-4.3497,-4.3497,-4.3497,-4.3497,-4.3497,-4.3497,-4.3497,-4.3497,-4.3497,-4.3497,-4.3497,-4.3497,-4.3497,-4.3497,-4.3497,-4.3497,-4.3497,-4.341,-4.3178,-4.2637,-4.2302,-4.208,-4.1464,-4.1286,-4.1286,-4.1286,-4.0967,-4.0655,-4.0655,-4.0368,-4.007,-4.007,-4.007,-4.007,-4.007,-4.007,-4.007,-4.007,-4.007,-4.007,-4.007,-3.9901,-3.958,-3.9073,-3.8819,-3.8481,-3.7973,-3.7905,-3.7821,-3.7601,-3.777,-3.7821,-3.7584,-3.777,-3.7905,-3.7905,-3.8379,-3.8988,-3.9715,-3.9952,-4.007,-4.007,-4.007,-4.007,-4.007,-4.007,-4.007,-4.007,-4.007,-4.007,-4.007,-4.007,-4.007,-4.007,-4.007,-4.007,-4.007,-4.007,-4.007,-4.007,-4.007,-4.007,-4.007,-4.007,-4.007,-4.007,-4.5653,-4.57,-4.5643,-4.5605,-4.5586,-4.5586,-4.5586,-4.5586,-4.5586,-4.5586,-4.5586,-4.5586,-4.5586,-4.5586,-4.5586,-4.5586,-4.5586,-4.5586,-4.5586,-4.5419,-4.5302,-4.5302,-4.4738,-4.4354,-4.4233,-4.3881,-4.3693,-4.3693,-4.3563,-4.3497,-4.3497,-4.3497,-4.3497,-4.3497,-4.3497,-4.3497,-4.3497,-4.3497,-4.3497,-4.3497,-4.3497,-4.3497,-4.3497,-4.3497,-4.3497,-4.3497,-4.3497,-4.3497,-4.341,-4.2902,-4.2519,-4.2302,-4.1895,-4.181,-4.181,-4.181,-4.1534,-4.1206,-4.0949,-4.0655,-4.0368,-4.0171,-4.007,-4.007,-4.007,-4.007,-4.007,-4.007,-4.007,-4.007,-4.007,-4.007,-3.9935,-3.9495,-3.9428,-3.9276,-3.8819,-3.8768,-3.8667,-3.8379,-3.8582,-3.865,-3.8362,-3.8599,-3.8768,-3.8768,-3.9174,-3.9614,-4.0054,-4.007,-4.007,-4.007,-4.007,-4.007,-4.007,-4.007,-4.007,-4.007,-4.007,-4.007,-4.007,-4.007,-4.007,-4.007,-4.007,-4.007,-4.007,-4.007,-4.007,-4.007,-4.007,-4.007,-4.007,-4.007,-4.007,-4.007,-4.5942,-4.5866,-4.5783,-4.5622,-4.5605,-4.5605,-4.5586,-4.5586,-4.5586,-4.5586,-4.5586,-4.5586,-4.5586,-4.5586,-4.5586,-4.5586,-4.5586,-4.5586,-4.5586,-4.5586,-4.5586,-4.5586,-4.5302,-4.4988,-4.4701,-4.4233,-4.4016,-4.4016,-4.3679,-4.3497,-4.3497,-4.3497,-4.3497,-4.3497,-4.3497,-4.3497,-4.3497,-4.3497,-4.3497,-4.3497,-4.3497,-4.3497,-4.3497,-4.3497,-4.3497,-4.3497,-4.3497,-4.3497,-4.341,-4.2939,-4.2422,-4.1961,-4.1961,-4.1961,-4.1961,-4.1961,-4.1937,-4.175,-4.1223,-4.1041,-4.0874,-4.0286,-4.0154,-4.0171,-4.0121,-4.007,-4.007,-4.007,-4.007,-4.007,-4.007,-4.007,-4.007,-4.007,-4.007,-4.007,-4.007,-4.007,-3.9834,-3.9174,-3.9681,-3.9817,-3.9157,-3.9681,-4.007,-4.007,-4.007,-4.007,-4.007,-4.007,-4.007,-4.007,-4.007,-4.007,-4.007,-4.007,-4.007,-4.007,-4.007,-4.007,-4.007,-4.007,-4.007,-4.007,-4.007,-4.007,-4.007,-4.007,-4.007,-4.007,-4.007,-4.007,-4.007,-4.007,-4.007,-4.007,-4.6088,-4.6036,-4.5936,-4.5661,-4.5699,-4.5719,-4.5605,-4.5586,-4.5586,-4.5586,-4.5586,-4.5586,-4.5586,-4.5586,-4.5586,-4.5586,-4.5586,-4.5586,-4.5586,-4.5586,-4.5586,-4.5586,-4.5531,-4.5457,-4.5381,-4.4489,-4.4016,-4.4016,-4.3679,-4.3497,-4.3497,-4.3497,-4.3497,-4.3497,-4.3497,-4.3497,-4.3497,-4.3497,-4.3497,-4.3497,-4.3497,-4.3497,-4.3497,-4.3497,-4.3497,-4.3497,-4.3497,-4.3497,-4.3479,-4.3375,-4.325,-4.3142,-4.3142,-4.3142,-4.3142,-4.3142,-4.2828,-4.248,-4.2342,-4.1979,-4.1446,-4.0874,-4.075,-4.0625,-4.0204,-4.007,-4.007,-4.007,-4.007,-4.007,-4.007,-4.007,-4.007,-4.007,-4.007,-4.007,-4.007,-4.007,-4.002,-3.9868,-3.9986,-4.002,-3.9868,-3.9986,-4.007,-4.007,-4.007,-4.007,-4.007,-4.007,-4.007,-4.007,-4.007,-4.007,-4.007,-4.007,-4.007,-4.007,-4.007,-4.007,-4.007,-4.007,-4.007,-4.007,-4.007,-4.007,-4.007,-4.007,-4.007,-4.007,-4.007,-4.007,-4.007,-4.007,-4.007,-4.007,-4.6211,-4.6133,-4.6046,-4.5866,-4.5833,-4.5796,-4.5624,-4.5586,-4.5586,-4.5586,-4.5586,-4.5586,-4.5586,-4.5586,-4.5586,-4.5586,-4.5586,-4.5586,-4.5586,-4.5586,-4.5586,-4.5586,-4.5586,-4.5586,-4.5586,-4.4881,-4.4455,-4.4308,-4.3912,-4.3646,-4.3497,-4.3497,-4.3497,-4.3497,-4.3497,-4.3497,-4.3497,-4.3497,-4.3497,-4.3497,-4.3497,-4.3497,-4.3497,-4.3497,-4.3497,-4.3497,-4.3497,-4.3497,-4.3497,-4.3497,-4.3497,-4.3497,-4.3497,-4.3497,-4.3497,-4.3497,-4.3286,-4.3032,-4.2788,-4.248,-4.2062,-4.149,-4.1313,-4.1087,-4.0286,-4.007,-4.007,-4.007,-4.007,-4.007,-4.007,-4.007,-4.007,-4.007,-4.007,-4.007,-4.007,-4.007,-4.007,-4.007,-4.007,-4.007,-4.007,-4.007,-4.007,-4.007,-4.007,-4.007,-4.007,-4.007,-4.007,-4.007,-4.007,-4.007,-4.007,-4.007,-4.007,-4.007,-4.007,-4.007,-4.007,-4.007,-4.007,-4.007,-4.007,-4.007,-4.007,-4.007,-4.007,-4.007,-4.007,-4.007,-4.007,-4.007,-4.007,-4.007,-4.6308,-4.6211,-4.6133,-4.6094,-4.6021,-4.5911,-4.568,-4.5684,-4.5687,-4.5603,-4.5586,-4.5586,-4.5586,-4.5586,-4.5586,-4.5586,-4.5586,-4.5586,-4.5586,-4.5586,-4.5586,-4.5586,-4.5586,-4.5586,-4.5586,-4.5322,-4.4988,-4.458,-4.4204,-4.3836,-4.3497,-4.3497,-4.3497,-4.3497,-4.3497,-4.3497,-4.3497,-4.3497,-4.3497,-4.3497,-4.3497,-4.3497,-4.3497,-4.3497,-4.3497,-4.3497,-4.3497,-4.3497,-4.3497,-4.3497,-4.3497,-4.3497,-4.3497,-4.3497,-4.3497,-4.3497,-4.3497,-4.341,-4.2939,-4.2826,-4.2693,-4.2121,-4.1937,-4.1682,-4.0642,-4.0286,-4.0254,-4.0254,-4.0171,-4.007,-4.007,-4.007,-4.007,-4.007,-4.007,-4.007,-4.007,-4.007,-4.007,-4.007,-4.007,-4.007,-4.007,-4.007,-4.007,-4.007,-4.007,-4.007,-4.007,-4.007,-4.007,-4.007,-4.007,-4.007,-4.007,-4.007,-4.007,-4.007,-4.007,-4.007,-4.007,-4.007,-4.007,-4.007,-4.007,-4.007,-4.007,-4.007,-4.007,-4.007,-4.007,-4.007,-4.007,-4.007,-4.007,-4.007,-4.6308,-4.6289,-4.623,-4.6113,-4.6187,-4.6156,-4.59,-4.6066,-4.6057,-4.5637,-4.5586,-4.5586,-4.5586,-4.5586,-4.5586,-4.5586,-4.5586,-4.5586,-4.5586,-4.5586,-4.5586,-4.5586,-4.5586,-4.5586,-4.5586,-4.5568,-4.5222,-4.458,-4.4204,-4.3836,-4.3497,-4.3497,-4.3497,-4.3497,-4.3497,-4.3497,-4.3497,-4.3497,-4.3497,-4.3497,-4.3497,-4.3497,-4.3497,-4.3497,-4.3497,-4.3497,-4.3497,-4.3497,-4.3497,-4.3497,-4.3497,-4.3497,-4.3497,-4.3497,-4.3497,-4.3497,-4.3497,-4.3479,-4.341,-4.341,-4.325,-4.2732,-4.2577,-4.2382,-4.1725,-4.1178,-4.078,-4.078,-4.04,-4.007,-4.007,-4.007,-4.007,-4.007,-4.007,-4.007,-4.007,-4.007,-4.007,-4.007,-4.007,-4.007,-4.007,-4.007,-4.007,-4.007,-4.007,-4.007,-4.007,-4.007,-4.007,-4.007,-4.007,-4.007,-4.007,-4.007,-4.007,-4.007,-4.007,-4.007,-4.007,-4.007,-4.007,-4.007,-4.007,-4.007,-4.007,-4.007,-4.007,-4.007,-4.007,-4.007,-4.007,-4.007,-4.007,-4.007,-4.6308,-4.6308,-4.6289,-4.6211,-4.6269,-4.6268,-4.6144,-4.6214,-4.6235,-4.6015,-4.5757,-4.5586,-4.5586,-4.5586,-4.5586,-4.5586,-4.5586,-4.5586,-4.5586,-4.5586,-4.5586,-4.5586,-4.5586,-4.5586,-4.5586,-4.5586,-4.5362,-4.4872,-4.4508,-4.4136,-4.3772,-4.3597,-4.3497,-4.3497,-4.3497,-4.3497,-4.3497,-4.3497,-4.3497,-4.3497,-4.3497,-4.3497,-4.3497,-4.3497,-4.3497,-4.3497,-4.3497,-4.3497,-4.3497,-4.3497,-4.3497,-4.3497,-4.3497,-4.3497,-4.3497,-4.3497,-4.3497,-4.3497,-4.3497,-4.3497,-4.3444,-4.3214,-4.3142,-4.3087,-4.281,-4.2306,-4.1707,-4.1041,-4.0497,-4.007,-4.007,-4.007,-4.007,-4.007,-4.007,-4.007,-4.007,-4.007,-4.007,-4.007,-4.007,-4.007,-4.007,-4.007,-4.007,-4.007,-4.007,-4.007,-4.007,-4.007,-4.007,-4.007,-4.007,-4.007,-4.007,-4.007,-4.007,-4.007,-4.007,-4.007,-4.007,-4.007,-4.007,-4.007,-4.007,-4.007,-4.007,-4.007,-4.007,-4.007,-4.007,-4.007,-4.0121,-4.0449,-4.0528,-4.0577]}]]